[[{"header":{"parameterUnit":"m.s-1","parameterCategory":1,"la1":31.0,"la2":29.5877,"lo1":-88.7671,"lo2":-86.6584,"dy":0.0162,"dx":0.0185,"nx":115,"ny":88,"refTime":"2023-08-20T12:00:00:Z","depth":0,"parameterNumber":2,"parameterNumberName":"U-component_of_WINDS"},"data":[0.0,0.0,0.0,0.0,0.0,0.0,0.0,0.0,0.0,0.0,0.0,0.0,0.0,0.0,0.0,0.0,0.0,0.0,0.0,0.0,0.0,0.0,0.0,0.0,0.0,0.0,0.0,0.0,0.0,0.0,0.0,0.0,0.0,0.0,0.0,0.0,0.0,0.0,0.0,0.0,0.0,0.0,0.0,0.0,0.0,0.0,0.0,0.0,0.0,0.0,0.0,0.0,0.0,0.0,0.0,0.0,0.0,0.0,0.0,0.0,0.0,0.0,0.0,0.0,0.0,0.0,0.0,0.0,0.0,0.0,0.0,0.0,0.0,0.0,0.0,0.0,0.0,0.0,0.0,0.0,0.0,0.0,0.0,0.0,0.0,0.0,0.0,0.0,0.0,0.0,0.0,0.0,0.0,0.0,0.0,0.0,0.0,0.0,0.0,0.0,0.0,0.0,0.0,0.0,0.0,0.0,0.0,0.0,0.0,0.0,0.0,0.0,0.0,0.0,0.0,0.0,0.0,0.0,0.0,0.0,0.0,0.0,0.0,0.0,0.0,0.0,0.0,0.0,0.0,0.0,0.0,0.0,0.0,0.0,0.0,0.0,0.0,0.0,0.0,0.0,0.0,0.0,0.0,0.0,0.0,0.0,0.0,0.0,0.0,0.0,0.0,0.0,0.0,0.0,0.0,0.0,0.0,0.0,0.0,0.0,0.0,0.0,0.0,0.0,0.0,0.0,0.0,0.0,0.0,0.0,0.0,0.0,0.0,0.0,0.0,0.0,0.0,0.0,0.0,0.0,0.0,0.0,0.0,0.0,0.0,0.0,0.0,0.0,0.0,0.0,0.0,0.0,0.0,0.0,0.0,0.0,0.0,0.0,0.0,0.0,0.0,0.0,0.0,0.0,0.0,0.0,0.0,0.0,0.0,0.0,0.0,0.0,0.0,0.0,0.0,0.0,0.0,0.0,0.0,0.0,0.0,0.0,0.0,0.0,0.0,0.0,0.0,0.0,0.0,0.0,0.0,0.0,0.0,0.0,0.0,0.0,0.0,0.0,0.0,0.0,0.0,0.0,0.0,0.0,0.0,0.0,0.0,0.0,0.0,0.0,0.0,0.0,0.0,0.0,0.0,0.0,0.0,0.0,0.0,0.0,0.0,0.0,0.0,0.0,0.0,0.0,0.0,0.0,0.0,0.0,0.0,0.0,0.0,0.0,0.0,0.0,0.0,0.0,0.0,0.0,0.0,0.0,0.0,0.0,0.0,0.0,0.0,0.0,0.0,0.0,0.0,0.0,0.0,0.0,0.0,0.0,0.0,0.0,0.0,0.0,0.0,0.0,0.0,0.0,0.0,0.0,0.0,0.0,0.0,0.0,0.0,0.0,0.0,0.0,0.0,0.0,0.0,0.0,0.0,0.0,0.0,0.0,0.0,0.0,0.0,0.0,0.0,0.0,0.0,0.0,0.0,0.0,0.0,0.0,0.0,0.0,0.0,0.0,0.0,0.0,0.0,0.0,0.0,0.0,0.0,0.0,0.0,0.0,0.0,0.0,0.0,0.0,0.0,0.0,0.0,0.0,0.0,0.0,0.0,0.0,0.0,0.0,0.0,0.0,0.0,0.0,0.0,0.0,0.0,0.0,0.0,0.0,0.0,0.0,0.0,0.0,0.0,0.0,0.0,0.0,0.0,0.0,0.0,0.0,0.0,0.0,0.0,0.0,0.0,0.0,0.0,0.0,0.0,0.0,0.0,0.0,0.0,0.0,0.0,0.0,0.0,0.0,0.0,0.0,0.0,0.0,0.0,0.0,0.0,0.0,0.0,0.0,0.0,0.0,0.0,0.0,0.0,0.0,0.0,0.0,0.0,0.0,0.0,0.0,0.0,0.0,0.0,0.0,0.0,0.0,0.0,0.0,0.0,0.0,0.0,0.0,0.0,0.0,0.0,0.0,0.0,0.0,0.0,0.0,0.0,0.0,0.0,0.0,0.0,0.0,0.0,0.0,0.0,0.0,0.0,0.0,0.0,0.0,0.0,0.0,0.0,0.0,0.0,0.0,0.0,0.0,0.0,0.0,0.0,0.0,0.0,0.0,0.0,0.0,0.0,0.0,0.0,0.0,0.0,0.0,0.0,0.0,0.0,0.0,0.0,0.0,0.0,0.0,0.0,0.0,0.0,0.0,0.0,0.0,0.0,0.0,0.0,0.0,0.0,0.0,0.0,0.0,0.0,0.0,0.0,0.0,0.0,0.0,0.0,0.0,0.0,0.0,0.0,0.0,0.0,0.0,0.0,0.0,0.0,0.0,0.0,0.0,0.0,0.0,0.0,0.0,0.0,0.0,0.0,0.0,0.0,0.0,0.0,0.0,0.0,0.0,0.0,0.0,0.0,0.0,0.0,0.0,0.0,0.0,0.0,0.0,0.0,0.0,0.0,0.0,0.0,0.0,0.0,0.0,0.0,0.0,0.0,0.0,0.0,0.0,0.0,0.0,0.0,0.0,0.0,0.0,0.0,0.0,0.0,0.0,0.0,0.0,0.0,0.0,0.0,0.0,0.0,0.0,0.0,0.0,0.0,0.0,0.0,0.0,0.0,0.0,0.0,0.0,0.0,0.0,0.0,0.0,0.0,0.0,0.0,0.0,0.0,0.0,0.0,0.0,0.0,0.0,0.0,0.0,0.0,0.0,0.0,0.0,0.0,0.0,0.0,0.0,0.0,0.0,0.0,0.0,0.0,0.0,0.0,0.0,0.0,0.0,0.0,0.0,0.0,0.0,0.0,0.0,0.0,0.0,0.0,0.0,0.0,0.0,0.0,0.0,0.0,0.0,0.0,0.0,0.0,0.0,0.0,0.0,0.0,0.0,0.0,0.0,0.0,0.0,0.0,0.0,0.0,0.0,0.0,0.0,0.0,0.0,0.0,0.0,0.0,0.0,0.0,0.0,0.0,0.0,0.0,0.0,0.0,0.0,0.0,0.0,0.0,0.0,0.0,0.0,0.0,0.0,0.0,0.0,0.0,0.0,0.0,0.0,0.0,0.0,0.0,0.0,0.0,0.0,0.0,0.0,0.0,0.0,0.0,0.0,0.0,0.0,0.0,0.0,0.0,0.0,0.0,0.0,0.0,0.0,0.0,0.0,0.0,0.0,0.0,0.0,0.0,0.0,0.0,0.0,0.0,0.0,0.0,0.0,0.0,0.0,0.0,0.0,0.0,0.0,0.0,0.0,0.0,0.0,0.0,0.0,0.0,0.0,0.0,0.0,0.0,0.0,0.0,0.0,0.0,0.0,0.0,0.0,0.0,0.0,0.0,0.0,0.0,0.0,0.0,0.0,0.0,0.0,0.0,0.0,0.0,0.0,0.0,0.0,0.0,0.0,0.0,0.0,0.0,0.0,0.0,0.0,0.0,0.0,0.0,0.0,0.0,0.0,0.0,0.0,0.0,0.0,0.0,0.0,0.0,0.0,0.0,0.0,0.0,0.0,0.0,0.0,0.0,0.0,0.0,0.0,0.0,0.0,0.0,0.0,0.0,0.0,0.0,0.0,0.0,0.0,0.0,0.0,0.0,0.0,0.0,0.0,0.0,0.0,0.0,0.0,0.0,0.0,0.0,0.0,0.0,0.0,0.0,0.0,0.0,0.0,0.0,0.0,0.0,0.0,0.0,0.0,0.0,0.0,0.0,0.0,0.0,0.0,0.0,0.0,0.0,0.0,0.0,0.0,0.0,0.0,0.0,0.0,0.0,0.0,0.0,0.0,0.0,0.0,0.0,0.0,0.0,0.0,0.0,0.0,0.0,0.0,0.0,0.0,0.0,0.0,0.0,0.0,0.0,0.0,0.0,0.0,0.0,0.0,0.0,0.0,0.0,0.0,0.0,0.0,0.0,0.0,0.0,0.0,0.0,0.0,0.0,0.0,0.0,0.0,0.0,0.0,0.0,0.0,0.0,0.0,0.0,0.0,0.0,0.0,0.0,0.0,0.0,0.0,0.0,0.0,0.0,0.0,0.0,0.0,0.0,0.0,0.0,0.0,0.0,0.0,0.0,0.0,0.0,0.0,0.0,0.0,0.0,0.0,0.0,0.0,0.0,0.0,0.0,0.0,0.0,0.0,0.0,0.0,0.0,0.0,0.0,0.0,0.0,0.0,0.0,0.0,0.0,0.0,0.0,0.0,0.0,0.0,0.0,0.0,0.0,0.0,0.0,0.0,0.0,0.0,0.0,0.0,0.0,0.0,0.0,0.0,0.0,0.0,0.0,0.0,0.0,0.0,0.0,0.0,-2.1911,0.0,0.0,0.0,0.0,0.0,0.0,0.0,0.0,0.0,0.0,0.0,0.0,0.0,0.0,0.0,0.0,0.0,0.0,0.0,0.0,0.0,0.0,0.0,0.0,0.0,0.0,0.0,0.0,0.0,0.0,0.0,0.0,0.0,0.0,0.0,0.0,0.0,0.0,0.0,0.0,0.0,0.0,0.0,0.0,0.0,0.0,0.0,0.0,0.0,0.0,0.0,0.0,0.0,0.0,0.0,0.0,0.0,0.0,0.0,0.0,0.0,0.0,0.0,0.0,0.0,0.0,0.0,0.0,0.0,0.0,0.0,0.0,0.0,0.0,0.0,0.0,0.0,0.0,0.0,0.0,0.0,0.0,0.0,0.0,0.0,0.0,0.0,0.0,0.0,0.0,0.0,0.0,0.0,0.0,0.0,0.0,0.0,0.0,0.0,0.0,0.0,0.0,0.0,0.0,0.0,0.0,0.0,0.0,0.0,0.0,-2.2137,-2.1996,-2.1969,-2.1913,-2.184,0.0,0.0,0.0,0.0,0.0,0.0,0.0,0.0,0.0,0.0,0.0,0.0,0.0,0.0,0.0,0.0,0.0,0.0,0.0,0.0,0.0,0.0,0.0,0.0,0.0,0.0,0.0,0.0,0.0,0.0,0.0,0.0,0.0,0.0,0.0,0.0,0.0,0.0,0.0,0.0,0.0,0.0,0.0,0.0,0.0,0.0,0.0,0.0,0.0,0.0,0.0,0.0,0.0,0.0,0.0,0.0,0.0,0.0,0.0,0.0,0.0,0.0,0.0,0.0,0.0,0.0,0.0,0.0,0.0,0.0,0.0,0.0,0.0,0.0,0.0,0.0,0.0,0.0,0.0,0.0,0.0,0.0,0.0,0.0,0.0,0.0,0.0,0.0,0.0,0.0,0.0,0.0,0.0,0.0,0.0,0.0,0.0,0.0,0.0,0.0,0.0,0.0,0.0,0.0,0.0,0.0,0.0,0.0,0.0,0.0,0.0,0.0,-2.1897,-2.1855,-2.1812,0.0,0.0,0.0,0.0,0.0,0.0,0.0,0.0,0.0,0.0,0.0,0.0,0.0,0.0,0.0,0.0,0.0,0.0,0.0,0.0,0.0,0.0,0.0,0.0,0.0,0.0,0.0,0.0,0.0,0.0,0.0,0.0,0.0,0.0,0.0,0.0,0.0,0.0,0.0,0.0,0.0,0.0,0.0,0.0,0.0,0.0,0.0,0.0,0.0,0.0,0.0,0.0,0.0,0.0,0.0,0.0,0.0,0.0,0.0,0.0,0.0,0.0,0.0,0.0,0.0,0.0,0.0,0.0,0.0,0.0,0.0,0.0,0.0,0.0,0.0,0.0,0.0,0.0,0.0,0.0,0.0,0.0,0.0,0.0,0.0,0.0,0.0,0.0,0.0,0.0,0.0,0.0,0.0,0.0,0.0,0.0,0.0,0.0,0.0,0.0,0.0,0.0,0.0,0.0,0.0,0.0,0.0,0.0,0.0,0.0,-2.1884,-2.1842,-2.1827,0.0,-2.1781,0.0,0.0,0.0,0.0,0.0,0.0,0.0,0.0,0.0,0.0,0.0,0.0,0.0,0.0,0.0,0.0,0.0,0.0,0.0,0.0,0.0,0.0,0.0,0.0,0.0,0.0,0.0,0.0,0.0,0.0,0.0,0.0,0.0,0.0,0.0,0.0,0.0,0.0,0.0,0.0,0.0,0.0,0.0,0.0,0.0,0.0,0.0,0.0,0.0,0.0,0.0,0.0,0.0,0.0,0.0,0.0,0.0,0.0,0.0,0.0,0.0,0.0,0.0,0.0,0.0,0.0,0.0,0.0,0.0,0.0,0.0,0.0,0.0,0.0,0.0,0.0,0.0,0.0,0.0,0.0,0.0,0.0,0.0,0.0,0.0,0.0,0.0,0.0,0.0,0.0,0.0,0.0,0.0,0.0,0.0,0.0,0.0,0.0,0.0,0.0,0.0,0.0,0.0,0.0,0.0,0.0,0.0,0.0,0.0,0.0,-2.1868,-2.1869,-2.1827,-2.1781,0.0,0.0,0.0,0.0,0.0,0.0,0.0,0.0,0.0,0.0,0.0,0.0,0.0,0.0,0.0,0.0,0.0,0.0,0.0,0.0,0.0,0.0,0.0,0.0,0.0,0.0,0.0,0.0,0.0,0.0,0.0,0.0,0.0,0.0,0.0,0.0,0.0,0.0,0.0,0.0,0.0,0.0,0.0,0.0,0.0,0.0,0.0,0.0,0.0,0.0,0.0,0.0,0.0,0.0,0.0,0.0,0.0,0.0,0.0,0.0,0.0,0.0,0.0,0.0,0.0,0.0,0.0,0.0,0.0,0.0,0.0,0.0,0.0,0.0,0.0,0.0,0.0,0.0,0.0,0.0,0.0,0.0,0.0,0.0,0.0,0.0,0.0,0.0,0.0,0.0,0.0,0.0,0.0,0.0,0.0,0.0,0.0,0.0,0.0,0.0,0.0,0.0,0.0,0.0,0.0,0.0,0.0,0.0,0.0,0.0,-2.1913,-2.1853,-2.1869,-2.1825,-2.1781,-2.1781,0.0,0.0,0.0,0.0,0.0,0.0,0.0,0.0,0.0,0.0,0.0,0.0,0.0,0.0,0.0,0.0,0.0,0.0,0.0,0.0,0.0,0.0,0.0,0.0,0.0,0.0,0.0,0.0,0.0,0.0,0.0,0.0,0.0,0.0,0.0,0.0,0.0,0.0,0.0,0.0,0.0,0.0,0.0,0.0,0.0,0.0,0.0,0.0,0.0,0.0,0.0,0.0,0.0,0.0,0.0,0.0,0.0,0.0,0.0,0.0,0.0,0.0,0.0,0.0,0.0,0.0,0.0,0.0,0.0,0.0,0.0,0.0,0.0,0.0,0.0,0.0,0.0,0.0,0.0,0.0,0.0,0.0,0.0,0.0,0.0,0.0,0.0,0.0,0.0,0.0,0.0,0.0,0.0,0.0,0.0,0.0,0.0,0.0,0.0,0.0,0.0,0.0,0.0,0.0,0.0,0.0,0.0,0.0,-2.1882,-2.1857,-2.1812,-2.1812,-2.1781,-2.1781,0.0,0.0,0.0,0.0,0.0,0.0,0.0,0.0,0.0,0.0,0.0,0.0,0.0,0.0,0.0,0.0,0.0,0.0,0.0,0.0,0.0,0.0,0.0,0.0,0.0,0.0,0.0,0.0,0.0,0.0,0.0,0.0,0.0,0.0,0.0,0.0,0.0,0.0,0.0,0.0,0.0,0.0,0.0,0.0,0.0,0.0,0.0,0.0,0.0,0.0,0.0,0.0,0.0,0.0,0.0,0.0,0.0,0.0,0.0,0.0,0.0,0.0,0.0,0.0,0.0,0.0,0.0,0.0,0.0,0.0,0.0,0.0,0.0,0.0,0.0,0.0,0.0,0.0,0.0,0.0,0.0,0.0,0.0,0.0,0.0,0.0,0.0,0.0,0.0,0.0,0.0,0.0,0.0,0.0,0.0,0.0,0.0,0.0,0.0,0.0,0.0,0.0,0.0,0.0,0.0,0.0,0.0,0.0,0.0,-2.1825,-2.1827,-2.1781,-2.1781,-2.1781,-2.1781,0.0,0.0,0.0,0.0,0.0,0.0,0.0,0.0,0.0,0.0,0.0,0.0,0.0,0.0,0.0,0.0,0.0,0.0,0.0,0.0,0.0,0.0,0.0,0.0,0.0,0.0,0.0,0.0,0.0,0.0,0.0,0.0,0.0,0.0,0.0,0.0,0.0,0.0,0.0,0.0,0.0,0.0,0.0,0.0,0.0,0.0,0.0,0.0,0.0,0.0,0.0,0.0,0.0,0.0,0.0,0.0,0.0,0.0,0.0,0.0,0.0,0.0,0.0,0.0,0.0,0.0,0.0,0.0,0.0,0.0,0.0,0.0,0.0,0.0,0.0,0.0,0.0,0.0,0.0,0.0,0.0,0.0,0.0,0.0,0.0,0.0,0.0,0.0,0.0,0.0,0.0,0.0,0.0,0.0,0.0,0.0,0.0,0.0,0.0,0.0,0.0,0.0,0.0,0.0,0.0,0.0,0.0,0.0,0.0,-2.1781,0.0,-2.1781,-2.1781,-2.1781,-2.1781,0.0,0.0,0.0,0.0,0.0,0.0,0.0,0.0,0.0,0.0,0.0,0.0,0.0,0.0,0.0,0.0,0.0,0.0,0.0,0.0,0.0,0.0,0.0,0.0,0.0,0.0,0.0,0.0,0.0,0.0,0.0,0.0,0.0,0.0,0.0,0.0,0.0,0.0,0.0,0.0,0.0,0.0,0.0,0.0,0.0,0.0,0.0,0.0,0.0,0.0,0.0,0.0,0.0,0.0,0.0,0.0,0.0,0.0,0.0,0.0,0.0,0.0,0.0,0.0,0.0,0.0,0.0,0.0,0.0,0.0,0.0,0.0,0.0,0.0,0.0,0.0,0.0,0.0,0.0,0.0,0.0,0.0,0.0,0.0,0.0,0.0,0.0,0.0,0.0,0.0,0.0,0.0,0.0,0.0,0.0,0.0,0.0,0.0,0.0,0.0,0.0,0.0,0.0,0.0,0.0,0.0,0.0,0.0,-2.154,-2.1781,-2.1781,-2.1781,-2.1781,-2.1781,-2.1781,0.0,0.0,0.0,0.0,0.0,0.0,0.0,0.0,0.0,0.0,0.0,0.0,0.0,0.0,0.0,0.0,0.0,0.0,0.0,0.0,0.0,0.0,0.0,0.0,0.0,0.0,0.0,0.0,0.0,0.0,0.0,0.0,0.0,0.0,0.0,0.0,0.0,0.0,0.0,0.0,0.0,0.0,0.0,0.0,0.0,0.0,0.0,0.0,0.0,0.0,0.0,0.0,0.0,0.0,0.0,0.0,0.0,0.0,0.0,0.0,0.0,0.0,0.0,0.0,0.0,0.0,0.0,0.0,0.0,0.0,0.0,0.0,0.0,0.0,0.0,0.0,0.0,0.0,0.0,0.0,0.0,0.0,0.0,0.0,0.0,0.0,0.0,0.0,0.0,0.0,0.0,0.0,0.0,0.0,0.0,0.0,0.0,0.0,0.0,0.0,0.0,0.0,0.0,0.0,0.0,0.0,0.0,0.0,0.0,-2.1781,-2.1781,-2.1781,-2.1781,-2.1781,-2.1781,0.0,0.0,0.0,0.0,0.0,0.0,0.0,0.0,0.0,0.0,0.0,0.0,0.0,0.0,0.0,0.0,0.0,0.0,0.0,0.0,0.0,0.0,0.0,0.0,0.0,0.0,0.0,0.0,0.0,0.0,0.0,0.0,0.0,0.0,0.0,0.0,0.0,0.0,0.0,0.0,0.0,0.0,0.0,0.0,0.0,0.0,0.0,0.0,0.0,0.0,0.0,0.0,0.0,0.0,0.0,0.0,0.0,0.0,0.0,0.0,0.0,0.0,0.0,0.0,0.0,0.0,0.0,0.0,0.0,0.0,0.0,0.0,0.0,0.0,0.0,0.0,0.0,0.0,0.0,0.0,0.0,0.0,0.0,0.0,0.0,0.0,0.0,0.0,0.0,0.0,0.0,0.0,0.0,0.0,0.0,0.0,0.0,0.0,0.0,0.0,0.0,0.0,0.0,0.0,0.0,0.0,0.0,0.0,0.0,-2.2255,-2.2255,-2.2224,-2.224,-2.2255,-2.2092,-2.1829,0.0,0.0,0.0,0.0,0.0,0.0,0.0,0.0,0.0,0.0,0.0,0.0,0.0,0.0,0.0,0.0,0.0,0.0,0.0,0.0,0.0,0.0,0.0,0.0,0.0,0.0,0.0,0.0,0.0,0.0,0.0,0.0,0.0,0.0,0.0,0.0,0.0,0.0,0.0,0.0,0.0,0.0,0.0,0.0,0.0,0.0,0.0,0.0,0.0,0.0,0.0,0.0,0.0,0.0,0.0,0.0,0.0,0.0,0.0,0.0,0.0,0.0,0.0,0.0,0.0,0.0,0.0,0.0,0.0,0.0,0.0,0.0,0.0,0.0,0.0,0.0,0.0,0.0,0.0,0.0,0.0,0.0,0.0,0.0,0.0,0.0,0.0,0.0,0.0,0.0,0.0,0.0,0.0,0.0,0.0,0.0,0.0,0.0,0.0,0.0,0.0,0.0,0.0,0.0,0.0,0.0,0.0,0.0,-2.3147,-2.3147,-2.313,-2.308,-2.3031,-2.2651,0.0,0.0,0.0,0.0,0.0,0.0,0.0,0.0,0.0,0.0,0.0,0.0,0.0,0.0,0.0,0.0,0.0,0.0,0.0,0.0,0.0,0.0,0.0,0.0,0.0,0.0,0.0,0.0,0.0,0.0,0.0,0.0,0.0,0.0,0.0,0.0,0.0,0.0,0.0,0.0,0.0,0.0,0.0,0.0,0.0,0.0,0.0,0.0,0.0,0.0,0.0,0.0,0.0,0.0,0.0,0.0,0.0,0.0,0.0,0.0,0.0,0.0,0.0,0.0,0.0,0.0,0.0,0.0,0.0,0.0,0.0,0.0,0.0,0.0,0.0,0.0,0.0,0.0,0.0,0.0,0.0,0.0,0.0,0.0,0.0,0.0,0.0,0.0,0.0,0.0,0.0,0.0,0.0,0.0,0.0,0.0,0.0,0.0,0.0,0.0,0.0,0.0,0.0,0.0,0.0,0.0,0.0,0.0,0.0,-2.4727,-2.4826,-2.4558,-2.3974,-2.3344,-2.2899,0.0,0.0,0.0,0.0,0.0,0.0,0.0,0.0,0.0,0.0,0.0,0.0,0.0,0.0,0.0,0.0,0.0,0.0,0.0,0.0,0.0,0.0,0.0,0.0,0.0,0.0,0.0,0.0,0.0,0.0,0.0,0.0,0.0,0.0,0.0,0.0,0.0,0.0,0.0,0.0,0.0,0.0,0.0,0.0,0.0,0.0,0.0,0.0,0.0,0.0,0.0,0.0,0.0,0.0,0.0,0.0,0.0,0.0,0.0,0.0,0.0,0.0,0.0,0.0,0.0,0.0,0.0,0.0,0.0,0.0,0.0,0.0,0.0,0.0,0.0,0.0,0.0,0.0,0.0,0.0,0.0,0.0,0.0,0.0,0.0,0.0,0.0,0.0,0.0,0.0,0.0,0.0,0.0,0.0,0.0,0.0,0.0,0.0,0.0,0.0,0.0,0.0,0.0,0.0,0.0,0.0,0.0,0.0,-2.4223,-2.538,-2.5782,-2.578,-2.5327,-2.4157,-2.3378,0.0,0.0,0.0,0.0,0.0,0.0,0.0,0.0,0.0,0.0,0.0,0.0,0.0,0.0,0.0,0.0,0.0,0.0,0.0,0.0,0.0,0.0,0.0,0.0,0.0,0.0,0.0,0.0,0.0,0.0,0.0,0.0,0.0,0.0,0.0,0.0,0.0,0.0,0.0,0.0,0.0,0.0,0.0,0.0,0.0,0.0,0.0,0.0,0.0,0.0,0.0,0.0,0.0,0.0,0.0,0.0,0.0,0.0,0.0,0.0,0.0,0.0,0.0,0.0,0.0,0.0,0.0,0.0,0.0,0.0,0.0,0.0,0.0,0.0,0.0,0.0,0.0,0.0,0.0,0.0,0.0,0.0,0.0,0.0,0.0,0.0,0.0,0.0,0.0,0.0,0.0,0.0,0.0,0.0,0.0,0.0,0.0,0.0,0.0,0.0,0.0,0.0,0.0,0.0,0.0,0.0,0.0,0.0,-2.4877,-2.5648,-2.6506,-2.6945,-2.6877,-2.5209,-2.394,0.0,0.0,0.0,0.0,0.0,0.0,0.0,0.0,0.0,0.0,0.0,0.0,0.0,0.0,0.0,0.0,0.0,0.0,0.0,0.0,0.0,0.0,0.0,0.0,0.0,0.0,0.0,0.0,0.0,0.0,0.0,0.0,0.0,0.0,0.0,0.0,0.0,0.0,0.0,0.0,0.0,0.0,0.0,0.0,0.0,0.0,0.0,0.0,0.0,0.0,0.0,0.0,0.0,0.0,0.0,0.0,0.0,0.0,0.0,0.0,0.0,0.0,0.0,0.0,0.0,0.0,0.0,0.0,0.0,0.0,0.0,0.0,0.0,0.0,0.0,0.0,0.0,0.0,0.0,0.0,0.0,0.0,0.0,0.0,0.0,0.0,0.0,0.0,0.0,0.0,0.0,0.0,0.0,0.0,0.0,0.0,0.0,0.0,0.0,0.0,0.0,0.0,0.0,0.0,0.0,0.0,0.0,0.0,-2.6403,-2.7194,-2.8076,-2.8519,-2.8502,-2.5765,-2.4239,0.0,0.0,0.0,0.0,0.0,0.0,0.0,0.0,0.0,0.0,0.0,0.0,0.0,0.0,0.0,0.0,0.0,0.0,0.0,0.0,0.0,0.0,0.0,0.0,0.0,0.0,0.0,0.0,0.0,0.0,0.0,0.0,0.0,0.0,0.0,0.0,0.0,0.0,0.0,0.0,0.0,0.0,0.0,0.0,0.0,0.0,0.0,0.0,-1.81,0.0,0.0,0.0,0.0,0.0,0.0,0.0,0.0,0.0,0.0,0.0,0.0,0.0,0.0,0.0,0.0,0.0,0.0,0.0,0.0,0.0,0.0,0.0,0.0,0.0,0.0,0.0,0.0,0.0,0.0,0.0,0.0,0.0,0.0,0.0,0.0,0.0,0.0,0.0,0.0,0.0,0.0,0.0,0.0,0.0,0.0,0.0,0.0,0.0,0.0,0.0,0.0,0.0,0.0,0.0,0.0,0.0,0.0,0.0,-2.7057,-2.8205,-2.8735,-2.8993,-2.8925,-2.6977,-2.5715,0.0,0.0,0.0,0.0,0.0,0.0,0.0,0.0,0.0,0.0,0.0,0.0,0.0,0.0,0.0,0.0,0.0,0.0,0.0,0.0,0.0,0.0,0.0,0.0,0.0,0.0,0.0,0.0,0.0,0.0,0.0,0.0,0.0,0.0,0.0,0.0,0.0,0.0,0.0,0.0,0.0,0.0,0.0,0.0,0.0,0.0,0.0,0.0,0.0,0.0,0.0,0.0,0.0,0.0,0.0,0.0,0.0,0.0,0.0,0.0,0.0,0.0,0.0,0.0,0.0,0.0,0.0,0.0,0.0,0.0,0.0,0.0,0.0,0.0,0.0,0.0,0.0,0.0,0.0,0.0,0.0,0.0,0.0,0.0,0.0,0.0,0.0,0.0,0.0,0.0,0.0,0.0,0.0,0.0,0.0,0.0,0.0,0.0,0.0,0.0,0.0,0.0,0.0,0.0,0.0,0.0,0.0,-2.6402,-2.7545,-2.8928,-2.9225,-2.9331,-2.9331,-2.8377,-2.7547,-2.6837,0.0,0.0,0.0,0.0,0.0,0.0,0.0,0.0,0.0,0.0,0.0,0.0,0.0,0.0,0.0,0.0,0.0,0.0,0.0,0.0,0.0,0.0,0.0,0.0,0.0,0.0,0.0,0.0,0.0,0.0,0.0,0.0,0.0,0.0,0.0,0.0,0.0,0.0,-1.7963,-1.7848,0.0,0.0,0.0,0.0,0.0,0.0,0.0,0.0,-1.8697,0.0,0.0,0.0,0.0,0.0,0.0,0.0,0.0,0.0,0.0,0.0,0.0,0.0,0.0,0.0,0.0,0.0,0.0,0.0,0.0,0.0,0.0,0.0,0.0,0.0,0.0,0.0,0.0,0.0,0.0,0.0,0.0,0.0,0.0,0.0,0.0,0.0,0.0,0.0,0.0,0.0,0.0,0.0,0.0,0.0,0.0,0.0,0.0,0.0,0.0,0.0,0.0,0.0,0.0,0.0,0.0,-2.6059,-2.7607,-2.8913,-2.9867,-3.0531,-3.0835,-3.0801,-2.9389,-2.852,-2.8261,0.0,0.0,0.0,0.0,0.0,0.0,0.0,0.0,0.0,0.0,0.0,0.0,0.0,0.0,0.0,0.0,0.0,0.0,0.0,0.0,0.0,0.0,0.0,0.0,0.0,0.0,0.0,0.0,0.0,0.0,0.0,0.0,0.0,0.0,0.0,0.0,0.0,0.0,0.0,-1.8063,-1.7997,0.0,0.0,0.0,0.0,0.0,0.0,0.0,0.0,-1.9212,0.0,0.0,0.0,0.0,0.0,0.0,0.0,0.0,0.0,0.0,0.0,0.0,0.0,0.0,0.0,0.0,0.0,0.0,0.0,0.0,0.0,0.0,0.0,0.0,0.0,0.0,0.0,0.0,0.0,0.0,0.0,0.0,0.0,0.0,0.0,0.0,0.0,0.0,0.0,0.0,0.0,0.0,0.0,0.0,0.0,0.0,0.0,0.0,0.0,0.0,0.0,0.0,0.0,0.0,0.0,-2.7056,-2.8589,-2.9774,-3.0649,-3.1021,-3.119,-3.1173,-3.0085,-2.9177,0.0,0.0,0.0,0.0,0.0,0.0,0.0,0.0,0.0,0.0,0.0,0.0,0.0,0.0,0.0,0.0,0.0,0.0,0.0,0.0,0.0,0.0,0.0,0.0,0.0,0.0,0.0,0.0,0.0,0.0,0.0,0.0,0.0,0.0,0.0,0.0,0.0,0.0,0.0,0.0,-1.819,-1.8209,-1.8609,0.0,0.0,0.0,0.0,0.0,0.0,-2.0127,-2.0105,0.0,0.0,0.0,0.0,0.0,0.0,0.0,0.0,0.0,0.0,0.0,0.0,0.0,0.0,0.0,0.0,0.0,0.0,0.0,0.0,0.0,0.0,0.0,0.0,0.0,0.0,0.0,0.0,0.0,0.0,0.0,0.0,0.0,0.0,0.0,0.0,0.0,0.0,0.0,0.0,0.0,0.0,0.0,0.0,0.0,0.0,0.0,0.0,0.0,0.0,0.0,0.0,0.0,0.0,0.0,-2.7938,-2.9252,-3.0335,-3.1157,-3.119,-3.119,-3.1173,-3.0326,-2.9398,0.0,0.0,0.0,0.0,0.0,0.0,0.0,0.0,0.0,0.0,0.0,0.0,0.0,0.0,0.0,0.0,0.0,0.0,0.0,0.0,0.0,0.0,0.0,0.0,0.0,0.0,0.0,0.0,0.0,0.0,0.0,0.0,0.0,0.0,0.0,0.0,0.0,0.0,0.0,0.0,0.0,-1.8403,-1.8849,-1.9042,0.0,0.0,0.0,0.0,-2.0499,-2.08,0.0,0.0,0.0,0.0,0.0,0.0,0.0,0.0,0.0,0.0,0.0,0.0,0.0,0.0,0.0,0.0,0.0,0.0,0.0,0.0,0.0,0.0,0.0,0.0,0.0,0.0,0.0,0.0,0.0,0.0,0.0,0.0,0.0,0.0,0.0,0.0,0.0,0.0,0.0,0.0,0.0,0.0,0.0,0.0,0.0,0.0,0.0,0.0,0.0,0.0,0.0,0.0,0.0,0.0,0.0,0.0,-2.8402,-2.952,-3.0444,-3.114,-3.119,-3.119,-3.1173,-2.9743,-2.8876,0.0,0.0,0.0,0.0,0.0,0.0,0.0,0.0,0.0,0.0,0.0,0.0,0.0,0.0,0.0,0.0,0.0,0.0,0.0,0.0,0.0,0.0,0.0,0.0,0.0,0.0,0.0,0.0,0.0,0.0,0.0,0.0,0.0,0.0,0.0,0.0,0.0,0.0,0.0,0.0,0.0,-1.8495,-1.8862,-1.9133,-1.9451,0.0,0.0,-2.0885,-2.1904,-2.1883,0.0,0.0,0.0,0.0,0.0,0.0,0.0,0.0,0.0,0.0,0.0,0.0,0.0,0.0,0.0,0.0,0.0,0.0,0.0,0.0,0.0,0.0,0.0,0.0,0.0,0.0,0.0,0.0,0.0,0.0,0.0,0.0,0.0,0.0,0.0,0.0,0.0,0.0,0.0,0.0,0.0,0.0,0.0,0.0,0.0,0.0,0.0,0.0,0.0,0.0,0.0,0.0,0.0,0.0,0.0,-2.8757,-2.9395,-3.0287,-3.0886,-3.1173,-3.119,-3.119,-3.119,-2.9715,-2.8811,0.0,0.0,0.0,0.0,0.0,0.0,0.0,0.0,0.0,0.0,0.0,0.0,0.0,0.0,0.0,0.0,0.0,0.0,0.0,0.0,0.0,0.0,0.0,0.0,0.0,0.0,0.0,0.0,0.0,0.0,0.0,0.0,0.0,0.0,0.0,0.0,0.0,0.0,0.0,0.0,0.0,0.0,-1.9285,-1.9743,0.0,0.0,0.0,-2.1681,-2.2023,0.0,0.0,0.0,0.0,0.0,0.0,0.0,0.0,0.0,0.0,0.0,0.0,0.0,0.0,0.0,0.0,0.0,0.0,0.0,0.0,0.0,0.0,0.0,0.0,0.0,0.0,0.0,0.0,0.0,0.0,0.0,0.0,0.0,0.0,0.0,0.0,0.0,0.0,0.0,0.0,0.0,0.0,0.0,0.0,0.0,0.0,0.0,0.0,0.0,0.0,0.0,0.0,0.0,0.0,0.0,0.0,0.0,-3.0125,-3.0818,-3.119,-3.119,-3.119,-3.119,-3.1173,-2.9958,0.0,0.0,0.0,0.0,0.0,0.0,0.0,0.0,0.0,0.0,0.0,0.0,0.0,0.0,0.0,0.0,0.0,0.0,0.0,0.0,0.0,0.0,0.0,0.0,0.0,0.0,0.0,-1.9027,0.0,0.0,0.0,0.0,0.0,0.0,0.0,0.0,0.0,0.0,0.0,0.0,0.0,0.0,-1.9467,-1.9859,-2.0442,-2.1003,0.0,0.0,-2.2269,-2.2128,-2.2489,-2.2578,0.0,0.0,0.0,0.0,0.0,0.0,0.0,0.0,0.0,0.0,0.0,0.0,0.0,0.0,0.0,0.0,0.0,0.0,0.0,0.0,0.0,0.0,0.0,0.0,0.0,0.0,0.0,0.0,0.0,0.0,0.0,0.0,0.0,0.0,0.0,0.0,0.0,0.0,0.0,0.0,0.0,0.0,0.0,0.0,0.0,0.0,0.0,0.0,0.0,0.0,0.0,0.0,0.0,0.0,-2.9808,-3.0106,-3.0835,-3.119,-3.119,-3.119,-3.119,-3.1173,-3.0446,-2.9702,0.0,0.0,0.0,0.0,0.0,0.0,0.0,0.0,0.0,0.0,0.0,0.0,0.0,0.0,0.0,0.0,0.0,0.0,0.0,0.0,0.0,0.0,0.0,0.0,0.0,0.0,0.0,0.0,0.0,0.0,0.0,0.0,0.0,0.0,0.0,0.0,0.0,0.0,0.0,0.0,0.0,-2.0508,-2.056,-2.1068,-2.155,0.0,-2.2103,-2.2354,-2.2609,-2.2879,-2.2846,-2.219,0.0,0.0,0.0,0.0,0.0,0.0,0.0,0.0,0.0,0.0,0.0,0.0,0.0,0.0,0.0,0.0,0.0,0.0,0.0,0.0,0.0,0.0,0.0,0.0,0.0,0.0,0.0,0.0,0.0,0.0,0.0,0.0,0.0,0.0,0.0,0.0,0.0,0.0,0.0,0.0,0.0,0.0,0.0,0.0,0.0,0.0,0.0,0.0,0.0,0.0,0.0,0.0,0.0,-3.067,-3.0784,-3.1055,-3.119,-3.119,-3.119,-3.119,-3.119,-3.048,-2.9753,0.0,0.0,0.0,0.0,0.0,0.0,0.0,0.0,0.0,0.0,0.0,0.0,0.0,0.0,0.0,0.0,0.0,0.0,0.0,0.0,0.0,0.0,0.0,0.0,0.0,0.0,0.0,0.0,-2.01,-1.9698,-1.8925,0.0,0.0,0.0,0.0,0.0,0.0,0.0,0.0,0.0,0.0,-2.0783,-2.1274,-2.1583,0.0,0.0,-2.2493,-2.2526,-2.2452,-2.2592,-2.2506,-2.1834,-2.1652,0.0,0.0,0.0,0.0,0.0,0.0,0.0,0.0,0.0,0.0,0.0,0.0,0.0,0.0,0.0,0.0,0.0,0.0,0.0,0.0,0.0,0.0,0.0,0.0,0.0,0.0,0.0,0.0,0.0,0.0,0.0,0.0,0.0,0.0,0.0,0.0,0.0,0.0,0.0,0.0,0.0,0.0,0.0,0.0,0.0,0.0,0.0,0.0,0.0,0.0,0.0,0.0,-3.119,-3.119,-3.119,-3.119,-3.119,-3.119,-3.119,-3.1173,-3.07,-3.0074,0.0,0.0,0.0,0.0,0.0,0.0,0.0,0.0,0.0,0.0,0.0,0.0,0.0,0.0,0.0,0.0,0.0,0.0,0.0,0.0,0.0,0.0,0.0,0.0,0.0,0.0,0.0,0.0,-2.0917,-2.0378,-1.9645,0.0,0.0,0.0,0.0,0.0,0.0,0.0,0.0,0.0,0.0,-2.1405,-2.1889,-2.1992,-2.2148,-2.2534,-2.267,-2.2704,-2.2594,-2.2812,-2.2737,-2.2043,0.0,0.0,0.0,0.0,0.0,0.0,0.0,0.0,0.0,0.0,0.0,0.0,0.0,0.0,0.0,0.0,0.0,0.0,0.0,0.0,0.0,0.0,0.0,0.0,0.0,0.0,0.0,-2.7631,0.0,0.0,-2.7543,0.0,0.0,0.0,0.0,0.0,0.0,0.0,0.0,0.0,0.0,0.0,0.0,0.0,0.0,0.0,0.0,0.0,0.0,0.0,0.0,0.0,0.0,-3.119,-3.119,-3.119,-3.119,-3.119,-3.119,-3.119,-3.119,-3.1173,-3.0818,-3.0091,0.0,0.0,0.0,0.0,0.0,0.0,0.0,0.0,0.0,0.0,0.0,0.0,0.0,0.0,0.0,0.0,0.0,0.0,0.0,0.0,0.0,0.0,0.0,0.0,0.0,0.0,-2.1951,-2.1954,-2.1815,0.0,0.0,0.0,0.0,0.0,0.0,0.0,0.0,0.0,-2.1008,-2.1939,-2.2544,-2.2303,-2.228,-2.2306,-2.2332,-2.2576,-2.2869,-2.3108,-2.3629,-2.3793,0.0,0.0,0.0,0.0,0.0,0.0,0.0,0.0,0.0,0.0,0.0,0.0,0.0,0.0,0.0,0.0,0.0,0.0,0.0,0.0,0.0,0.0,0.0,0.0,0.0,0.0,0.0,-2.7572,-2.7554,0.0,0.0,0.0,0.0,0.0,0.0,0.0,0.0,0.0,0.0,0.0,-2.9025,-2.863,0.0,0.0,0.0,0.0,0.0,0.0,0.0,0.0,0.0,0.0,0.0,0.0,-3.119,-3.119,-3.119,-3.119,-3.119,-3.119,-3.119,-3.119,-3.119,-3.0852,-3.0106,0.0,0.0,0.0,0.0,0.0,0.0,0.0,0.0,0.0,0.0,0.0,0.0,0.0,0.0,0.0,0.0,0.0,0.0,0.0,0.0,0.0,0.0,0.0,0.0,0.0,-2.2334,0.0,0.0,0.0,0.0,0.0,0.0,0.0,0.0,0.0,0.0,0.0,-2.1276,-2.1799,-2.2022,-2.2192,-2.2281,-2.232,-2.2355,0.0,0.0,0.0,0.0,0.0,0.0,0.0,0.0,0.0,0.0,0.0,0.0,0.0,0.0,-2.1026,-2.1041,-2.1153,-2.1154,-2.066,0.0,0.0,0.0,0.0,0.0,0.0,0.0,0.0,0.0,0.0,0.0,0.0,0.0,0.0,-2.7417,-2.7496,-2.7388,0.0,0.0,0.0,0.0,0.0,0.0,0.0,0.0,-2.8562,-2.8869,-2.9605,-2.9257,-2.9219,0.0,-2.9183,-2.8556,0.0,0.0,0.0,0.0,0.0,0.0,0.0,0.0,-3.119,-3.119,-3.119,-3.119,-3.119,-3.119,-3.119,-3.119,-3.119,-3.097,-3.0497,-3.0023,-2.9771,0.0,0.0,0.0,0.0,0.0,0.0,0.0,0.0,0.0,0.0,0.0,0.0,0.0,0.0,0.0,0.0,0.0,0.0,0.0,0.0,0.0,0.0,0.0,-2.3149,0.0,0.0,0.0,0.0,0.0,0.0,0.0,0.0,0.0,-2.2113,-2.1791,-2.1706,-2.2229,-2.2231,-2.2193,-2.2167,0.0,0.0,0.0,0.0,0.0,0.0,0.0,-2.2538,-2.2128,-2.1944,-2.1796,-2.1682,-2.1684,-2.1739,-2.1873,0.0,0.0,-2.1375,-2.17,-2.1836,-2.1218,-2.1044,-2.0729,-1.9913,-1.8813,-1.7955,0.0,0.0,0.0,0.0,0.0,0.0,0.0,0.0,-2.7318,-2.7412,0.0,-2.7398,0.0,0.0,0.0,0.0,-2.9539,-2.9489,0.0,0.0,-2.91,-2.9471,-3.0155,-2.9509,-2.9505,-3.0074,-2.9488,-2.9167,-2.9094,-2.977,0.0,0.0,0.0,0.0,0.0,0.0,-3.119,-3.119,-3.119,-3.119,-3.119,-3.119,-3.119,-3.119,-3.119,-3.119,-3.119,-3.1157,-3.1173,-3.1157,-2.9856,0.0,0.0,0.0,0.0,0.0,0.0,0.0,0.0,0.0,0.0,0.0,0.0,0.0,0.0,0.0,0.0,0.0,0.0,0.0,0.0,-2.4202,0.0,0.0,0.0,0.0,0.0,0.0,0.0,0.0,0.0,0.0,-2.2408,-2.2457,-2.247,-2.2334,0.0,0.0,0.0,0.0,-2.2115,-2.1587,-2.2419,-2.3162,-2.3149,-2.3848,-2.4288,-2.4013,0.0,0.0,-2.2443,-2.1983,-2.1888,-2.2263,-2.2334,-2.2334,-2.2293,-2.2318,-2.2214,-2.1837,-2.1903,-2.1707,-2.0795,-1.9716,-1.9036,-2.8716,0.0,0.0,0.0,0.0,-2.8919,-2.8818,-2.8631,-2.8613,-2.8665,-2.8699,-2.8596,0.0,0.0,0.0,0.0,0.0,0.0,-2.9519,-2.9904,-2.9883,-3.0236,-3.0891,-3.0688,-3.0705,-3.0869,-3.0685,-3.0584,-3.0601,-3.0768,-3.0345,-2.9365,0.0,0.0,0.0,0.0,-3.119,-3.119,-3.119,-3.119,-3.119,-3.119,-3.119,-3.119,-3.119,-3.119,-3.119,-3.119,-3.119,-3.1173,-3.0784,0.0,0.0,0.0,0.0,0.0,0.0,0.0,0.0,0.0,0.0,0.0,0.0,0.0,0.0,0.0,0.0,0.0,0.0,0.0,-2.4202,-2.4103,-2.4051,0.0,0.0,0.0,0.0,0.0,0.0,0.0,0.0,0.0,-2.4385,-2.3557,-2.2903,0.0,0.0,-2.3376,-2.288,-2.2738,-2.2657,-2.2682,-2.2643,0.0,-2.2826,-2.2897,-2.2872,-2.2704,-2.2744,-2.2718,-2.2467,-2.2585,-2.274,-2.2844,-2.2869,-2.2869,-2.2869,-2.2869,-2.284,-2.269,-2.2317,-2.1689,-2.0784,-1.9881,-1.9061,-2.9805,-3.0117,-2.9518,-2.9315,-2.9385,-2.9385,-2.928,-2.9138,-2.9121,-2.914,-2.9193,-2.9102,-2.9362,-2.9832,-3.0123,0.0,0.0,0.0,-3.0299,-3.0609,-3.0592,-3.0809,-3.1173,-3.119,-3.119,-3.119,-3.119,-3.119,-3.119,-3.119,-3.077,-2.9907,0.0,0.0,-3.0548,-3.0987,-3.119,-3.119,-3.119,-3.119,-3.119,-3.119,-3.119,-3.119,-3.119,-3.119,-3.119,-3.119,-3.119,-3.119,-3.092,-3.0362,0.0,0.0,0.0,0.0,0.0,0.0,0.0,0.0,0.0,0.0,0.0,-2.4544,-2.4539,0.0,0.0,0.0,-2.4145,-2.4139,-2.4124,-2.4103,0.0,0.0,0.0,0.0,0.0,0.0,0.0,-2.4733,-2.5111,-2.5321,-2.5157,-2.476,-2.4216,-2.3419,-2.3393,-2.3286,-2.2911,0.0,-2.2781,-2.2843,-2.2737,-2.2708,-2.2863,-2.2866,-2.2732,-2.2518,-2.2642,-2.274,-2.2753,-2.2942,-2.3095,-2.3095,-2.3095,-2.3095,-2.3095,-2.3095,-2.3095,-2.3095,-2.272,-2.2218,-2.1678,-2.0655,-1.9661,-3.0598,-3.1111,-3.0085,-2.9539,-2.9364,-2.9363,-2.929,-2.9162,-2.9179,-2.9253,-2.9345,-2.9235,-2.9736,-3.0694,-3.1417,0.0,-3.1479,-3.1479,-3.1366,-3.119,-3.119,-3.119,-3.119,-3.119,-3.119,-3.119,-3.119,-3.119,-3.119,-3.119,-3.119,-3.119,-3.119,-3.119,-3.119,-3.119,-3.119,-3.119,-3.119,-3.119,-3.119,-3.119,-3.119,-3.119,-3.119,-3.119,-3.119,-3.119,-3.119,-3.1173,-3.0548,-3.0176,-3.0091,0.0,0.0,0.0,0.0,0.0,0.0,0.0,0.0,0.0,0.0,0.0,0.0,0.0,0.0,0.0,-2.403,0.0,-2.3982,-2.4103,0.0,0.0,0.0,-2.5079,-2.5082,-2.5644,-2.593,-2.558,0.0,0.0,-2.5189,-2.5987,-2.5973,-2.4232,-2.3448,-2.2927,-2.2639,-2.2838,-2.2771,-2.2662,-2.2879,-2.3176,-2.3155,-2.3331,-2.3365,-2.3097,-2.3095,-2.3083,-2.307,-2.3083,-2.3095,-2.3095,-2.3095,-2.3095,-2.3095,-2.3095,-2.3095,-2.3095,-2.3065,-2.3047,-2.2781,-2.1698,-2.0623,-3.1038,-3.1193,-3.0915,-3.0762,-3.0726,-3.0726,-3.0724,-3.0666,-3.0649,-3.0705,-3.0707,-3.0705,-3.0825,-3.1055,-3.1261,-3.1308,-3.1269,-3.1269,-3.123,-3.119,-3.119,-3.119,-3.119,-3.119,-3.119,-3.119,-3.119,-3.119,-3.119,-3.119,-3.119,-3.119,-3.119,-3.119,-3.119,-3.119,-3.119,-3.119,-3.119,-3.119,-3.119,-3.119,-3.119,-3.119,-3.119,-3.119,-3.119,-3.119,-3.119,-3.119,-3.1021,-3.0683,-3.0142,-2.9939,0.0,0.0,0.0,0.0,0.0,0.0,0.0,0.0,0.0,-2.4815,-2.4746,0.0,-2.4441,0.0,-2.4009,-2.3861,-2.3855,-2.3861,0.0,0.0,-2.4922,-2.5226,-2.5713,-2.6257,-2.6633,-2.6617,-2.6934,-2.716,-2.7111,-2.6777,-2.6359,-2.5922,-2.5852,-2.5783,-2.5389,-2.4694,-2.4199,-2.4066,-2.3531,-2.3132,-2.3132,-2.3187,-2.3198,-2.3095,-2.3095,-2.3095,-2.3095,-2.3095,-2.3095,-2.3095,-2.3095,-2.3095,-2.3095,-2.3095,-2.3095,-2.3095,-2.3095,-2.2914,-2.231,-2.1846,-2.1207,-3.119,-3.119,-3.119,-3.119,-3.119,-3.119,-3.119,-3.119,-3.119,-3.119,-3.119,-3.119,-3.119,-3.119,-3.119,-3.119,-3.119,-3.119,-3.119,-3.119,-3.119,-3.119,-3.119,-3.119,-3.119,-3.119,-3.119,-3.119,-3.119,-3.119,-3.119,-3.119,-3.119,-3.119,-3.119,-3.119,-3.119,-3.119,-3.119,-3.119,-3.119,-3.119,-3.119,-3.119,-3.1213,-3.1213,-3.119,-3.1213,-3.1232,-3.119,-3.119,-3.1004,-3.0615,-3.0598,-3.0446,0.0,0.0,0.0,0.0,0.0,0.0,0.0,0.0,0.0,0.0,0.0,-2.4359,-2.4219,-2.4219,-2.4271,-2.4321,-2.4608,-2.4941,-2.5326,-2.5629,-2.5939,-2.6232,-2.6793,-2.7184,-2.7272,-2.745,-2.764,-2.7675,-2.7306,-2.6982,-2.6982,-2.7111,-2.689,-2.6,-2.5105,-2.4509,-2.4481,-2.3708,-2.3095,-2.3095,-2.3095,-2.3095,-2.3095,-2.3095,-2.3095,-2.3095,-2.3095,-2.3095,-2.3095,-2.3095,-2.3095,-2.3095,-2.3095,-2.3095,-2.3095,-2.3095,-2.2944,-2.2525,-2.2168,-2.1522,-3.119,-3.119,-3.119,-3.119,-3.119,-3.119,-3.119,-3.119,-3.119,-3.119,-3.119,-3.119,-3.119,-3.119,-3.119,-3.119,-3.119,-3.119,-3.119,-3.119,-3.119,-3.119,-3.119,-3.119,-3.119,-3.119,-3.119,-3.119,-3.119,-3.119,-3.119,-3.119,-3.119,-3.119,-3.119,-3.119,-3.119,-3.121,-3.121,-3.121,-3.121,-3.123,-3.123,-3.123,-3.131,-3.1293,-3.123,-3.1274,-3.1274,-3.121,-3.119,-3.119,-3.119,-3.119,-3.092,0.0,-3.026,0.0,0.0,0.0,0.0,0.0,0.0,0.0,0.0,-2.4585,-2.448,-2.4322,-2.4691,-2.4965,-2.5061,-2.5599,-2.5931,-2.5928,-2.6425,-2.6753,-2.6746,-2.7255,-2.7585,-2.7585,-2.7585,-2.7585,-2.76,-2.7585,-2.7585,-2.7534,-2.7549,-2.7137,-2.5973,-2.5175,-2.4738,-2.4567,-2.3826,-2.3305,-2.3125,-2.3095,-2.3095,-2.3095,-2.3095,-2.3095,-2.3095,-2.3095,-2.3095,-2.3095,-2.3095,-2.3095,-2.3095,-2.3095,-2.3095,-2.3095,-2.3095,-2.3095,-2.3005,-2.2567,-2.2063,-3.119,-3.119,-3.119,-3.119,-3.119,-3.119,-3.119,-3.119,-3.119,-3.119,-3.119,-3.119,-3.119,-3.119,-3.119,-3.119,-3.119,-3.119,-3.119,-3.119,-3.119,-3.119,-3.119,-3.119,-3.119,-3.119,-3.119,-3.119,-3.119,-3.119,-3.119,-3.119,-3.119,-3.119,-3.119,0.0,0.0,0.0,-3.1293,-3.1293,-3.1276,-3.1385,-3.144,-3.144,-3.1443,0.0,-3.1293,-3.1276,-3.1254,-3.119,-3.119,0.0,0.0,0.0,0.0,0.0,0.0,0.0,0.0,0.0,0.0,0.0,-2.7982,-2.7509,-2.6709,-2.6103,-2.5719,-2.5576,-2.5591,-2.5574,-2.549,-2.5586,-2.5886,-2.6396,-2.6576,-2.6821,-2.733,-2.7525,-2.7585,-2.7585,-2.7585,-2.7585,-2.7585,-2.7585,-2.7585,-2.7585,-2.7585,-2.7484,-2.7188,-2.6469,-2.6054,-2.5987,-2.4866,-2.3855,-2.3185,-2.3155,-2.3185,-2.3095,-2.3095,-2.3095,-2.3095,-2.3095,-2.3095,-2.3095,-2.3095,-2.3095,-2.3095,-2.3095,-2.3095,-2.3095,-2.3095,-2.3095,-2.3095,-2.2975,-2.2702,-3.1752,-3.1718,-3.1362,-3.119,0.0,-3.119,-3.119,-3.119,-3.119,-3.119,-3.119,-3.119,-3.119,-3.119,-3.119,-3.119,-3.119,-3.119,-3.119,-3.119,-3.119,-3.119,-3.119,-3.119,-3.119,-3.119,-3.119,-3.119,-3.119,-3.119,-3.119,-3.119,-3.119,-3.119,-3.119,-3.119,-3.123,-3.1254,-3.1252,-3.1252,-3.1252,-3.1308,-3.1346,-3.1346,-3.1368,0.0,0.0,0.0,0.0,0.0,0.0,0.0,0.0,-3.119,0.0,-3.119,-3.119,-3.0962,-3.0457,-3.0555,-3.0364,-2.9688,-2.95,-2.8711,-2.7137,-2.628,-2.5824,-2.5778,-2.6017,-2.618,-2.6108,-2.6378,-2.6746,-2.7061,-2.7091,-2.7255,-2.7525,-2.7585,-2.7585,-2.7585,-2.7585,-2.7585,-2.7585,-2.7585,-2.7585,-2.7585,-2.7585,-2.7585,-2.7549,-2.6982,-2.6404,-2.6014,-2.5425,-2.4724,-2.4295,-2.3872,-2.3708,-2.3649,-2.3365,-2.3125,-2.3095,-2.3095,-2.3095,-2.3095,-2.3095,-2.3095,-2.3095,-2.3095,-2.3095,-2.3095,-2.3095,-2.3095,-2.3095,-2.3095,-2.3005,-3.2496,-3.2446,-3.1833,-3.1579,-3.1579,-3.1444,-3.1328,-3.119,-3.119,0.0,0.0,-3.119,-3.119,-3.119,-3.119,-3.119,-3.119,-3.119,-3.119,-3.119,-3.119,-3.119,-3.119,-3.119,-3.119,-3.119,-3.119,-3.119,-3.119,-3.119,-3.119,-3.119,-3.119,-3.119,-3.119,-3.119,-3.119,-3.119,-3.123,-3.123,-3.121,-3.123,-3.1249,-3.1266,-3.131,-3.1293,-3.1213,-3.1274,-3.1274,-3.121,-3.119,-3.119,-3.119,-3.119,-3.119,-3.119,-3.119,-3.119,-3.119,-3.119,-3.119,-3.119,-3.0638,-2.9447,-2.7383,-2.655,-2.6077,-2.5982,-2.6477,-2.6791,-2.6791,-2.727,-2.7585,-2.7585,-2.7585,-2.7585,-2.7585,-2.7585,-2.7585,-2.7585,-2.7585,-2.7585,-2.7585,-2.7585,-2.7585,-2.7585,-2.7585,-2.7585,-2.7509,-2.7126,-2.651,-2.5864,-2.5646,-2.555,-2.5328,-2.4908,-2.4509,-2.4452,-2.3959,-2.3501,-2.3322,-2.3305,-2.3245,-2.3095,-2.3095,-2.3095,-2.3095,-2.3095,-2.3095,-2.3095,-2.3095,-2.3095,-2.3095,-2.3095,-2.3095,-3.3237,-3.322,-3.3136,-3.3102,-3.3051,-3.2429,-3.1802,-3.1207,-3.119,-3.119,-3.119,-3.119,-3.119,-3.119,-3.119,-3.119,-3.119,-3.119,-3.119,-3.119,-3.119,-3.119,-3.119,-3.119,-3.119,-3.119,-3.119,-3.119,-3.119,-3.119,-3.119,-3.119,-3.119,-3.119,-3.119,-3.119,-3.119,-3.119,-3.1254,-3.1276,-3.1276,-3.1404,-3.146,-3.146,-3.1443,-3.1423,-3.1293,-3.1276,-3.1274,-3.121,-3.119,-3.119,-3.119,-3.119,-3.119,-3.119,-3.119,-3.119,-3.119,-3.119,-3.119,-3.1171,-3.0638,-2.9923,-2.9112,-2.8459,-2.7874,-2.739,-2.745,-2.7465,-2.7465,-2.759,-2.7635,-2.761,-2.7585,-2.7585,-2.7585,-2.7585,-2.7585,-2.7585,-2.7585,-2.7585,-2.7585,-2.7585,-2.7585,-2.7585,-2.7585,-2.7585,-2.7575,-2.7524,-2.7152,-2.6563,-2.6351,-2.6095,-2.5701,-2.5356,-2.5245,-2.5245,-2.5119,-2.4696,-2.4105,-2.4031,-2.3796,-2.3228,-2.3095,-2.3095,-2.3095,-2.3095,-2.3095,-2.3095,-2.3095,-2.3095,-2.3095,-2.3095,-2.3095,-3.3998,-3.3947,-3.3575,-3.3389,-3.3372,-3.3034,-3.2696,-3.2408,-3.2391,-3.1935,-3.1224,-3.119,-3.119,-3.119,-3.119,-3.119,-3.119,-3.119,-3.119,-3.119,-3.119,-3.119,-3.119,-3.119,-3.119,-3.119,-3.119,-3.119,-3.119,-3.119,-3.119,-3.119,-3.119,-3.119,-3.119,-3.119,-3.119,-3.119,-3.1232,-3.1252,-3.1252,-3.1308,-3.1327,-3.1327,-3.1344,-3.1308,-3.1235,-3.1252,-3.1232,-3.119,-3.119,-3.119,-3.119,-3.119,-3.119,-3.119,-3.119,-3.119,-3.119,-3.119,-3.119,-3.119,-3.0938,-3.0535,-2.9935,-2.9355,-2.888,-2.8599,-2.8591,-2.8551,-2.8567,-2.8295,-2.8091,-2.8091,-2.781,-2.7585,-2.7585,-2.7585,-2.7585,-2.7585,-2.7585,-2.7585,-2.7585,-2.7585,-2.7585,-2.7585,-2.7585,-2.7585,-2.7585,-2.7585,-2.7484,-2.7178,-2.71,-2.6967,-2.6613,-2.6215,-2.6041,-2.5973,-2.5646,-2.5147,-2.4452,-2.4308,-2.3972,-2.3305,-2.3095,-2.3095,-2.3095,-2.3095,-2.3095,-2.3095,-2.3095,-2.3095,-2.3095,-2.3095,-2.3095,-3.4742,-3.4692,-3.4134,-3.3812,-3.366,-3.3643,-3.3575,-3.3406,-3.3389,-3.2763,-3.1782,-3.1698,-3.1681,-3.1681,-3.1681,-3.1698,-3.1681,-3.1698,-3.1613,-3.1461,-3.1464,-3.136,-3.1207,-3.119,-3.119,-3.119,-3.119,-3.119,-3.119,-3.119,-3.119,-3.119,-3.119,-3.119,-3.119,-3.119,-3.119,-3.119,-3.119,-3.119,-3.119,-3.119,-3.119,-3.119,-3.119,-3.119,-3.119,-3.119,-3.119,-3.119,-3.119,-3.119,-3.119,-3.119,-3.119,-3.119,-3.119,-3.119,-3.119,-3.119,-3.119,-3.119,-3.119,-3.0995,-3.0539,-3.0064,-2.9673,-2.9451,-2.9339,-2.9361,-2.9293,-2.8989,-2.8724,-2.8662,-2.8295,-2.8018,-2.782,-2.7825,-2.771,-2.7635,-2.7585,-2.7585,-2.7585,-2.7585,-2.7585,-2.7585,-2.7585,-2.7585,-2.7585,-2.7585,-2.7585,-2.7585,-2.7585,-2.7534,-2.7575,-2.7152,-2.68,-2.6747,-2.6336,-2.5783,-2.5147,-2.4738,-2.425,-2.3619,-2.3215,-2.3125,-2.3095,-2.3095,-2.3095,-2.3095,-2.3095,-2.3095,-2.3095,-2.3095,-2.3095,-3.5481,-3.5481,-3.5363,-3.4991,-3.4421,-3.4387,-3.4049,-3.3508,-3.3406,-3.3334,-3.322,-3.3182,-3.3186,-3.3203,-3.3152,-3.3119,-3.3136,-3.3186,-3.2814,-3.2242,-3.2192,-3.1853,-3.1292,-3.1224,-3.119,-3.1207,-3.1207,-3.119,-3.119,-3.119,-3.119,-3.119,-3.119,-3.119,-3.119,-3.119,-3.119,-3.119,-3.119,-3.119,-3.119,-3.119,-3.119,-3.119,-3.119,-3.119,-3.119,-3.119,-3.119,-3.119,-3.119,-3.119,-3.119,-3.119,-3.119,-3.119,-3.119,-3.119,-3.119,-3.119,-3.119,-3.119,-3.119,-3.1171,-3.1075,-3.1035,-3.0539,-2.9739,-2.9429,-2.9496,-2.9406,-2.9361,-2.9316,-2.9316,-2.9203,-2.9019,-2.8535,-2.8431,-2.8213,-2.765,-2.766,-2.7585,-2.76,-2.7585,-2.7585,-2.7585,-2.7585,-2.7585,-2.7585,-2.7585,-2.7585,-2.7585,-2.7585,-2.7585,-2.756,-2.756,-2.7382,-2.7408,-2.7408,-2.689,-2.6215,-2.5605,-2.5063,-2.4323,-2.3708,-2.3352,-2.3275,-2.3095,-2.3228,-2.3412,-2.3335,-2.3138,-2.3108,-2.3095,-2.3095,-3.5616,-3.5616,-3.5616,-3.543,-3.5182,-3.5126,-3.4974,-3.4704,-3.4687,-3.4687,-3.4687,-3.4704,-3.4213,-3.3406,-3.3389,-3.3389,-3.3389,-3.3389,-3.3254,-3.2966,-3.2949,-3.2797,-3.2493,-3.2036,-3.1853,-3.1802,-3.141,-3.119,-3.119,-3.119,-3.119,-3.119,-3.119,-3.119,-3.119,-3.119,-3.119,-3.119,-3.119,-3.119,-3.119,-3.119,-3.119,-3.119,-3.119,-3.119,-3.119,-3.119,-3.119,-3.119,-3.119,-3.119,-3.119,-3.119,-3.119,-3.119,-3.119,-3.119,-3.119,-3.119,-3.119,-3.119,-3.119,-3.119,-3.119,-3.119,-3.0975,-3.058,-3.0456,-3.0456,-3.0414,-3.0145,-2.9935,-2.987,-2.9613,-2.9293,-2.9065,-2.9019,-2.8803,-2.8247,-2.814,-2.7968,-2.7685,-2.7585,-2.7585,-2.7585,-2.7585,-2.7585,-2.7585,-2.7585,-2.7585,-2.7585,-2.7585,-2.7585,-2.7585,-2.7585,-2.7585,-2.7585,-2.7585,-2.7331,-2.6695,-2.6351,-2.5824,-2.5063,-2.461,-2.4381,-2.4525,-2.4467,-2.4467,-2.4352,-2.3959,-2.3679,-2.3215,-2.3095,-2.3095,-3.5616,-3.5616,-3.5616,-3.5616,-3.5616,-3.5616,-3.5616,-3.5616,-3.5616,-3.5616,-3.5616,-3.5616,-3.5025,-3.4117,-3.3977,-3.3994,-3.4015,-3.4015,-3.3897,-3.3728,-3.3711,-3.3592,-3.3334,-3.2886,-3.2615,-3.2496,-3.185,-3.1393,-3.1224,-3.119,-3.119,-3.119,-3.119,-3.119,-3.119,-3.119,-3.119,-3.119,-3.119,-3.119,-3.121,-3.1293,-3.131,-3.121,-3.119,-3.119,-3.119,-3.119,-3.119,-3.119,-3.119,-3.119,-3.119,-3.119,-3.119,-3.119,-3.119,-3.119,-3.119,-3.119,-3.119,-3.119,-3.119,-3.119,-3.119,-3.119,-3.119,-3.1171,-3.119,-3.1151,-3.1151,-3.0818,-3.0559,-3.0518,-3.0123,-2.9865,-2.9689,-2.9651,-2.9406,-2.8873,-2.8732,-2.8519,-2.7993,-2.7725,-2.7585,-2.7585,-2.7585,-2.7585,-2.7585,-2.7585,-2.7585,-2.7585,-2.7585,-2.7585,-2.7585,-2.7585,-2.7585,-2.7585,-2.7585,-2.7433,-2.6852,-2.6721,-2.6457,-2.5728,-2.5591,-2.5342,-2.5119,-2.5231,-2.5398,-2.5287,-2.4951,-2.4452,-2.4047,-2.3783,-2.3636,-3.5616,-3.5616,-3.5616,-3.5616,-3.5616,-3.5616,-3.5616,-3.5616,-3.5616,-3.5616,-3.5616,-3.5616,-3.5549,-3.5414,-3.5363,-3.5464,-3.5447,-3.538,-3.5047,-3.4489,-3.4455,-3.4083,-3.3423,-3.3355,-3.3355,-3.3305,-3.2611,-3.1901,-3.1275,-3.1224,-3.119,-3.119,-3.119,-3.119,-3.1213,-3.1249,-3.121,-3.1291,-3.1291,-3.1249,-3.1271,-3.1603,-3.1603,-3.131,-3.123,-3.1252,-3.123,-3.121,-3.121,-3.121,-3.1213,-3.121,-3.119,-3.119,-3.119,-3.119,-3.119,-3.119,-3.119,-3.119,-3.119,-3.119,-3.119,-3.119,-3.119,-3.119,-3.119,-3.119,-3.119,-3.119,-3.119,-3.1112,-3.1075,-3.1075,-3.1075,-3.0781,-3.0314,-3.0251,-2.9995,-2.9512,-2.9293,-2.9012,-2.8472,-2.7944,-2.7685,-2.761,-2.7585,-2.7585,-2.7585,-2.7585,-2.7585,-2.7585,-2.7585,-2.7585,-2.7585,-2.7585,-2.7585,-2.7585,-2.7585,-2.756,-2.7331,-2.7074,-2.6721,-2.6363,-2.6054,-2.5755,-2.5508,-2.5453,-2.5563,-2.5563,-2.5536,-2.5175,-2.4768,-2.5134,-2.4937,-3.5616,-3.5616,-3.5616,-3.5616,-3.5616,-3.5616,-3.5616,-3.5616,-3.5616,-3.5616,-3.5616,-3.5616,-3.5616,-3.5616,-3.5616,-3.5616,-3.5616,-3.5616,-3.5447,-3.5216,-3.5216,-3.5064,-3.4788,-3.4341,-3.4109,-3.4015,-3.3377,-3.2634,-3.1989,-3.1904,-3.1667,-3.1258,-3.119,-3.1312,-3.1528,-3.1584,-3.1732,-3.2003,-3.2021,-3.2039,-3.2003,-3.2179,-3.2179,-3.2056,-3.2039,-3.1896,-3.1584,-3.186,-3.1896,-3.1603,-3.1584,-3.1451,-3.1249,-3.119,-3.119,-3.119,-3.119,-3.119,-3.119,-3.119,-3.119,-3.119,-3.119,-3.119,-3.119,-3.119,-3.119,-3.119,-3.119,-3.119,-3.119,-3.119,-3.119,-3.119,-3.119,-3.1131,-3.0955,-3.0858,-3.0658,-3.0081,-2.9651,-2.9157,-2.8709,-2.831,-2.8042,-2.766,-2.7585,-2.7635,-2.7625,-2.7585,-2.766,-2.761,-2.7585,-2.7585,-2.7585,-2.7585,-2.7585,-2.7585,-2.7585,-2.7585,-2.7433,-2.7408,-2.7111,-2.706,-2.668,-2.6587,-2.6508,-2.6508,-2.6455,-2.6135,-2.6108,-2.5919,-2.5481,-2.5714,-2.5508,-3.5616,-3.5616,-3.5616,-3.5616,-3.5616,-3.5616,-3.5616,-3.5616,-3.5616,-3.5616,-3.5616,-3.5616,-3.5616,-3.5644,-3.5766,-3.5871,-3.5871,-3.5871,-3.5871,-3.5876,-3.6032,-3.6122,-3.6032,-3.5595,-3.5359,-3.5246,-3.46,-3.3802,-3.2966,-3.2676,-3.23,-3.182,-3.1545,-3.1603,-3.195,-3.2039,-3.2196,-3.2451,-3.2501,-3.2501,-3.2517,-3.2648,-3.265,-3.2567,-3.2777,-3.2631,-3.2057,-3.2196,-3.2144,-3.1843,-3.1678,-3.1545,-3.1391,-3.1408,-3.1408,-3.1372,-3.1271,-3.119,-3.119,-3.119,-3.119,-3.119,-3.119,-3.119,-3.119,-3.119,-3.119,-3.119,-3.119,-3.119,-3.119,-3.119,-3.119,-3.119,-3.119,-3.119,-3.119,-3.119,-3.0995,-3.0601,-3.0081,-2.9563,-2.9157,-2.8919,-2.8638,-2.8183,-2.8158,-2.8174,-2.8198,-2.8174,-2.8174,-2.8198,-2.8255,-2.8174,-2.8067,-2.7993,-2.776,-2.771,-2.7585,-2.7585,-2.7585,-2.7585,-2.7585,-2.7585,-2.7585,-2.7585,-2.7585,-2.7585,-2.7316,-2.689,-2.6837,-2.6733,-2.6455,-2.6242,-2.6081,-3.5644,-3.5644,-3.5622,-3.5644,-3.5622,-3.5616,-3.56,-3.565,-3.5622,-3.565,-3.5788,-3.5689,-3.5717,-3.5783,-3.6224,-3.6395,-3.6416,-3.6457,-3.644,-3.644,-3.6865,-3.7076,-3.7039,-3.6913,-3.6917,-3.6936,-3.6304,-3.534,-3.4241,-3.3633,-3.3215,-3.2864,-3.2241,-3.2144,-3.2501,-3.2501,-3.2534,-3.2616,-3.2648,-3.2599,-3.2567,-3.2999,-3.3014,-3.2729,-3.3299,-3.3328,-3.2549,-3.2179,-3.2022,-3.1862,-3.1564,-3.1432,-3.1771,-3.1807,-3.1789,-3.177,-3.1468,-3.1252,-3.123,-3.1232,-3.1252,-3.119,-3.119,-3.119,-3.119,-3.119,-3.119,-3.119,-3.119,-3.119,-3.119,-3.119,-3.119,-3.119,-3.119,-3.119,-3.119,-3.119,-3.119,-3.1055,-3.0638,-3.0314,-3.0145,-2.9739,-2.9339,-2.9203,-2.918,-2.9157,-2.9111,-2.9088,-2.9293,-2.9271,-2.9088,-2.885,-2.8638,-2.8463,-2.8116,-2.7835,-2.766,-2.7585,-2.7585,-2.7585,-2.7585,-2.7585,-2.7585,-2.7585,-2.7585,-2.7585,-2.7585,-2.7316,-2.7433,-2.7382,-2.7163,-2.6916,-2.6864,-3.6161,-3.6178,-3.6161,-3.5937,-3.5622,-3.5616,-3.5788,-3.6075,-3.5783,-3.6011,-3.6542,-3.6312,-3.6354,-3.6684,-3.6884,-3.6943,-3.6962,-3.7267,-3.7267,-3.7039,-3.7152,-3.7247,-3.7194,-3.6983,-3.7111,-3.7398,-3.7073,-3.6357,-3.5574,-3.5204,-3.4604,-3.3618,-3.3248,-3.3063,-3.2988,-3.2983,-3.309,-3.3357,-3.3404,-3.3404,-3.3404,-3.3536,-3.3536,-3.3447,-3.368,-3.3652,-3.3419,-3.3252,-3.3024,-3.2777,-3.2648,-3.2501,-3.2333,-3.2282,-3.2299,-3.2282,-3.2179,-3.1932,-3.1641,-3.1603,-3.1488,-3.1271,-3.119,-3.119,-3.119,-3.119,-3.119,-3.119,-3.119,-3.119,-3.119,-3.119,-3.119,-3.119,-3.119,-3.119,-3.119,-3.119,-3.119,-3.119,-3.1035,-3.0777,-3.0414,-3.0059,-2.9892,-2.954,-2.9473,-2.9473,-2.9435,-2.954,-2.9384,-2.9384,-2.9361,-2.9489,-2.9248,-2.9042,-2.8803,-2.8319,-2.7993,-2.766,-2.761,-2.7585,-2.7585,-2.7585,-2.7585,-2.7585,-2.7585,-2.7585,-2.7585,-2.7585,-2.7534,-2.7534,-2.756,-2.7484,-2.7306,-3.6412,-3.6374,-3.6182,-3.6049,-3.5915,-3.5915,-3.6186,-3.6603,-3.6354,-3.6603,-3.702,-3.6845,-3.6882,-3.719,-3.7378,-3.7451,-3.7506,-3.7981,-3.805,-3.7791,-3.7756,-3.7756,-3.7737,-3.7553,-3.7619,-3.796,-3.7861,-3.7381,-3.6738,-3.6399,-3.5792,-3.4935,-3.4257,-3.3966,-3.3811,-3.3564,-3.3564,-3.378,-3.3793,-3.3807,-3.3807,-3.3807,-3.3807,-3.3807,-3.3807,-3.3807,-3.3807,-3.3807,-3.3606,-3.3288,-3.3199,-3.3045,-3.2777,-3.2745,-3.2779,-3.2747,-3.2583,-3.235,-3.2109,-3.2074,-3.1879,-3.1507,-3.1411,-3.1332,-3.1269,-3.119,-3.119,-3.119,-3.119,-3.119,-3.119,-3.119,-3.119,-3.119,-3.119,-3.119,-3.119,-3.119,-3.119,-3.119,-3.1171,-3.0995,-3.0777,-3.0617,-3.0497,-3.0145,-3.0081,-3.0081,-3.0064,-3.0086,-3.0043,-3.0021,-3.0187,-3.0123,-2.9805,-2.9629,-2.9473,-2.8927,-2.8376,-2.7968,-2.7685,-2.761,-2.7585,-2.7585,-2.7585,-2.7585,-2.7585,-2.7585,-2.7585,-2.7585,-2.7585,-2.7585,-2.7585,-2.7585,-2.7458,-3.6437,-3.635,-3.5898,-3.6028,-3.6354,-3.6416,-3.6744,-3.719,-3.7135,-3.7192,-3.7304,-3.7303,-3.7285,-3.7396,-3.7808,-3.7964,-3.8032,-3.8382,-3.8593,-3.8562,-3.8562,-3.8546,-3.8512,-3.8473,-3.8507,-3.8596,-3.8596,-3.8348,-3.78,-3.7293,-3.6842,-3.6448,-3.5268,-3.4643,-3.4654,-3.4179,-3.378,-3.3807,-3.3807,-3.3807,-3.3807,-3.3807,-3.3807,-3.3807,-3.3807,-3.3807,-3.3807,-3.3807,-3.3638,-3.3288,-3.3288,-3.3273,-3.3243,-3.3243,-3.3229,-3.3214,-3.2809,-3.2648,-3.2549,-3.2534,-3.2315,-3.1915,-3.1825,-3.166,-3.137,-3.131,-3.1288,-3.121,-3.119,-3.119,-3.119,-3.119,-3.119,-3.119,-3.119,-3.119,-3.119,-3.119,-3.119,-3.119,-3.119,-3.1171,-3.1131,-3.1131,-3.1095,-3.1055,-3.1015,-3.0955,-3.0975,-3.0878,-3.1075,-3.1035,-3.0838,-3.0699,-3.0377,-3.0314,-3.0145,-2.9591,-2.905,-2.867,-2.8198,-2.8052,-2.8027,-2.7953,-2.7845,-2.777,-2.771,-2.781,-2.771,-2.761,-2.7585,-2.7585,-2.7585,-2.7585,-2.7585,-3.6764,-3.6437,-3.6666,-3.6623,-3.6498,-3.6803,-3.7267,-3.7632,-3.7341,-3.7649,-3.8085,-3.7877,-3.7911,-3.8285,-3.8401,-3.8481,-3.8496,-3.8627,-3.8707,-3.8707,-3.8707,-3.8707,-3.8707,-3.8707,-3.8707,-3.8707,-3.8707,-3.8627,-3.8496,-3.8209,-3.7841,-3.7272,-3.6255,-3.5458,-3.5004,-3.4229,-3.3844,-3.3807,-3.3807,-3.3807,-3.3807,-3.3807,-3.3807,-3.3807,-3.3807,-3.3807,-3.3807,-3.3807,-3.3762,-3.3666,-3.3634,-3.3634,-3.3606,-3.3625,-3.3606,-3.3578,-3.3504,-3.3317,-3.3075,-3.3014,-3.2793,-3.2366,-3.2333,-3.2109,-3.1678,-3.1675,-3.1542,-3.131,-3.119,-3.1213,-3.121,-3.121,-3.121,-3.119,-3.119,-3.119,-3.119,-3.119,-3.119,-3.119,-3.119,-3.119,-3.119,-3.119,-3.119,-3.119,-3.119,-3.119,-3.119,-3.119,-3.119,-3.119,-3.1075,-3.1092,-3.1015,-3.0975,-3.0757,-3.0251,-2.987,-2.9651,-2.9225,-2.8927,-2.895,-2.8973,-2.8717,-2.8575,-2.8376,-2.8295,-2.8042,-2.776,-2.7625,-2.761,-2.7585,-2.7585,-2.7585,-3.7305,-3.7022,-3.7154,-3.7135,-3.7078,-3.736,-3.7773,-3.8117,-3.7982,-3.8135,-3.8546,-3.8401,-3.8399,-3.8673,-3.8707,-3.8707,-3.8707,-3.8707,-3.8707,-3.8707,-3.8707,-3.8707,-3.8707,-3.8707,-3.8707,-3.8707,-3.8707,-3.8707,-3.8673,-3.8707,-3.8414,-3.7866,-3.6853,-3.6046,-3.5536,-3.4376,-3.3807,-3.3807,-3.3807,-3.3807,-3.3807,-3.3807,-3.3807,-3.3807,-3.3807,-3.3807,-3.3807,-3.3807,-3.3807,-3.3807,-3.3807,-3.3807,-3.3807,-3.3807,-3.3807,-3.3807,-3.3807,-3.3662,-3.3522,-3.3451,-3.3258,-3.2887,-3.2811,-3.255,-3.223,-3.2127,-3.1985,-3.1823,-3.1732,-3.1732,-3.1695,-3.1582,-3.1389,-3.123,-3.119,-3.119,-3.119,-3.119,-3.119,-3.119,-3.119,-3.119,-3.119,-3.119,-3.119,-3.119,-3.119,-3.119,-3.119,-3.119,-3.119,-3.119,-3.119,-3.1151,-3.1131,-3.1112,-3.1112,-3.0658,-3.0497,-3.033,-2.993,-2.9585,-2.9473,-2.9451,-2.9429,-2.9339,-2.9042,-2.8732,-2.8343,-2.8067,-2.781,-2.766,-2.7685,-2.7845,-2.782,-3.7877,-3.7808,-3.7415,-3.7506,-3.7843,-3.7963,-3.8234,-3.8627,-3.8611,-3.8627,-3.8692,-3.8692,-3.8643,-3.8707,-3.8707,-3.8707,-3.8707,-3.8707,-3.8707,-3.8707,-3.8707,-3.8707,-3.8707,-3.8707,-3.8707,-3.8707,-3.8707,-3.8707,-3.8707,-3.8707,-3.8707,-3.8285,-3.7147,-3.6431,-3.5917,-3.4743,-3.399,-3.3825,-3.3807,-3.3807,-3.3807,-3.3807,-3.3807,-3.3807,-3.3807,-3.3807,-3.3807,-3.3807,-3.3807,-3.3807,-3.3807,-3.3807,-3.3807,-3.3807,-3.3807,-3.3807,-3.3807,-3.3793,-3.3793,-3.3734,-3.3652,-3.3332,-3.3258,-3.306,-3.2697,-3.2584,-3.2535,-3.235,-3.2484,-3.2384,-3.2333,-3.2074,-3.1806,-3.1545,-3.1408,-3.1368,-3.1329,-3.1252,-3.119,-3.119,-3.119,-3.119,-3.119,-3.119,-3.119,-3.119,-3.119,-3.119,-3.119,-3.119,-3.119,-3.119,-3.119,-3.119,-3.119,-3.119,-3.1171,-3.1035,-3.0978,-3.0797,-3.0309,-2.9973,-2.9805,-2.9761,-3.0059,-2.9957,-2.9585,-2.9203,-2.885,-2.8583,-2.8424,-2.8125,-2.7934,-2.8222,-2.8304,-3.7685,-3.736,-3.7649,-3.7807,-3.7963,-3.835,-3.8596,-3.8692,-3.8707,-3.8707,-3.8707,-3.8707,-3.8707,-3.8707,-3.8707,-3.8707,-3.8707,-3.8707,-3.8707,-3.8707,-3.8707,-3.8707,-3.8707,-3.8707,-3.8707,-3.8707,-3.8707,-3.8707,-3.8707,-3.8707,-3.8707,-3.8524,-3.7698,-3.6923,-3.6229,-3.5293,-3.4399,-3.3935,-3.3807,-3.3807,-3.3807,-3.3807,-3.3807,-3.3807,-3.3807,-3.3807,-3.3807,-3.3807,-3.3807,-3.3807,-3.3807,-3.3807,-3.3807,-3.3807,-3.3807,-3.3807,-3.3807,-3.3807,-3.3807,-3.3807,-3.3793,-3.3666,-3.3611,-3.349,-3.3124,-3.3063,-3.2874,-3.2616,-3.2501,-3.2583,-3.2534,-3.2434,-3.2265,-3.2144,-3.2109,-3.2144,-3.2109,-3.1637,-3.1329,-3.1252,-3.1252,-3.121,-3.123,-3.1291,-3.1271,-3.123,-3.121,-3.121,-3.121,-3.1232,-3.119,-3.119,-3.119,-3.119,-3.119,-3.119,-3.119,-3.119,-3.119,-3.1171,-3.0679,-3.0518,-3.0414,-3.0559,-3.0858,-3.0597,-3.0145,-2.9935,-2.9629,-2.9361,-2.9065,-2.881,-2.867,-2.881,-2.8764,-3.8117,-3.7948,-3.8185,-3.8283,-3.8334,-3.8578,-3.8707,-3.8707,-3.8707,-3.8707,-3.8707,-3.8707,-3.8707,-3.8707,-3.8707,-3.8707,-3.8707,-3.8707,-3.8707,-3.8707,-3.8707,-3.8707,-3.8707,-3.8707,-3.8707,-3.8707,-3.8707,-3.8707,-3.8707,-3.8707,-3.8707,-3.8634,-3.7915,-3.7327,-3.6688,-3.5665,-3.4821,-3.438,-3.3972,-3.3807,-3.3807,-3.3807,-3.3807,-3.3807,-3.3807,-3.3807,-3.3807,-3.3807,-3.3807,-3.3807,-3.382,-3.3807,-3.3807,-3.3807,-3.3807,-3.3807,-3.3807,-3.3807,-3.3807,-3.3807,-3.3807,-3.3807,-3.3807,-3.3694,-3.3536,-3.3494,-3.3408,-3.3181,-3.3103,-3.3057,-3.2874,-3.2825,-3.2761,-3.2534,-3.2517,-3.2501,-3.2434,-3.2092,-3.1805,-3.1805,-3.1878,-3.186,-3.1823,-3.1694,-3.1786,-3.1878,-3.1635,-3.1598,-3.143,-3.1411,-3.1232,-3.119,-3.119,-3.119,-3.119,-3.119,-3.119,-3.119,-3.119,-3.119,-3.0995,-3.1015,-3.1095,-3.1151,-3.1131,-3.1112,-3.072,-3.0559,-3.0293,-2.9935,-2.9651,-2.9518,-2.9384,-2.9271,-2.9203,-3.8707,-3.8707,-3.8707,-3.8707,-3.8707,-3.8707,-3.8707,-3.8707,-3.8707,-3.8707,-3.8707,-3.8707,-3.8707,-3.8707,-3.8707,-3.8707,-3.8707,-3.8707,-3.8707,-3.8707,-3.8707,-3.8707,-3.8707,-3.8707,-3.8707,-3.8707,-3.8707,-3.8707,-3.8707,-3.8707,-3.8707,-3.8597,-3.8102,-3.7639,-3.718,-3.6248,-3.5408,-3.5188,-3.4562,-3.4234,-3.4149,-3.4102,-3.4018,-3.403,-3.403,-3.403,-3.4043,-3.4018,-3.3954,-3.3863,-3.385,-3.3842,-3.382,-3.3807,-3.3807,-3.3807,-3.3807,-3.3807,-3.3807,-3.3807,-3.3807,-3.3807,-3.3807,-3.3807,-3.3793,-3.3748,-3.3721,-3.3753,-3.3666,-3.3564,-3.335,-3.3288,-3.3105,-3.2872,-3.2729,-3.2697,-3.2697,-3.2697,-3.2665,-3.2401,-3.2282,-3.223,-3.2299,-3.2282,-3.2417,-3.2451,-3.2179,-3.1967,-3.1823,-3.1621,-3.1468,-3.1291,-3.1291,-3.121,-3.119,-3.1249,-3.1249,-3.1271,-3.1252,-3.1252,-3.1232,-3.119,-3.119,-3.119,-3.1171,-3.1131,-3.1092,-3.0838,-3.0597,-3.0356,-3.0272,-3.0187,-2.9973,-2.9717,-2.9717,-3.8707,-3.8707,-3.8707,-3.8707,-3.8707,-3.8707,-3.8707,-3.8707,-3.8707,-3.8707,-3.8707,-3.8707,-3.8707,-3.8707,-3.8707,-3.8707,-3.8707,-3.8707,-3.8707,-3.8707,-3.8707,-3.8689,-3.8732,-3.8747,-3.875,-3.8707,-3.8735,-3.878,-3.8707,-3.8707,-3.8747,-3.8701,-3.8581,-3.8247,-3.7742,-3.7158,-3.6652,-3.6168,-3.5538,-3.5244,-3.5144,-3.4808,-3.4509,-3.4491,-3.445,-3.4472,-3.4505,-3.4516,-3.4431,-3.4183,-3.4128,-3.4006,-3.3895,-3.3847,-3.3834,-3.3807,-3.3807,-3.3807,-3.3807,-3.3807,-3.3807,-3.3807,-3.3807,-3.3807,-3.3807,-3.3807,-3.3807,-3.3807,-3.3807,-3.3766,-3.3726,-3.3652,-3.3666,-3.3564,-3.349,-3.349,-3.349,-3.3433,-3.3211,-3.2809,-3.2648,-3.2599,-3.2729,-3.2793,-3.2809,-3.2793,-3.2583,-3.2452,-3.235,-3.2074,-3.1788,-3.1601,-3.1411,-3.131,-3.119,-3.1271,-3.1329,-3.1408,-3.1428,-3.1447,-3.1389,-3.1249,-3.121,-3.1428,-3.1349,-3.1171,-3.1112,-3.1015,-3.0975,-3.0781,-3.0818,-3.0838,-3.0617,-3.0414,-3.0597,-3.8707,-3.8707,-3.8707,-3.8707,-3.8707,-3.8707,-3.8707,-3.8707,-3.8707,-3.8707,-3.8707,-3.8707,-3.8707,-3.8707,-3.8707,-3.8707,-3.8707,-3.8707,-3.8707,-3.8707,-3.8707,-3.8788,-3.8898,-3.8909,-3.9036,-3.9127,-3.9168,-3.8956,-3.875,-3.8855,-3.8894,-3.8966,-3.9059,-3.8958,-3.8561,-3.8139,-3.7821,-3.7275,-3.6749,-3.6366,-3.6273,-3.5711,-3.5214,-3.4817,-3.4723,-3.4694,-3.4694,-3.4694,-3.4632,-3.4497,-3.4464,-3.4288,-3.4105,-3.3999,-3.3954,-3.3855,-3.3834,-3.382,-3.382,-3.3807,-3.3807,-3.3807,-3.382,-3.3807,-3.3807,-3.3807,-3.3847,-3.382,-3.3807,-3.3807,-3.3793,-3.382,-3.3807,-3.3807,-3.3807,-3.3807,-3.3807,-3.3807,-3.3504,-3.3148,-3.3225,-3.324,-3.3255,-3.327,-3.3211,-3.3087,-3.295,-3.2903,-3.2856,-3.2534,-3.2179,-3.2004,-3.1842,-3.1787,-3.1675,-3.1657,-3.1657,-3.1694,-3.1695,-3.1731,-3.1768,-3.1731,-3.1805,-3.1986,-3.175,-3.1389,-3.121,-3.1134,-3.119,-3.121,-3.1112,-3.1035,-3.1131,-3.1171,-3.119,-3.8707,-3.8707,-3.8707,-3.8707,-3.8707,-3.8707,-3.8707,-3.8707,-3.8707,-3.8707,-3.8707,-3.8707,-3.8707,-3.8704,-3.8762,-3.8807,-3.8788,-3.8848,-3.8931,-3.8927,-3.8927,-3.9031,-3.9157,-3.9225,-3.9302,-3.9476,-3.9505,-3.9352,-3.9059,-3.9104,-3.9173,-3.9257,-3.9493,-3.9618,-3.9376,-3.8884,-3.8686,-3.8417,-3.7934,-3.7522,-3.7174,-3.651,-3.578,-3.5135,-3.4965,-3.4898,-3.4926,-3.4935,-3.4879,-3.4803,-3.4744,-3.4653,-3.4368,-3.4311,-3.4195,-3.3999,-3.3928,-3.3915,-3.3979,-3.3902,-3.3967,-3.408,-3.3959,-3.3947,-3.4018,-3.4074,-3.4024,-3.3979,-3.3902,-3.3915,-3.3915,-3.3842,-3.382,-3.3807,-3.3807,-3.3807,-3.3807,-3.3807,-3.3807,-3.368,-3.3807,-3.3762,-3.3662,-3.3592,-3.3508,-3.3494,-3.3361,-3.3314,-3.324,-3.2921,-3.2616,-3.2467,-3.2367,-3.2367,-3.2299,-3.223,-3.2214,-3.2179,-3.2179,-3.2196,-3.2265,-3.235,-3.2417,-3.2367,-3.2074,-3.1731,-3.1506,-3.1351,-3.1411,-3.1411,-3.1291,-3.121,-3.119,-3.119,-3.119,-3.8707,-3.8707,-3.8707,-3.8707,-3.8707,-3.8707,-3.8707,-3.8707,-3.8707,-3.8707,-3.8689,-3.8704,-3.8719,-3.8807,-3.899,-3.9049,-3.9131,-3.9288,-3.9389,-3.9377,-3.9402,-3.9432,-3.9522,-3.9522,-3.9592,-3.9724,-3.969,-3.9606,-3.9493,-3.9541,-3.9552,-3.9576,-3.9634,-3.9634,-3.9697,-3.9518,-3.9479,-3.9346,-3.8895,-3.8411,-3.7896,-3.7133,-3.6704,-3.6328,-3.5841,-3.5461,-3.5419,-3.5385,-3.5258,-3.507,-3.5062,-3.4926,-3.4685,-3.4624,-3.4632,-3.4508,-3.4379,-3.4277,-3.4431,-3.4307,-3.426,-3.4375,-3.4318,-3.4334,-3.4409,-3.4475,-3.4494,-3.4591,-3.4353,-3.4171,-3.4129,-3.3961,-3.3868,-3.3887,-3.3947,-3.3908,-3.3881,-3.4055,-3.403,-3.4011,-3.4055,-3.3954,-3.385,-3.3829,-3.3793,-3.3793,-3.378,-3.3721,-3.3606,-3.327,-3.3075,-3.2919,-3.2872,-3.2856,-3.2887,-3.2825,-3.2777,-3.2697,-3.2697,-3.2697,-3.2777,-3.284,-3.2647,-3.2549,-3.235,-3.2333,-3.2316,-3.2161,-3.1878,-3.1584,-3.1408,-3.1271,-3.119,-3.119,-3.121,-3.8707,-3.8707,-3.8707,-3.8707,-3.8707,-3.8707,-3.8707,-3.8707,-3.8707,-3.8707,-3.8716,-3.8869,-3.8999,-3.9189,-3.9346,-3.9396,-3.9414,-3.9545,-3.9599,-3.9634,-3.9645,-3.972,-3.9859,-3.9901,-3.9943,-4.0053,-4.012,-4.0157,-4.0082,-3.9953,-3.988,-3.9912,-4.0033,-4.0138,-4.0043,-4.0091,-4.011,-4.0032,-3.9827,-3.9394,-3.8819,-3.8354,-3.793,-3.7404,-3.6615,-3.625,-3.6058,-3.5673,-3.5491,-3.5339,-3.5339,-3.5198,-3.4999,-3.4926,-3.4926,-3.4917,-3.4803,-3.4715,-3.4655,-3.4561,-3.4622,-3.4643,-3.4582,-3.4569,-3.4674,-3.4714,-3.4714,-3.4684,-3.4572,-3.4478,-3.4467,-3.4386,-3.433,-3.4284,-3.422,-3.4244,-3.4244,-3.4314,-3.4383,-3.4337,-3.4291,-3.422,-3.4111,-3.4005,-3.3972,-3.3934,-3.3895,-3.3842,-3.3788,-3.3634,-3.3476,-3.339,-3.3343,-3.3343,-3.3372,-3.3372,-3.3375,-3.3332,-3.3346,-3.3332,-3.3332,-3.3284,-3.3103,-3.3133,-3.3211,-3.3196,-3.3151,-3.2614,-3.2021,-3.1715,-3.147,-3.143,-3.1389,-3.1213,-3.1213,-3.875,-3.8807,-3.8735,-3.8707,-3.8707,-3.8707,-3.875,-3.8803,-3.8818,-3.8844,-3.897,-3.9144,-3.9364,-3.9587,-3.9675,-3.9731,-3.9742,-3.9789,-3.9821,-3.9821,-3.9842,-3.9984,-4.0129,-4.0213,-4.0285,-4.0496,-4.0414,-4.0422,-4.0389,-4.0302,-4.0195,-4.0223,-4.0347,-4.043,-4.0481,-4.0438,-4.0422,-4.0403,-4.0399,-4.0096,-3.9631,-3.9315,-3.8861,-3.8257,-3.7546,-3.6904,-3.6635,-3.6212,-3.5865,-3.5493,-3.5479,-3.5369,-3.5223,-3.5198,-3.5198,-3.5198,-3.5155,-3.5105,-3.4981,-3.487,-3.4832,-3.486,-3.4889,-3.4954,-3.4935,-3.4898,-3.4908,-3.4963,-3.4832,-3.4803,-3.4793,-3.4753,-3.4622,-3.4601,-3.4622,-3.4674,-3.4694,-3.4653,-3.4601,-3.4537,-3.4516,-3.458,-3.445,-3.4232,-3.4123,-3.408,-3.4018,-3.3979,-3.3928,-3.3889,-3.3775,-3.3675,-3.3648,-3.363,-3.3662,-3.373,-3.3807,-3.3873,-3.3873,-3.3807,-3.3675,-3.3666,-3.3578,-3.3707,-3.3807,-3.3707,-3.3462,-3.2775,-3.2161,-3.2179,-3.2127,-3.1787,-3.1601,-3.143,-3.143,-3.8859,-3.9044,-3.88,-3.8735,-3.8735,-3.8707,-3.8873,-3.9095,-3.9072,-3.9244,-3.9481,-3.9564,-3.958,-3.9701,-3.9943,-4.0052,-4.0081,-4.0339,-4.0336,-4.0362,-4.0449,-4.0389,-4.0406,-4.0414,-4.0457,-4.0489,-4.0496,-4.0496,-4.0489,-4.0457,-4.0441,-4.05,-4.0481,-4.0489,-4.0496,-4.0496,-4.0496,-4.0496,-4.0496,-4.0496,-4.0131,-3.9785,-3.9323,-3.9092,-3.8373,-3.7565,-3.6788,-3.6596,-3.625,-3.5673,-3.5553,-3.5521,-3.5435,-3.5429,-3.5422,-3.5422,-3.5386,-3.535,-3.5297,-3.5182,-3.5215,-3.5354,-3.5391,-3.532,-3.5297,-3.5383,-3.5412,-3.5327,-3.5174,-3.5088,-3.4999,-3.4898,-3.486,-3.487,-3.4917,-3.4908,-3.4908,-3.486,-3.4812,-3.4714,-3.4754,-3.4879,-3.4898,-3.4705,-3.4464,-3.4386,-3.4353,-3.4318,-3.4177,-3.4105,-3.3979,-3.3876,-3.385,-3.3855,-3.3842,-3.3921,-3.4055,-3.4074,-3.408,-3.3954,-3.3823,-3.3855,-3.3889,-3.3807,-3.3807,-3.3807,-3.378,-3.324,-3.2885,-3.2934,-3.2761,-3.2248,-3.2003,-3.1914,-3.1986,-3.9327,-3.9408,-3.9288,-3.9255,-3.9255,-3.9255,-3.9314,-3.9408,-3.9401,-3.9599,-3.9912,-3.9912,-4.0003,-4.0157,-4.0239,-4.0347,-4.0356,-4.0422,-4.0489,-4.0496,-4.0489,-4.0496,-4.0496,-4.0496,-4.0489,-4.0496,-4.0496,-4.0496,-4.0496,-4.0512,-4.0496,-4.0496,-4.0515,-4.0496,-4.0496,-4.0527,-4.05,-4.0512,-4.0512,-4.0504,-4.0439,-4.0285,-4.0035,-3.9958,-3.9246,-3.8719,-3.8219,-3.7173,-3.6654,-3.6208,-3.5842,-3.5666,-3.5562,-3.5562,-3.5562,-3.5564,-3.5528,-3.5508,-3.5514,-3.5398,-3.5398,-3.5446,-3.5481,-3.55,-3.55,-3.55,-3.55,-3.5446,-3.5417,-3.5312,-3.5304,-3.5266,-3.5242,-3.5218,-3.5174,-3.5157,-3.5113,-3.5088,-3.5088,-3.5043,-3.5149,-3.5258,-3.5258,-3.5207,-3.4963,-3.4734,-3.4704,-3.4653,-3.4489,-3.4357,-3.4249,-3.4196,-3.4184,-3.422,-3.422,-3.426,-3.4318,-3.4284,-3.426,-3.4117,-3.4012,-3.4043,-3.4056,-3.3941,-3.3807,-3.3807,-3.3766,-3.3666,-3.3508,-3.3288,-3.2952,-3.2501,-3.2384,-3.2383,-3.2433,-3.9656,-3.9754,-3.9754,-3.9679,-3.9611,-3.9611,-3.9656,-3.9754,-3.9735,-3.9913,-4.0233,-4.0223,-4.0321,-4.0465,-4.0489,-4.0481,-4.0473,-4.0489,-4.0489,-4.0496,-4.0496,-4.0496,-4.0496,-4.0496,-4.0496,-4.0496,-4.0504,-4.0504,-4.0581,-4.0566,-4.0584,-4.0597,-4.0604,-4.0604,-4.0581,-4.0577,-4.0584,-4.0584,-4.0584,-4.0584,-4.0597,-4.0585,-4.0546,-4.0494,-4.0004,-3.9566,-3.9127,-3.8288,-3.7425,-3.6848,-3.6343,-3.5936,-3.5727,-3.5611,-3.5611,-3.5606,-3.5571,-3.5528,-3.5534,-3.5527,-3.5507,-3.55,-3.55,-3.55,-3.5507,-3.5507,-3.55,-3.55,-3.5474,-3.5488,-3.5488,-3.5439,-3.5424,-3.5369,-3.5376,-3.5361,-3.5369,-3.5361,-3.5383,-3.5391,-3.5453,-3.5432,-3.5424,-3.5376,-3.5281,-3.5034,-3.4944,-3.4889,-3.4803,-3.4675,-3.4591,-3.4559,-3.4569,-3.4612,-3.4663,-3.4612,-3.4518,-3.4453,-3.4409,-3.4288,-3.4188,-3.4223,-3.4111,-3.3902,-3.3807,-3.3807,-3.3793,-3.3734,-3.3625,-3.3465,-3.3166,-3.295,-3.295,-3.2965,-3.2807,-3.9808,-4.0081,-4.0072,-3.9912,-3.9679,-3.9622,-3.9808,-4.0062,-4.0081,-4.0223,-4.0422,-4.0457,-4.0465,-4.0496,-4.0496,-4.0496,-4.0496,-4.0496,-4.0512,-4.0515,-4.053,-4.0519,-4.053,-4.0533,-4.0556,-4.05,-4.0533,-4.061,-4.0692,-4.0697,-4.0726,-4.0757,-4.0761,-4.0738,-4.0721,-4.0771,-4.0805,-4.0805,-4.0788,-4.0755,-4.0746,-4.0761,-4.0737,-4.0698,-4.0616,-4.0223,-3.9742,-3.93,-3.8441,-3.7583,-3.7008,-3.6524,-3.6015,-3.5801,-3.5723,-3.5712,-3.5635,-3.5611,-3.5595,-3.5547,-3.5534,-3.5528,-3.5546,-3.5521,-3.5528,-3.5515,-3.5509,-3.5528,-3.5509,-3.5501,-3.5488,-3.5481,-3.5481,-3.55,-3.55,-3.55,-3.55,-3.55,-3.55,-3.55,-3.55,-3.55,-3.5481,-3.5474,-3.5467,-3.5342,-3.5195,-3.5122,-3.507,-3.5008,-3.4926,-3.4926,-3.4935,-3.4935,-3.4944,-3.4813,-3.4705,-3.4645,-3.4624,-3.4595,-3.4427,-3.4357,-3.4177,-3.3921,-3.3972,-3.4105,-3.3967,-3.3829,-3.381,-3.38,-3.3734,-3.3578,-3.3578,-3.3462,-3.3255,-4.0276,-4.0364,-4.0364,-4.0302,-4.0193,-4.0212,-4.0276,-4.0356,-4.0372,-4.0406,-4.0481,-4.0496,-4.0496,-4.0496,-4.0504,-4.0504,-4.0504,-4.0504,-4.0508,-4.0636,-4.0617,-4.0665,-4.0674,-4.0685,-4.0696,-4.0692,-4.0698,-4.0692,-4.0761,-4.0781,-4.079,-4.0821,-4.0902,-4.0857,-4.0796,-4.0809,-4.0797,-4.0797,-4.0793,-4.0797,-4.0801,-4.0805,-4.0809,-4.0813,-4.0836,-4.0645,-4.034,-3.9997,-3.928,-3.8471,-3.7946,-3.7089,-3.6562,-3.6306,-3.5875,-3.5824,-3.5749,-3.5679,-3.5671,-3.5633,-3.5639,-3.5635,-3.5631,-3.5607,-3.565,-3.5635,-3.5611,-3.5577,-3.556,-3.5532,-3.5515,-3.5494,-3.5488,-3.5481,-3.55,-3.55,-3.55,-3.55,-3.55,-3.55,-3.55,-3.5501,-3.5515,-3.5488,-3.55,-3.55,-3.5342,-3.5335,-3.5304,-3.5327,-3.5297,-3.5297,-3.5304,-3.5254,-3.5195,-3.5086,-3.5069,-3.5069,-3.5086,-3.5122,-3.4925,-3.4563,-3.4486,-3.436,-3.4383,-3.4405,-3.4302,-3.422,-3.4201,-3.4177,-3.4062,-3.3881,-3.3721,-3.3638,-3.3504,-4.0496,-4.0496,-4.0496,-4.0496,-4.0496,-4.0496,-4.0496,-4.0496,-4.0496,-4.0496,-4.0496,-4.0496,-4.0496,-4.0512,-4.0545,-4.0574,-4.0581,-4.0597,-4.0616,-4.0736,-4.0736,-4.0743,-4.0788,-4.0805,-4.0768,-4.0801,-4.0805,-4.0805,-4.0867,-4.0867,-4.0911,-4.0964,-4.1016,-4.1021,-4.0981,-4.0957,-4.0959,-4.0962,-4.0966,-4.0962,-4.0959,-4.0957,-4.0935,-4.0957,-4.0957,-4.0916,-4.0796,-4.0449,-3.998,-3.9473,-3.8769,-3.7793,-3.7305,-3.6777,-3.623,-3.603,-3.5845,-3.5794,-3.5764,-3.5764,-3.5786,-3.5819,-3.5747,-3.571,-3.5703,-3.5682,-3.5679,-3.5661,-3.5644,-3.5611,-3.5577,-3.5562,-3.5556,-3.5556,-3.5562,-3.5568,-3.5554,-3.5566,-3.556,-3.5562,-3.555,-3.5564,-3.5534,-3.5508,-3.55,-3.55,-3.5474,-3.5494,-3.5501,-3.5488,-3.5488,-3.5474,-3.5467,-3.5405,-3.5391,-3.5391,-3.5398,-3.5474,-3.5432,-3.5354,-3.513,-3.4765,-3.4784,-3.4754,-3.4663,-3.4601,-3.4643,-3.4622,-3.454,-3.4442,-3.433,-3.4142,-3.3887,-3.3788,-3.3757,-4.0496,-4.0496,-4.0496,-4.0496,-4.0496,-4.0519,-4.0512,-4.0496,-4.0496,-4.0504,-4.0531,-4.0508,-4.0545,-4.0547,-4.0649,-4.0703,-4.0701,-4.0747,-4.0773,-4.0797,-4.0821,-4.0839,-4.085,-4.0864,-4.088,-4.0857,-4.086,-4.0952,-4.0996,-4.0998,-4.1058,-4.1133,-4.1152,-4.1133,-4.1133,-4.1133,-4.1133,-4.1113,-4.1113,-4.1113,-4.1113,-4.1152,-4.1133,-4.1133,-4.1133,-4.1133,-4.1074,-4.0957,-4.0586,-4.0195,-3.9766,-3.8789,-3.7988,-3.7344,-3.6758,-3.6249,-3.5939,-3.5911,-3.5885,-3.5885,-3.5917,-3.5926,-3.5832,-3.5744,-3.5735,-3.5775,-3.5764,-3.5746,-3.5726,-3.57,-3.5682,-3.5671,-3.5679,-3.5683,-3.5683,-3.5687,-3.5687,-3.569,-3.5687,-3.5683,-3.5675,-3.565,-3.5601,-3.5571,-3.5538,-3.5562,-3.5574,-3.5562,-3.5544,-3.5494,-3.5494,-3.5481,-3.5481,-3.55,-3.55,-3.5507,-3.55,-3.55,-3.5376,-3.5281,-3.5088,-3.5016,-3.5016,-3.4972,-3.4841,-3.4822,-3.4935,-3.4908,-3.4803,-3.4704,-3.4643,-3.445,-3.422,-3.408,-3.4012,-4.0496,-4.0496,-4.0496,-4.0496,-4.0519,-4.0603,-4.0582,-4.0504,-4.0496,-4.0545,-4.0649,-4.0649,-4.0641,-4.0718,-4.0771,-4.0785,-4.0784,-4.0789,-4.0864,-4.0889,-4.095,-4.0998,-4.1035,-4.1055,-4.1074,-4.1074,-4.1074,-4.1074,-4.1113,-4.1133,-4.1133,-4.1191,-4.1191,-4.1191,-4.1191,-4.1191,-4.1191,-4.1191,-4.1191,-4.1191,-4.1191,-4.1191,-4.1191,-4.1191,-4.1191,-4.1191,-4.1191,-4.1191,-4.0937,-4.084,-4.0195,-3.9453,-3.9336,-3.8047,-3.6934,-3.6152,-3.5994,-3.5973,-3.5973,-3.5973,-3.5975,-3.5976,-3.5913,-3.593,-3.5926,-3.5882,-3.5872,-3.5853,-3.5821,-3.5797,-3.578,-3.5769,-3.5747,-3.575,-3.575,-3.575,-3.575,-3.575,-3.575,-3.5747,-3.5747,-3.5736,-3.5675,-3.5642,-3.563,-3.5644,-3.5644,-3.5626,-3.5606,-3.5543,-3.5527,-3.5527,-3.5528,-3.5534,-3.5521,-3.5508,-3.5514,-3.5467,-3.5376,-3.5339,-3.5312,-3.527,-3.5254,-3.5207,-3.5122,-3.5182,-3.5297,-3.5215,-3.5079,-3.5027,-3.4944,-3.4754,-3.458,-3.442,-3.4337,-4.0496,-4.0504,-4.0559,-4.059,-4.0629,-4.069,-4.0693,-4.0623,-4.0616,-4.0676,-4.0742,-4.0727,-4.0752,-4.0789,-4.085,-4.0874,-4.088,-4.0957,-4.1023,-4.1054,-4.1074,-4.1107,-4.1172,-4.1191,-4.1191,-4.1191,-4.1191,-4.1172,-4.1191,-4.1191,-4.1191,-4.1191,-4.1191,-4.1191,-4.1191,-4.1191,-4.1191,-4.1191,-4.1191,-4.1191,-4.1191,-4.1191,-4.1191,-4.1191,-4.1191,-4.1191,-4.1191,-4.1191,-4.1191,-4.1191,-4.0566,-4.0215,-3.9863,-3.8535,-3.7461,-3.6777,-3.654,-3.6308,-3.6093,-3.5906,-3.5927,-3.5928,-3.5925,-3.5878,-3.591,-3.5916,-3.5936,-3.5948,-3.5925,-3.59,-3.5866,-3.5832,-3.5834,-3.5834,-3.5834,-3.5834,-3.5834,-3.5834,-3.5834,-3.5832,-3.5821,-3.5805,-3.5764,-3.5746,-3.57,-3.5678,-3.569,-3.5687,-3.5667,-3.5644,-3.5611,-3.5621,-3.5611,-3.559,-3.5562,-3.554,-3.5528,-3.5528,-3.5467,-3.5446,-3.5488,-3.5481,-3.54,-3.542,-3.5446,-3.5462,-3.5463,-3.5467,-3.5369,-3.5304,-3.5239,-3.513,-3.4944,-3.4724,-3.4663,-4.0496,-4.0512,-4.0655,-4.0731,-4.0793,-4.0821,-4.0809,-4.0813,-4.0836,-4.0836,-4.0832,-4.0828,-4.0843,-4.0889,-4.0986,-4.1,-4.1028,-4.1103,-4.1133,-4.1191,-4.1172,-4.1191,-4.1191,-4.1191,-4.1191,-4.1191,-4.1191,-4.1191,-4.1191,-4.1191,-4.1191,-4.1191,-4.1191,-4.1191,-4.1191,-4.1191,-4.1191,-4.1191,-4.1191,-4.1191,-4.1191,-4.1191,-4.1191,-4.1191,-4.1191,-4.1191,-4.1191,-4.1191,-4.1191,-4.1191,-4.1055,-4.0684,-3.9824,-3.916,-3.8262,-3.7656,-3.7305,-3.6851,-3.6422,-3.6157,-3.5951,-3.5887,-3.5769,-3.5747,-3.5799,-3.5866,-3.5888,-3.5892,-3.5873,-3.5854,-3.5819,-3.5859,-3.5878,-3.5895,-3.5913,-3.5918,-3.5918,-3.5918,-3.5918,-3.5918,-3.59,-3.589,-3.5866,-3.5838,-3.5812,-3.5758,-3.575,-3.5775,-3.5762,-3.5742,-3.5696,-3.5705,-3.5663,-3.5648,-3.5621,-3.5591,-3.5582,-3.5556,-3.5521,-3.5534,-3.5571,-3.5544,-3.5522,-3.5546,-3.5571,-3.5532,-3.554,-3.5521,-3.5522,-3.5495,-3.5442,-3.5474,-3.5312,-3.506,-3.5009,-4.0496,-4.0512,-4.0655,-4.0727,-4.0824,-4.0914,-4.0955,-4.0959,-4.1076,-4.103,-4.0962,-4.0959,-4.0996,-4.108,-4.1113,-4.1133,-4.1152,-4.1152,-4.1191,-4.1191,-4.1191,-4.1191,-4.1191,-4.1191,-4.1191,-4.1191,-4.1191,-4.1191,-4.1191,-4.1191,-4.1191,-4.1191,-4.1191,-4.1191,-4.1172,-4.1172,-4.1152,-4.1152,-4.1152,-4.1152,-4.1152,-4.1191,-4.1191,-4.1191,-4.1172,-4.1172,-4.1172,-4.1172,-4.1127,-4.1074,-4.1055,-4.0527,-3.9707,-3.948,-3.8931,-3.8257,-3.804,-3.7581,-3.7052,-3.6677,-3.6501,-3.6005,-3.5807,-3.5746,-3.5723,-3.575,-3.5763,-3.5785,-3.579,-3.5792,-3.5802,-3.5864,-3.5918,-3.5947,-3.5957,-3.5976,-3.5996,-3.5996,-3.5996,-3.5976,-3.5976,-3.5975,-3.5954,-3.5952,-3.5931,-3.5911,-3.5931,-3.5937,-3.5918,-3.5898,-3.5801,-3.578,-3.5713,-3.5686,-3.5675,-3.5679,-3.5666,-3.5653,-3.563,-3.5639,-3.5653,-3.564,-3.5601,-3.5629,-3.5643,-3.5626,-3.5596,-3.5586,-3.5585,-3.5571,-3.557,-3.5558,-3.5534,-3.5343,-3.5338,-4.0582,-4.0597,-4.0767,-4.0899,-4.0986,-4.1055,-4.1082,-4.1103,-4.1171,-4.1151,-4.1102,-4.1102,-4.1133,-4.1191,-4.1191,-4.1191,-4.1191,-4.1191,-4.1191,-4.1191,-4.1191,-4.1191,-4.1191,-4.1191,-4.1191,-4.1191,-4.1191,-4.1191,-4.1172,-4.1191,-4.1191,-4.1172,-4.117,-4.1105,-4.1085,-4.1058,-4.1028,-4.1016,-4.1048,-4.1048,-4.1031,-4.1074,-4.1055,-4.1055,-4.1025,-4.1026,-4.1023,-4.1023,-4.0988,-4.0925,-4.0914,-4.0785,-4.0294,-4.017,-3.9711,-3.9147,-3.8762,-3.8441,-3.7828,-3.7432,-3.7225,-3.6754,-3.6212,-3.6283,-3.6098,-3.6086,-3.5698,-3.5694,-3.5726,-3.5738,-3.5738,-3.5783,-3.5788,-3.5799,-3.5804,-3.582,-3.582,-3.582,-3.582,-3.582,-3.5854,-3.5949,-3.5934,-3.5976,-3.5957,-3.5975,-3.5996,-3.5976,-3.5976,-3.5976,-3.5898,-3.584,-3.5767,-3.5775,-3.5797,-3.5786,-3.5752,-3.5746,-3.5726,-3.57,-3.5702,-3.5689,-3.57,-3.5717,-3.572,-3.5689,-3.5679,-3.5671,-3.5655,-3.5638,-3.5616,-3.5596,-3.5599,-3.5571,-3.5546,-4.0724,-4.0771,-4.0925,-4.1078,-4.1191,-4.1191,-4.1191,-4.1191,-4.1191,-4.1191,-4.1191,-4.1191,-4.1191,-4.1191,-4.1191,-4.1191,-4.1191,-4.1191,-4.1191,-4.1191,-4.1191,-4.1191,-4.1191,-4.1191,-4.1172,-4.1172,-4.1152,-4.1133,-4.1094,-4.1094,-4.1094,-4.1113,-4.1055,-4.0964,-4.0928,-4.0877,-4.0847,-4.0857,-4.0857,-4.0828,-4.085,-4.0889,-4.0902,-4.0854,-4.0797,-4.0797,-4.0801,-4.0801,-4.0801,-4.0784,-4.0775,-4.0665,-4.0616,-4.05,-4.0257,-3.9786,-3.9592,-3.9138,-3.8572,-3.8246,-3.8099,-3.779,-3.721,-3.6848,-3.6701,-3.646,-3.6082,-3.58,-3.5849,-3.5698,-3.5702,-3.5682,-3.5686,-3.5693,-3.57,-3.5691,-3.5694,-3.5694,-3.5694,-3.5694,-3.5772,-3.5871,-3.591,-3.5928,-3.5952,-3.5974,-3.5975,-3.5974,-3.5937,-3.5898,-3.584,-3.5814,-3.5797,-3.582,-3.59,-3.5887,-3.5843,-3.5836,-3.5832,-3.5783,-3.5747,-3.5795,-3.5804,-3.5766,-3.5763,-3.5781,-3.5781,-3.5783,-3.5755,-3.5723,-3.5667,-3.5646,-3.5655,-3.5661,-3.5679,-4.0836,-4.0942,-4.0988,-4.108,-4.1191,-4.1191,-4.1191,-4.1191,-4.1191,-4.1191,-4.1191,-4.1191,-4.1191,-4.1191,-4.1191,-4.1191,-4.1191,-4.1191,-4.1191,-4.1191,-4.1152,-4.1172,-4.1172,-4.1113,-4.1113,-4.1078,-4.1044,-4.0986,-4.0981,-4.092,-4.088,-4.0905,-4.0893,-4.0847,-4.0843,-4.0785,-4.0764,-4.0755,-4.0746,-4.0752,-4.0732,-4.0785,-4.0809,-4.0801,-4.0797,-4.0797,-4.0797,-4.0797,-4.0761,-4.0715,-4.0629,-4.0591,-4.0584,-4.0597,-4.0404,-4.0301,-4.0132,-3.9798,-3.9308,-3.9092,-3.8933,-3.8399,-3.7918,-3.7765,-3.763,-3.7534,-3.7064,-3.6466,-3.629,-3.5794,-3.5695,-3.564,-3.5631,-3.5639,-3.5633,-3.5671,-3.5694,-3.5694,-3.5694,-3.5678,-3.57,-3.5746,-3.5755,-3.5783,-3.5792,-3.5819,-3.5821,-3.5799,-3.5806,-3.5792,-3.5783,-3.579,-3.5795,-3.5876,-3.5937,-3.5956,-3.5935,-3.5933,-3.5918,-3.5898,-3.5898,-3.5937,-3.5937,-3.5879,-3.5898,-3.5937,-3.5918,-3.5862,-3.5857,-3.5823,-3.5732,-3.5696,-3.5723,-3.5735,-3.5777]},{"header":{"parameterUnit":"m.s-1","parameterCategory":1,"la1":31.0,"la2":29.5877,"lo1":-88.7671,"lo2":-86.6584,"dy":0.0162,"dx":0.0185,"nx":115,"ny":88,"refTime":"2023-08-20T12:00:00:Z","depth":0,"parameterNumber":3,"parameterNumberName":"V-component_of_WINDS"},"data":[0.0,0.0,0.0,0.0,0.0,0.0,0.0,0.0,0.0,0.0,0.0,0.0,0.0,0.0,0.0,0.0,0.0,0.0,0.0,0.0,0.0,0.0,0.0,0.0,0.0,0.0,0.0,0.0,0.0,0.0,0.0,0.0,0.0,0.0,0.0,0.0,0.0,0.0,0.0,0.0,0.0,0.0,0.0,0.0,0.0,0.0,0.0,0.0,0.0,0.0,0.0,0.0,0.0,0.0,0.0,0.0,0.0,0.0,0.0,0.0,0.0,0.0,0.0,0.0,0.0,0.0,0.0,0.0,0.0,0.0,0.0,0.0,0.0,0.0,0.0,0.0,0.0,0.0,0.0,0.0,0.0,0.0,0.0,0.0,0.0,0.0,0.0,0.0,0.0,0.0,0.0,0.0,0.0,0.0,0.0,0.0,0.0,0.0,0.0,0.0,0.0,0.0,0.0,0.0,0.0,0.0,0.0,0.0,0.0,0.0,0.0,0.0,0.0,0.0,0.0,0.0,0.0,0.0,0.0,0.0,0.0,0.0,0.0,0.0,0.0,0.0,0.0,0.0,0.0,0.0,0.0,0.0,0.0,0.0,0.0,0.0,0.0,0.0,0.0,0.0,0.0,0.0,0.0,0.0,0.0,0.0,0.0,0.0,0.0,0.0,0.0,0.0,0.0,0.0,0.0,0.0,0.0,0.0,0.0,0.0,0.0,0.0,0.0,0.0,0.0,0.0,0.0,0.0,0.0,0.0,0.0,0.0,0.0,0.0,0.0,0.0,0.0,0.0,0.0,0.0,0.0,0.0,0.0,0.0,0.0,0.0,0.0,0.0,0.0,0.0,0.0,0.0,0.0,0.0,0.0,0.0,0.0,0.0,0.0,0.0,0.0,0.0,0.0,0.0,0.0,0.0,0.0,0.0,0.0,0.0,0.0,0.0,0.0,0.0,0.0,0.0,0.0,0.0,0.0,0.0,0.0,0.0,0.0,0.0,0.0,0.0,0.0,0.0,0.0,0.0,0.0,0.0,0.0,0.0,0.0,0.0,0.0,0.0,0.0,0.0,0.0,0.0,0.0,0.0,0.0,0.0,0.0,0.0,0.0,0.0,0.0,0.0,0.0,0.0,0.0,0.0,0.0,0.0,0.0,0.0,0.0,0.0,0.0,0.0,0.0,0.0,0.0,0.0,0.0,0.0,0.0,0.0,0.0,0.0,0.0,0.0,0.0,0.0,0.0,0.0,0.0,0.0,0.0,0.0,0.0,0.0,0.0,0.0,0.0,0.0,0.0,0.0,0.0,0.0,0.0,0.0,0.0,0.0,0.0,0.0,0.0,0.0,0.0,0.0,0.0,0.0,0.0,0.0,0.0,0.0,0.0,0.0,0.0,0.0,0.0,0.0,0.0,0.0,0.0,0.0,0.0,0.0,0.0,0.0,0.0,0.0,0.0,0.0,0.0,0.0,0.0,0.0,0.0,0.0,0.0,0.0,0.0,0.0,0.0,0.0,0.0,0.0,0.0,0.0,0.0,0.0,0.0,0.0,0.0,0.0,0.0,0.0,0.0,0.0,0.0,0.0,0.0,0.0,0.0,0.0,0.0,0.0,0.0,0.0,0.0,0.0,0.0,0.0,0.0,0.0,0.0,0.0,0.0,0.0,0.0,0.0,0.0,0.0,0.0,0.0,0.0,0.0,0.0,0.0,0.0,0.0,0.0,0.0,0.0,0.0,0.0,0.0,0.0,0.0,0.0,0.0,0.0,0.0,0.0,0.0,0.0,0.0,0.0,0.0,0.0,0.0,0.0,0.0,0.0,0.0,0.0,0.0,0.0,0.0,0.0,0.0,0.0,0.0,0.0,0.0,0.0,0.0,0.0,0.0,0.0,0.0,0.0,0.0,0.0,0.0,0.0,0.0,0.0,0.0,0.0,0.0,0.0,0.0,0.0,0.0,0.0,0.0,0.0,0.0,0.0,0.0,0.0,0.0,0.0,0.0,0.0,0.0,0.0,0.0,0.0,0.0,0.0,0.0,0.0,0.0,0.0,0.0,0.0,0.0,0.0,0.0,0.0,0.0,0.0,0.0,0.0,0.0,0.0,0.0,0.0,0.0,0.0,0.0,0.0,0.0,0.0,0.0,0.0,0.0,0.0,0.0,0.0,0.0,0.0,0.0,0.0,0.0,0.0,0.0,0.0,0.0,0.0,0.0,0.0,0.0,0.0,0.0,0.0,0.0,0.0,0.0,0.0,0.0,0.0,0.0,0.0,0.0,0.0,0.0,0.0,0.0,0.0,0.0,0.0,0.0,0.0,0.0,0.0,0.0,0.0,0.0,0.0,0.0,0.0,0.0,0.0,0.0,0.0,0.0,0.0,0.0,0.0,0.0,0.0,0.0,0.0,0.0,0.0,0.0,0.0,0.0,0.0,0.0,0.0,0.0,0.0,0.0,0.0,0.0,0.0,0.0,0.0,0.0,0.0,0.0,0.0,0.0,0.0,0.0,0.0,0.0,0.0,0.0,0.0,0.0,0.0,0.0,0.0,0.0,0.0,0.0,0.0,0.0,0.0,0.0,0.0,0.0,0.0,0.0,0.0,0.0,0.0,0.0,0.0,0.0,0.0,0.0,0.0,0.0,0.0,0.0,0.0,0.0,0.0,0.0,0.0,0.0,0.0,0.0,0.0,0.0,0.0,0.0,0.0,0.0,0.0,0.0,0.0,0.0,0.0,0.0,0.0,0.0,0.0,0.0,0.0,0.0,0.0,0.0,0.0,0.0,0.0,0.0,0.0,0.0,0.0,0.0,0.0,0.0,0.0,0.0,0.0,0.0,0.0,0.0,0.0,0.0,0.0,0.0,0.0,0.0,0.0,0.0,0.0,0.0,0.0,0.0,0.0,0.0,0.0,0.0,0.0,0.0,0.0,0.0,0.0,0.0,0.0,0.0,0.0,0.0,0.0,0.0,0.0,0.0,0.0,0.0,0.0,0.0,0.0,0.0,0.0,0.0,0.0,0.0,0.0,0.0,0.0,0.0,0.0,0.0,0.0,0.0,0.0,0.0,0.0,0.0,0.0,0.0,0.0,0.0,0.0,0.0,0.0,0.0,0.0,0.0,0.0,0.0,0.0,0.0,0.0,0.0,0.0,0.0,0.0,0.0,0.0,0.0,0.0,0.0,0.0,0.0,0.0,0.0,0.0,0.0,0.0,0.0,0.0,0.0,0.0,0.0,0.0,0.0,0.0,0.0,0.0,0.0,0.0,0.0,0.0,0.0,0.0,0.0,0.0,0.0,0.0,0.0,0.0,0.0,0.0,0.0,0.0,0.0,0.0,0.0,0.0,0.0,0.0,0.0,0.0,0.0,0.0,0.0,0.0,0.0,0.0,0.0,0.0,0.0,0.0,0.0,0.0,0.0,0.0,0.0,0.0,0.0,0.0,0.0,0.0,0.0,0.0,0.0,0.0,0.0,0.0,0.0,0.0,0.0,0.0,0.0,0.0,0.0,0.0,0.0,0.0,0.0,0.0,0.0,0.0,0.0,0.0,0.0,0.0,0.0,0.0,0.0,0.0,0.0,0.0,0.0,0.0,0.0,0.0,0.0,0.0,0.0,0.0,0.0,0.0,0.0,0.0,0.0,0.0,0.0,0.0,0.0,0.0,0.0,0.0,0.0,0.0,0.0,0.0,0.0,0.0,0.0,0.0,0.0,0.0,0.0,0.0,0.0,0.0,0.0,0.0,0.0,0.0,0.0,0.0,0.0,0.0,0.0,0.0,0.0,0.0,0.0,0.0,0.0,0.0,0.0,0.0,0.0,0.0,0.0,0.0,0.0,0.0,0.0,0.0,0.0,0.0,0.0,0.0,0.0,0.0,0.0,0.0,0.0,0.0,0.0,0.0,0.0,0.0,0.0,0.0,0.0,0.0,0.0,0.0,0.0,0.0,0.0,0.0,0.0,0.0,0.0,0.0,0.0,0.0,0.0,0.0,0.0,0.0,0.0,0.0,0.0,0.0,0.0,0.0,0.0,0.0,0.0,0.0,0.0,0.0,0.0,0.0,0.0,0.0,0.0,0.0,0.0,0.0,0.0,0.0,0.0,0.0,0.0,0.0,0.0,0.0,0.0,0.0,0.0,0.0,0.0,0.0,0.0,0.0,0.0,0.0,0.0,0.0,0.0,0.0,0.0,0.0,0.0,0.0,0.0,0.0,0.0,0.0,0.0,0.0,0.0,0.0,0.0,0.0,0.0,0.0,0.0,0.0,0.0,0.0,0.0,0.0,0.0,-1.3362,0.0,0.0,0.0,0.0,0.0,0.0,0.0,0.0,0.0,0.0,0.0,0.0,0.0,0.0,0.0,0.0,0.0,0.0,0.0,0.0,0.0,0.0,0.0,0.0,0.0,0.0,0.0,0.0,0.0,0.0,0.0,0.0,0.0,0.0,0.0,0.0,0.0,0.0,0.0,0.0,0.0,0.0,0.0,0.0,0.0,0.0,0.0,0.0,0.0,0.0,0.0,0.0,0.0,0.0,0.0,0.0,0.0,0.0,0.0,0.0,0.0,0.0,0.0,0.0,0.0,0.0,0.0,0.0,0.0,0.0,0.0,0.0,0.0,0.0,0.0,0.0,0.0,0.0,0.0,0.0,0.0,0.0,0.0,0.0,0.0,0.0,0.0,0.0,0.0,0.0,0.0,0.0,0.0,0.0,0.0,0.0,0.0,0.0,0.0,0.0,0.0,0.0,0.0,0.0,0.0,0.0,0.0,0.0,0.0,0.0,-1.3138,-1.3184,-1.3266,-1.3396,-1.3515,0.0,0.0,0.0,0.0,0.0,0.0,0.0,0.0,0.0,0.0,0.0,0.0,0.0,0.0,0.0,0.0,0.0,0.0,0.0,0.0,0.0,0.0,0.0,0.0,0.0,0.0,0.0,0.0,0.0,0.0,0.0,0.0,0.0,0.0,0.0,0.0,0.0,0.0,0.0,0.0,0.0,0.0,0.0,0.0,0.0,0.0,0.0,0.0,0.0,0.0,0.0,0.0,0.0,0.0,0.0,0.0,0.0,0.0,0.0,0.0,0.0,0.0,0.0,0.0,0.0,0.0,0.0,0.0,0.0,0.0,0.0,0.0,0.0,0.0,0.0,0.0,0.0,0.0,0.0,0.0,0.0,0.0,0.0,0.0,0.0,0.0,0.0,0.0,0.0,0.0,0.0,0.0,0.0,0.0,0.0,0.0,0.0,0.0,0.0,0.0,0.0,0.0,0.0,0.0,0.0,0.0,0.0,0.0,0.0,0.0,0.0,0.0,-1.3386,-1.3491,-1.3597,0.0,0.0,0.0,0.0,0.0,0.0,0.0,0.0,0.0,0.0,0.0,0.0,0.0,0.0,0.0,0.0,0.0,0.0,0.0,0.0,0.0,0.0,0.0,0.0,0.0,0.0,0.0,0.0,0.0,0.0,0.0,0.0,0.0,0.0,0.0,0.0,0.0,0.0,0.0,0.0,0.0,0.0,0.0,0.0,0.0,0.0,0.0,0.0,0.0,0.0,0.0,0.0,0.0,0.0,0.0,0.0,0.0,0.0,0.0,0.0,0.0,0.0,0.0,0.0,0.0,0.0,0.0,0.0,0.0,0.0,0.0,0.0,0.0,0.0,0.0,0.0,0.0,0.0,0.0,0.0,0.0,0.0,0.0,0.0,0.0,0.0,0.0,0.0,0.0,0.0,0.0,0.0,0.0,0.0,0.0,0.0,0.0,0.0,0.0,0.0,0.0,0.0,0.0,0.0,0.0,0.0,0.0,0.0,0.0,0.0,-1.3443,-1.3549,-1.3573,0.0,-1.361,0.0,0.0,0.0,0.0,0.0,0.0,0.0,0.0,0.0,0.0,0.0,0.0,0.0,0.0,0.0,0.0,0.0,0.0,0.0,0.0,0.0,0.0,0.0,0.0,0.0,0.0,0.0,0.0,0.0,0.0,0.0,0.0,0.0,0.0,0.0,0.0,0.0,0.0,0.0,0.0,0.0,0.0,0.0,0.0,0.0,0.0,0.0,0.0,0.0,0.0,0.0,0.0,0.0,0.0,0.0,0.0,0.0,0.0,0.0,0.0,0.0,0.0,0.0,0.0,0.0,0.0,0.0,0.0,0.0,0.0,0.0,0.0,0.0,0.0,0.0,0.0,0.0,0.0,0.0,0.0,0.0,0.0,0.0,0.0,0.0,0.0,0.0,0.0,0.0,0.0,0.0,0.0,0.0,0.0,0.0,0.0,0.0,0.0,0.0,0.0,0.0,0.0,0.0,0.0,0.0,0.0,0.0,0.0,0.0,0.0,-1.3433,-1.3467,-1.3573,-1.361,0.0,0.0,0.0,0.0,0.0,0.0,0.0,0.0,0.0,0.0,0.0,0.0,0.0,0.0,0.0,0.0,0.0,0.0,0.0,0.0,0.0,0.0,0.0,0.0,0.0,0.0,0.0,0.0,0.0,0.0,0.0,0.0,0.0,0.0,0.0,0.0,0.0,0.0,0.0,0.0,0.0,0.0,0.0,0.0,0.0,0.0,0.0,0.0,0.0,0.0,0.0,0.0,0.0,0.0,0.0,0.0,0.0,0.0,0.0,0.0,0.0,0.0,0.0,0.0,0.0,0.0,0.0,0.0,0.0,0.0,0.0,0.0,0.0,0.0,0.0,0.0,0.0,0.0,0.0,0.0,0.0,0.0,0.0,0.0,0.0,0.0,0.0,0.0,0.0,0.0,0.0,0.0,0.0,0.0,0.0,0.0,0.0,0.0,0.0,0.0,0.0,0.0,0.0,0.0,0.0,0.0,0.0,0.0,0.0,0.0,-1.3396,-1.3457,-1.3467,-1.3539,-1.361,-1.361,0.0,0.0,0.0,0.0,0.0,0.0,0.0,0.0,0.0,0.0,0.0,0.0,0.0,0.0,0.0,0.0,0.0,0.0,0.0,0.0,0.0,0.0,0.0,0.0,0.0,0.0,0.0,0.0,0.0,0.0,0.0,0.0,0.0,0.0,0.0,0.0,0.0,0.0,0.0,0.0,0.0,0.0,0.0,0.0,0.0,0.0,0.0,0.0,0.0,0.0,0.0,0.0,0.0,0.0,0.0,0.0,0.0,0.0,0.0,0.0,0.0,0.0,0.0,0.0,0.0,0.0,0.0,0.0,0.0,0.0,0.0,0.0,0.0,0.0,0.0,0.0,0.0,0.0,0.0,0.0,0.0,0.0,0.0,0.0,0.0,0.0,0.0,0.0,0.0,0.0,0.0,0.0,0.0,0.0,0.0,0.0,0.0,0.0,0.0,0.0,0.0,0.0,0.0,0.0,0.0,0.0,0.0,0.0,-1.3409,-1.3525,-1.3597,-1.3597,-1.361,-1.361,0.0,0.0,0.0,0.0,0.0,0.0,0.0,0.0,0.0,0.0,0.0,0.0,0.0,0.0,0.0,0.0,0.0,0.0,0.0,0.0,0.0,0.0,0.0,0.0,0.0,0.0,0.0,0.0,0.0,0.0,0.0,0.0,0.0,0.0,0.0,0.0,0.0,0.0,0.0,0.0,0.0,0.0,0.0,0.0,0.0,0.0,0.0,0.0,0.0,0.0,0.0,0.0,0.0,0.0,0.0,0.0,0.0,0.0,0.0,0.0,0.0,0.0,0.0,0.0,0.0,0.0,0.0,0.0,0.0,0.0,0.0,0.0,0.0,0.0,0.0,0.0,0.0,0.0,0.0,0.0,0.0,0.0,0.0,0.0,0.0,0.0,0.0,0.0,0.0,0.0,0.0,0.0,0.0,0.0,0.0,0.0,0.0,0.0,0.0,0.0,0.0,0.0,0.0,0.0,0.0,0.0,0.0,0.0,0.0,-1.3539,-1.3573,-1.361,-1.361,-1.361,-1.361,0.0,0.0,0.0,0.0,0.0,0.0,0.0,0.0,0.0,0.0,0.0,0.0,0.0,0.0,0.0,0.0,0.0,0.0,0.0,0.0,0.0,0.0,0.0,0.0,0.0,0.0,0.0,0.0,0.0,0.0,0.0,0.0,0.0,0.0,0.0,0.0,0.0,0.0,0.0,0.0,0.0,0.0,0.0,0.0,0.0,0.0,0.0,0.0,0.0,0.0,0.0,0.0,0.0,0.0,0.0,0.0,0.0,0.0,0.0,0.0,0.0,0.0,0.0,0.0,0.0,0.0,0.0,0.0,0.0,0.0,0.0,0.0,0.0,0.0,0.0,0.0,0.0,0.0,0.0,0.0,0.0,0.0,0.0,0.0,0.0,0.0,0.0,0.0,0.0,0.0,0.0,0.0,0.0,0.0,0.0,0.0,0.0,0.0,0.0,0.0,0.0,0.0,0.0,0.0,0.0,0.0,0.0,0.0,0.0,-1.361,0.0,-1.361,-1.361,-1.361,-1.361,0.0,0.0,0.0,0.0,0.0,0.0,0.0,0.0,0.0,0.0,0.0,0.0,0.0,0.0,0.0,0.0,0.0,0.0,0.0,0.0,0.0,0.0,0.0,0.0,0.0,0.0,0.0,0.0,0.0,0.0,0.0,0.0,0.0,0.0,0.0,0.0,0.0,0.0,0.0,0.0,0.0,0.0,0.0,0.0,0.0,0.0,0.0,0.0,0.0,0.0,0.0,0.0,0.0,0.0,0.0,0.0,0.0,0.0,0.0,0.0,0.0,0.0,0.0,0.0,0.0,0.0,0.0,0.0,0.0,0.0,0.0,0.0,0.0,0.0,0.0,0.0,0.0,0.0,0.0,0.0,0.0,0.0,0.0,0.0,0.0,0.0,0.0,0.0,0.0,0.0,0.0,0.0,0.0,0.0,0.0,0.0,0.0,0.0,0.0,0.0,0.0,0.0,0.0,0.0,0.0,0.0,0.0,0.0,-1.3988,-1.361,-1.361,-1.361,-1.361,-1.361,-1.361,0.0,0.0,0.0,0.0,0.0,0.0,0.0,0.0,0.0,0.0,0.0,0.0,0.0,0.0,0.0,0.0,0.0,0.0,0.0,0.0,0.0,0.0,0.0,0.0,0.0,0.0,0.0,0.0,0.0,0.0,0.0,0.0,0.0,0.0,0.0,0.0,0.0,0.0,0.0,0.0,0.0,0.0,0.0,0.0,0.0,0.0,0.0,0.0,0.0,0.0,0.0,0.0,0.0,0.0,0.0,0.0,0.0,0.0,0.0,0.0,0.0,0.0,0.0,0.0,0.0,0.0,0.0,0.0,0.0,0.0,0.0,0.0,0.0,0.0,0.0,0.0,0.0,0.0,0.0,0.0,0.0,0.0,0.0,0.0,0.0,0.0,0.0,0.0,0.0,0.0,0.0,0.0,0.0,0.0,0.0,0.0,0.0,0.0,0.0,0.0,0.0,0.0,0.0,0.0,0.0,0.0,0.0,0.0,0.0,-1.361,-1.361,-1.361,-1.361,-1.361,-1.361,0.0,0.0,0.0,0.0,0.0,0.0,0.0,0.0,0.0,0.0,0.0,0.0,0.0,0.0,0.0,0.0,0.0,0.0,0.0,0.0,0.0,0.0,0.0,0.0,0.0,0.0,0.0,0.0,0.0,0.0,0.0,0.0,0.0,0.0,0.0,0.0,0.0,0.0,0.0,0.0,0.0,0.0,0.0,0.0,0.0,0.0,0.0,0.0,0.0,0.0,0.0,0.0,0.0,0.0,0.0,0.0,0.0,0.0,0.0,0.0,0.0,0.0,0.0,0.0,0.0,0.0,0.0,0.0,0.0,0.0,0.0,0.0,0.0,0.0,0.0,0.0,0.0,0.0,0.0,0.0,0.0,0.0,0.0,0.0,0.0,0.0,0.0,0.0,0.0,0.0,0.0,0.0,0.0,0.0,0.0,0.0,0.0,0.0,0.0,0.0,0.0,0.0,0.0,0.0,0.0,0.0,0.0,0.0,0.0,-1.3772,-1.3772,-1.3786,-1.3796,-1.3772,-1.3738,-1.3607,0.0,0.0,0.0,0.0,0.0,0.0,0.0,0.0,0.0,0.0,0.0,0.0,0.0,0.0,0.0,0.0,0.0,0.0,0.0,0.0,0.0,0.0,0.0,0.0,0.0,0.0,0.0,0.0,0.0,0.0,0.0,0.0,0.0,0.0,0.0,0.0,0.0,0.0,0.0,0.0,0.0,0.0,0.0,0.0,0.0,0.0,0.0,0.0,0.0,0.0,0.0,0.0,0.0,0.0,0.0,0.0,0.0,0.0,0.0,0.0,0.0,0.0,0.0,0.0,0.0,0.0,0.0,0.0,0.0,0.0,0.0,0.0,0.0,0.0,0.0,0.0,0.0,0.0,0.0,0.0,0.0,0.0,0.0,0.0,0.0,0.0,0.0,0.0,0.0,0.0,0.0,0.0,0.0,0.0,0.0,0.0,0.0,0.0,0.0,0.0,0.0,0.0,0.0,0.0,0.0,0.0,0.0,0.0,-1.415,-1.415,-1.4139,-1.4109,-1.4114,-1.3949,0.0,0.0,0.0,0.0,0.0,0.0,0.0,0.0,0.0,0.0,0.0,0.0,0.0,0.0,0.0,0.0,0.0,0.0,0.0,0.0,0.0,0.0,0.0,0.0,0.0,0.0,0.0,0.0,0.0,0.0,0.0,0.0,0.0,0.0,0.0,0.0,0.0,0.0,0.0,0.0,0.0,0.0,0.0,0.0,0.0,0.0,0.0,0.0,0.0,0.0,0.0,0.0,0.0,0.0,0.0,0.0,0.0,0.0,0.0,0.0,0.0,0.0,0.0,0.0,0.0,0.0,0.0,0.0,0.0,0.0,0.0,0.0,0.0,0.0,0.0,0.0,0.0,0.0,0.0,0.0,0.0,0.0,0.0,0.0,0.0,0.0,0.0,0.0,0.0,0.0,0.0,0.0,0.0,0.0,0.0,0.0,0.0,0.0,0.0,0.0,0.0,0.0,0.0,0.0,0.0,0.0,0.0,0.0,0.0,-1.4858,-1.4807,-1.4647,-1.4405,-1.4201,-1.4067,0.0,0.0,0.0,0.0,0.0,0.0,0.0,0.0,0.0,0.0,0.0,0.0,0.0,0.0,0.0,0.0,0.0,0.0,0.0,0.0,0.0,0.0,0.0,0.0,0.0,0.0,0.0,0.0,0.0,0.0,0.0,0.0,0.0,0.0,0.0,0.0,0.0,0.0,0.0,0.0,0.0,0.0,0.0,0.0,0.0,0.0,0.0,0.0,0.0,0.0,0.0,0.0,0.0,0.0,0.0,0.0,0.0,0.0,0.0,0.0,0.0,0.0,0.0,0.0,0.0,0.0,0.0,0.0,0.0,0.0,0.0,0.0,0.0,0.0,0.0,0.0,0.0,0.0,0.0,0.0,0.0,0.0,0.0,0.0,0.0,0.0,0.0,0.0,0.0,0.0,0.0,0.0,0.0,0.0,0.0,0.0,0.0,0.0,0.0,0.0,0.0,0.0,0.0,0.0,0.0,0.0,0.0,0.0,-1.4483,-1.5174,-1.5186,-1.5072,-1.4881,-1.4479,-1.4221,0.0,0.0,0.0,0.0,0.0,0.0,0.0,0.0,0.0,0.0,0.0,0.0,0.0,0.0,0.0,0.0,0.0,0.0,0.0,0.0,0.0,0.0,0.0,0.0,0.0,0.0,0.0,0.0,0.0,0.0,0.0,0.0,0.0,0.0,0.0,0.0,0.0,0.0,0.0,0.0,0.0,0.0,0.0,0.0,0.0,0.0,0.0,0.0,0.0,0.0,0.0,0.0,0.0,0.0,0.0,0.0,0.0,0.0,0.0,0.0,0.0,0.0,0.0,0.0,0.0,0.0,0.0,0.0,0.0,0.0,0.0,0.0,0.0,0.0,0.0,0.0,0.0,0.0,0.0,0.0,0.0,0.0,0.0,0.0,0.0,0.0,0.0,0.0,0.0,0.0,0.0,0.0,0.0,0.0,0.0,0.0,0.0,0.0,0.0,0.0,0.0,0.0,0.0,0.0,0.0,0.0,0.0,0.0,-1.4874,-1.5297,-1.5458,-1.5557,-1.5518,-1.4849,-1.4385,0.0,0.0,0.0,0.0,0.0,0.0,0.0,0.0,0.0,0.0,0.0,0.0,0.0,0.0,0.0,0.0,0.0,0.0,0.0,0.0,0.0,0.0,0.0,0.0,0.0,0.0,0.0,0.0,0.0,0.0,0.0,0.0,0.0,0.0,0.0,0.0,0.0,0.0,0.0,0.0,0.0,0.0,0.0,0.0,0.0,0.0,0.0,0.0,0.0,0.0,0.0,0.0,0.0,0.0,0.0,0.0,0.0,0.0,0.0,0.0,0.0,0.0,0.0,0.0,0.0,0.0,0.0,0.0,0.0,0.0,0.0,0.0,0.0,0.0,0.0,0.0,0.0,0.0,0.0,0.0,0.0,0.0,0.0,0.0,0.0,0.0,0.0,0.0,0.0,0.0,0.0,0.0,0.0,0.0,0.0,0.0,0.0,0.0,0.0,0.0,0.0,0.0,0.0,0.0,0.0,0.0,0.0,0.0,-1.5747,-1.6059,-1.6292,-1.6424,-1.6414,-1.5177,-1.4456,0.0,0.0,0.0,0.0,0.0,0.0,0.0,0.0,0.0,0.0,0.0,0.0,0.0,0.0,0.0,0.0,0.0,0.0,0.0,0.0,0.0,0.0,0.0,0.0,0.0,0.0,0.0,0.0,0.0,0.0,0.0,0.0,0.0,0.0,0.0,0.0,0.0,0.0,0.0,0.0,0.0,0.0,0.0,0.0,0.0,0.0,0.0,0.0,-1.9495,0.0,0.0,0.0,0.0,0.0,0.0,0.0,0.0,0.0,0.0,0.0,0.0,0.0,0.0,0.0,0.0,0.0,0.0,0.0,0.0,0.0,0.0,0.0,0.0,0.0,0.0,0.0,0.0,0.0,0.0,0.0,0.0,0.0,0.0,0.0,0.0,0.0,0.0,0.0,0.0,0.0,0.0,0.0,0.0,0.0,0.0,0.0,0.0,0.0,0.0,0.0,0.0,0.0,0.0,0.0,0.0,0.0,0.0,0.0,-1.6137,-1.6614,-1.6674,-1.6697,-1.6658,-1.5812,-1.5299,0.0,0.0,0.0,0.0,0.0,0.0,0.0,0.0,0.0,0.0,0.0,0.0,0.0,0.0,0.0,0.0,0.0,0.0,0.0,0.0,0.0,0.0,0.0,0.0,0.0,0.0,0.0,0.0,0.0,0.0,0.0,0.0,0.0,0.0,0.0,0.0,0.0,0.0,0.0,0.0,0.0,0.0,0.0,0.0,0.0,0.0,0.0,0.0,0.0,0.0,0.0,0.0,0.0,0.0,0.0,0.0,0.0,0.0,0.0,0.0,0.0,0.0,0.0,0.0,0.0,0.0,0.0,0.0,0.0,0.0,0.0,0.0,0.0,0.0,0.0,0.0,0.0,0.0,0.0,0.0,0.0,0.0,0.0,0.0,0.0,0.0,0.0,0.0,0.0,0.0,0.0,0.0,0.0,0.0,0.0,0.0,0.0,0.0,0.0,0.0,0.0,0.0,0.0,0.0,0.0,0.0,0.0,-1.5825,-1.6387,-1.704,-1.6958,-1.6892,-1.6892,-1.6591,-1.6307,-1.6086,0.0,0.0,0.0,0.0,0.0,0.0,0.0,0.0,0.0,0.0,0.0,0.0,0.0,0.0,0.0,0.0,0.0,0.0,0.0,0.0,0.0,0.0,0.0,0.0,0.0,0.0,0.0,0.0,0.0,0.0,0.0,0.0,0.0,0.0,0.0,0.0,0.0,0.0,-1.8683,-1.8685,0.0,0.0,0.0,0.0,0.0,0.0,0.0,0.0,-2.0006,0.0,0.0,0.0,0.0,0.0,0.0,0.0,0.0,0.0,0.0,0.0,0.0,0.0,0.0,0.0,0.0,0.0,0.0,0.0,0.0,0.0,0.0,0.0,0.0,0.0,0.0,0.0,0.0,0.0,0.0,0.0,0.0,0.0,0.0,0.0,0.0,0.0,0.0,0.0,0.0,0.0,0.0,0.0,0.0,0.0,0.0,0.0,0.0,0.0,0.0,0.0,0.0,0.0,0.0,0.0,0.0,-1.6126,-1.6588,-1.6989,-1.7331,-1.7627,-1.7803,-1.7783,-1.7182,-1.6925,-1.6939,0.0,0.0,0.0,0.0,0.0,0.0,0.0,0.0,0.0,0.0,0.0,0.0,0.0,0.0,0.0,0.0,0.0,0.0,0.0,0.0,0.0,0.0,0.0,0.0,0.0,0.0,0.0,0.0,0.0,0.0,0.0,0.0,0.0,0.0,0.0,0.0,0.0,0.0,0.0,-1.8993,-1.8841,0.0,0.0,0.0,0.0,0.0,0.0,0.0,0.0,-2.1151,0.0,0.0,0.0,0.0,0.0,0.0,0.0,0.0,0.0,0.0,0.0,0.0,0.0,0.0,0.0,0.0,0.0,0.0,0.0,0.0,0.0,0.0,0.0,0.0,0.0,0.0,0.0,0.0,0.0,0.0,0.0,0.0,0.0,0.0,0.0,0.0,0.0,0.0,0.0,0.0,0.0,0.0,0.0,0.0,0.0,0.0,0.0,0.0,0.0,0.0,0.0,0.0,0.0,0.0,0.0,-1.6177,-1.6924,-1.7451,-1.7695,-1.791,-1.8008,-1.7998,-1.7501,-1.7272,0.0,0.0,0.0,0.0,0.0,0.0,0.0,0.0,0.0,0.0,0.0,0.0,0.0,0.0,0.0,0.0,0.0,0.0,0.0,0.0,0.0,0.0,0.0,0.0,0.0,0.0,0.0,0.0,0.0,0.0,0.0,0.0,0.0,0.0,0.0,0.0,0.0,0.0,0.0,0.0,-1.9464,-1.9527,-2.0353,0.0,0.0,0.0,0.0,0.0,0.0,-2.2061,-2.2134,0.0,0.0,0.0,0.0,0.0,0.0,0.0,0.0,0.0,0.0,0.0,0.0,0.0,0.0,0.0,0.0,0.0,0.0,0.0,0.0,0.0,0.0,0.0,0.0,0.0,0.0,0.0,0.0,0.0,0.0,0.0,0.0,0.0,0.0,0.0,0.0,0.0,0.0,0.0,0.0,0.0,0.0,0.0,0.0,0.0,0.0,0.0,0.0,0.0,0.0,0.0,0.0,0.0,0.0,0.0,-1.6375,-1.7145,-1.7691,-1.7988,-1.8008,-1.8008,-1.7998,-1.7553,-1.736,0.0,0.0,0.0,0.0,0.0,0.0,0.0,0.0,0.0,0.0,0.0,0.0,0.0,0.0,0.0,0.0,0.0,0.0,0.0,0.0,0.0,0.0,0.0,0.0,0.0,0.0,0.0,0.0,0.0,0.0,0.0,0.0,0.0,0.0,0.0,0.0,0.0,0.0,0.0,0.0,0.0,-2.0171,-2.098,-2.0963,0.0,0.0,0.0,0.0,-2.2224,-2.2849,0.0,0.0,0.0,0.0,0.0,0.0,0.0,0.0,0.0,0.0,0.0,0.0,0.0,0.0,0.0,0.0,0.0,0.0,0.0,0.0,0.0,0.0,0.0,0.0,0.0,0.0,0.0,0.0,0.0,0.0,0.0,0.0,0.0,0.0,0.0,0.0,0.0,0.0,0.0,0.0,0.0,0.0,0.0,0.0,0.0,0.0,0.0,0.0,0.0,0.0,0.0,0.0,0.0,0.0,0.0,0.0,-1.7235,-1.7345,-1.7621,-1.7978,-1.8008,-1.8008,-1.7998,-1.7389,-1.7052,0.0,0.0,0.0,0.0,0.0,0.0,0.0,0.0,0.0,0.0,0.0,0.0,0.0,0.0,0.0,0.0,0.0,0.0,0.0,0.0,0.0,0.0,0.0,0.0,0.0,0.0,0.0,0.0,0.0,0.0,0.0,0.0,0.0,0.0,0.0,0.0,0.0,0.0,0.0,0.0,0.0,-2.014,-2.0994,-2.088,-2.0905,0.0,0.0,-2.3246,-2.4326,-2.4789,0.0,0.0,0.0,0.0,0.0,0.0,0.0,0.0,0.0,0.0,0.0,0.0,0.0,0.0,0.0,0.0,0.0,0.0,0.0,0.0,0.0,0.0,0.0,0.0,0.0,0.0,0.0,0.0,0.0,0.0,0.0,0.0,0.0,0.0,0.0,0.0,0.0,0.0,0.0,0.0,0.0,0.0,0.0,0.0,0.0,0.0,0.0,0.0,0.0,0.0,0.0,0.0,0.0,0.0,0.0,-1.7024,-1.7402,-1.7619,-1.7832,-1.7998,-1.8008,-1.8008,-1.8008,-1.7243,-1.6971,0.0,0.0,0.0,0.0,0.0,0.0,0.0,0.0,0.0,0.0,0.0,0.0,0.0,0.0,0.0,0.0,0.0,0.0,0.0,0.0,0.0,0.0,0.0,0.0,0.0,0.0,0.0,0.0,0.0,0.0,0.0,0.0,0.0,0.0,0.0,0.0,0.0,0.0,0.0,0.0,0.0,0.0,-2.1559,-2.183,0.0,0.0,0.0,-2.408,-2.4086,0.0,0.0,0.0,0.0,0.0,0.0,0.0,0.0,0.0,0.0,0.0,0.0,0.0,0.0,0.0,0.0,0.0,0.0,0.0,0.0,0.0,0.0,0.0,0.0,0.0,0.0,0.0,0.0,0.0,0.0,0.0,0.0,0.0,0.0,0.0,0.0,0.0,0.0,0.0,0.0,0.0,0.0,0.0,0.0,0.0,0.0,0.0,0.0,0.0,0.0,0.0,0.0,0.0,0.0,0.0,0.0,0.0,-1.7393,-1.7793,-1.8008,-1.8008,-1.8008,-1.8008,-1.7998,-1.7252,0.0,0.0,0.0,0.0,0.0,0.0,0.0,0.0,0.0,0.0,0.0,0.0,0.0,0.0,0.0,0.0,0.0,0.0,0.0,0.0,0.0,0.0,0.0,0.0,0.0,0.0,0.0,-1.7627,0.0,0.0,0.0,0.0,0.0,0.0,0.0,0.0,0.0,0.0,0.0,0.0,0.0,0.0,-2.1763,-2.2251,-2.2803,-2.3429,0.0,0.0,-2.4733,-2.4255,-2.5531,-2.5973,0.0,0.0,0.0,0.0,0.0,0.0,0.0,0.0,0.0,0.0,0.0,0.0,0.0,0.0,0.0,0.0,0.0,0.0,0.0,0.0,0.0,0.0,0.0,0.0,0.0,0.0,0.0,0.0,0.0,0.0,0.0,0.0,0.0,0.0,0.0,0.0,0.0,0.0,0.0,0.0,0.0,0.0,0.0,0.0,0.0,0.0,0.0,0.0,0.0,0.0,0.0,0.0,0.0,0.0,-1.7778,-1.7425,-1.7803,-1.8008,-1.8008,-1.8008,-1.8008,-1.7998,-1.7578,-1.7148,0.0,0.0,0.0,0.0,0.0,0.0,0.0,0.0,0.0,0.0,0.0,0.0,0.0,0.0,0.0,0.0,0.0,0.0,0.0,0.0,0.0,0.0,0.0,0.0,0.0,0.0,0.0,0.0,0.0,0.0,0.0,0.0,0.0,0.0,0.0,0.0,0.0,0.0,0.0,0.0,0.0,-2.2876,-2.2934,-2.3449,-2.4145,0.0,-2.5038,-2.5155,-2.5894,-2.6847,-2.6927,-2.5248,0.0,0.0,0.0,0.0,0.0,0.0,0.0,0.0,0.0,0.0,0.0,0.0,0.0,0.0,0.0,0.0,0.0,0.0,0.0,0.0,0.0,0.0,0.0,0.0,0.0,0.0,0.0,0.0,0.0,0.0,0.0,0.0,0.0,0.0,0.0,0.0,0.0,0.0,0.0,0.0,0.0,0.0,0.0,0.0,0.0,0.0,0.0,0.0,0.0,0.0,0.0,0.0,0.0,-1.7931,-1.7773,-1.793,-1.8008,-1.8008,-1.8008,-1.8008,-1.8008,-1.7598,-1.7178,0.0,0.0,0.0,0.0,0.0,0.0,0.0,0.0,0.0,0.0,0.0,0.0,0.0,0.0,0.0,0.0,0.0,0.0,0.0,0.0,0.0,0.0,0.0,0.0,0.0,0.0,0.0,0.0,-1.8825,-1.9273,-1.9301,0.0,0.0,0.0,0.0,0.0,0.0,0.0,0.0,0.0,0.0,-2.3337,-2.4259,-2.4611,0.0,0.0,-2.5761,-2.5629,-2.5433,-2.6219,-2.6293,-2.4624,-2.442,0.0,0.0,0.0,0.0,0.0,0.0,0.0,0.0,0.0,0.0,0.0,0.0,0.0,0.0,0.0,0.0,0.0,0.0,0.0,0.0,0.0,0.0,0.0,0.0,0.0,0.0,0.0,0.0,0.0,0.0,0.0,0.0,0.0,0.0,0.0,0.0,0.0,0.0,0.0,0.0,0.0,0.0,0.0,0.0,0.0,0.0,0.0,0.0,0.0,0.0,0.0,0.0,-1.8008,-1.8008,-1.8008,-1.8008,-1.8008,-1.8008,-1.8008,-1.7998,-1.7725,-1.7363,0.0,0.0,0.0,0.0,0.0,0.0,0.0,0.0,0.0,0.0,0.0,0.0,0.0,0.0,0.0,0.0,0.0,0.0,0.0,0.0,0.0,0.0,0.0,0.0,0.0,0.0,0.0,0.0,-1.9208,-1.9722,-1.9688,0.0,0.0,0.0,0.0,0.0,0.0,0.0,0.0,0.0,0.0,-2.4247,-2.507,-2.5188,-2.5311,-2.5752,-2.5736,-2.555,-2.5203,-2.5898,-2.6041,-2.4752,0.0,0.0,0.0,0.0,0.0,0.0,0.0,0.0,0.0,0.0,0.0,0.0,0.0,0.0,0.0,0.0,0.0,0.0,0.0,0.0,0.0,0.0,0.0,0.0,0.0,0.0,0.0,-1.3476,0.0,0.0,-1.3434,0.0,0.0,0.0,0.0,0.0,0.0,0.0,0.0,0.0,0.0,0.0,0.0,0.0,0.0,0.0,0.0,0.0,0.0,0.0,0.0,0.0,0.0,-1.8008,-1.8008,-1.8008,-1.8008,-1.8008,-1.8008,-1.8008,-1.8008,-1.7998,-1.7793,-1.7373,0.0,0.0,0.0,0.0,0.0,0.0,0.0,0.0,0.0,0.0,0.0,0.0,0.0,0.0,0.0,0.0,0.0,0.0,0.0,0.0,0.0,0.0,0.0,0.0,0.0,0.0,-1.7894,-1.8834,-1.9643,0.0,0.0,0.0,0.0,0.0,0.0,0.0,0.0,0.0,-2.2578,-2.4635,-2.582,-2.5043,-2.4907,-2.4936,-2.4966,-2.4745,-2.4848,-2.5607,-2.6242,-2.6541,0.0,0.0,0.0,0.0,0.0,0.0,0.0,0.0,0.0,0.0,0.0,0.0,0.0,0.0,0.0,0.0,0.0,0.0,0.0,0.0,0.0,0.0,0.0,0.0,0.0,0.0,0.0,-1.386,-1.3851,0.0,0.0,0.0,0.0,0.0,0.0,0.0,0.0,0.0,0.0,0.0,-1.58,-1.587,0.0,0.0,0.0,0.0,0.0,0.0,0.0,0.0,0.0,0.0,0.0,0.0,-1.8008,-1.8008,-1.8008,-1.8008,-1.8008,-1.8008,-1.8008,-1.8008,-1.8008,-1.7812,-1.7425,0.0,0.0,0.0,0.0,0.0,0.0,0.0,0.0,0.0,0.0,0.0,0.0,0.0,0.0,0.0,0.0,0.0,0.0,0.0,0.0,0.0,0.0,0.0,0.0,0.0,-1.8657,0.0,0.0,0.0,0.0,0.0,0.0,0.0,0.0,0.0,0.0,0.0,-2.2916,-2.3999,-2.4298,-2.4539,-2.4854,-2.4898,-2.5102,0.0,0.0,0.0,0.0,0.0,0.0,0.0,0.0,0.0,0.0,0.0,0.0,0.0,0.0,-2.5114,-2.5811,-2.6122,-2.6298,-2.6266,0.0,0.0,0.0,0.0,0.0,0.0,0.0,0.0,0.0,0.0,0.0,0.0,0.0,0.0,-1.4121,-1.401,-1.4219,0.0,0.0,0.0,0.0,0.0,0.0,0.0,0.0,-1.571,-1.6043,-1.6368,-1.6469,-1.6616,0.0,-1.6679,-1.6321,0.0,0.0,0.0,0.0,0.0,0.0,0.0,0.0,-1.8008,-1.8008,-1.8008,-1.8008,-1.8008,-1.8008,-1.8008,-1.8008,-1.8008,-1.7881,-1.7607,-1.7334,-1.7145,0.0,0.0,0.0,0.0,0.0,0.0,0.0,0.0,0.0,0.0,0.0,0.0,0.0,0.0,0.0,0.0,0.0,0.0,0.0,0.0,0.0,0.0,0.0,-1.9082,0.0,0.0,0.0,0.0,0.0,0.0,0.0,0.0,0.0,-2.3201,-2.3317,-2.374,-2.4742,-2.4636,-2.4433,-2.4404,0.0,0.0,0.0,0.0,0.0,0.0,0.0,-2.4488,-2.4096,-2.4211,-2.4475,-2.4888,-2.5222,-2.5509,-2.578,0.0,0.0,-2.622,-2.6559,-2.6726,-2.6497,-2.7057,-2.7446,-2.691,-2.7501,-2.8115,0.0,0.0,0.0,0.0,0.0,0.0,0.0,0.0,-1.4563,-1.4384,0.0,-1.4453,0.0,0.0,0.0,0.0,-1.55,-1.5638,0.0,0.0,-1.6548,-1.6844,-1.7104,-1.6738,-1.6864,-1.7363,-1.6854,-1.6628,-1.6755,-1.7187,0.0,0.0,0.0,0.0,0.0,0.0,-1.8008,-1.8008,-1.8008,-1.8008,-1.8008,-1.8008,-1.8008,-1.8008,-1.8008,-1.8008,-1.8008,-1.7988,-1.7998,-1.7988,-1.7194,0.0,0.0,0.0,0.0,0.0,0.0,0.0,0.0,0.0,0.0,0.0,0.0,0.0,0.0,0.0,0.0,0.0,0.0,0.0,0.0,-1.9208,0.0,0.0,0.0,0.0,0.0,0.0,0.0,0.0,0.0,0.0,-2.3052,-2.3977,-2.4683,-2.4859,0.0,0.0,0.0,0.0,-2.4293,-2.2649,-2.3368,-2.4143,-2.4182,-2.5351,-2.6275,-2.6553,0.0,0.0,-2.6628,-2.5968,-2.5741,-2.6473,-2.6617,-2.6617,-2.6626,-2.6656,-2.6768,-2.7027,-2.7048,-2.6805,-2.6557,-2.7199,-2.7632,-1.5632,0.0,0.0,0.0,0.0,-1.5296,-1.5444,-1.5707,-1.5738,-1.5685,-1.5582,-1.581,0.0,0.0,0.0,0.0,0.0,0.0,-1.6321,-1.6833,-1.695,-1.7238,-1.7745,-1.7628,-1.7638,-1.7822,-1.7672,-1.7613,-1.7623,-1.7764,-1.7519,-1.6911,0.0,0.0,0.0,0.0,-1.8008,-1.8008,-1.8008,-1.8008,-1.8008,-1.8008,-1.8008,-1.8008,-1.8008,-1.8008,-1.8008,-1.8008,-1.8008,-1.7998,-1.7773,0.0,0.0,0.0,0.0,0.0,0.0,0.0,0.0,0.0,0.0,0.0,0.0,0.0,0.0,0.0,0.0,0.0,0.0,0.0,-1.9208,-1.9302,-1.9303,0.0,0.0,0.0,0.0,0.0,0.0,0.0,0.0,0.0,-2.3446,-2.3149,-2.3306,0.0,0.0,-2.4154,-2.3953,-2.433,-2.4671,-2.4753,-2.471,0.0,-2.5519,-2.5429,-2.5346,-2.555,-2.6164,-2.6599,-2.648,-2.6738,-2.7041,-2.7285,-2.7315,-2.7315,-2.7315,-2.7315,-2.734,-2.7464,-2.7744,-2.8138,-2.8476,-2.8995,-2.9563,-1.6691,-1.6651,-1.6362,-1.6124,-1.5955,-1.5955,-1.6147,-1.6402,-1.6392,-1.6319,-1.6224,-1.6465,-1.6402,-1.6155,-1.6356,0.0,0.0,0.0,-1.6968,-1.745,-1.7441,-1.7653,-1.7998,-1.8008,-1.8008,-1.8008,-1.8008,-1.8008,-1.8008,-1.8008,-1.772,-1.7223,0.0,0.0,-1.7637,-1.7891,-1.8008,-1.8008,-1.8008,-1.8008,-1.8008,-1.8008,-1.8008,-1.8008,-1.8008,-1.8008,-1.8008,-1.8008,-1.8008,-1.8008,-1.7852,-1.7529,0.0,0.0,0.0,0.0,0.0,0.0,0.0,0.0,0.0,0.0,0.0,-1.8706,-1.8744,0.0,0.0,0.0,-1.9249,-1.9287,-1.9275,-1.9302,0.0,0.0,0.0,0.0,0.0,0.0,0.0,-2.1264,-2.2168,-2.29,-2.3052,-2.2589,-2.283,-2.4411,-2.4544,-2.4484,-2.4408,0.0,-2.5245,-2.5425,-2.5363,-2.5442,-2.5956,-2.5902,-2.5864,-2.6076,-2.651,-2.6862,-2.6877,-2.728,-2.7585,-2.7585,-2.7585,-2.7585,-2.7585,-2.7585,-2.7585,-2.7585,-2.787,-2.8247,-2.8638,-2.9361,-3.0059,-1.7666,-1.7872,-1.6548,-1.6122,-1.6319,-1.636,-1.653,-1.6794,-1.6804,-1.6635,-1.6392,-1.6667,-1.6653,-1.6449,-1.6837,0.0,-1.7539,-1.7539,-1.7701,-1.8008,-1.8008,-1.8008,-1.8008,-1.8008,-1.8008,-1.8008,-1.8008,-1.8008,-1.8008,-1.8008,-1.8008,-1.8008,-1.8008,-1.8008,-1.8008,-1.8008,-1.8008,-1.8008,-1.8008,-1.8008,-1.8008,-1.8008,-1.8008,-1.8008,-1.8008,-1.8008,-1.8008,-1.8008,-1.8008,-1.7998,-1.7637,-1.7422,-1.7373,0.0,0.0,0.0,0.0,0.0,0.0,0.0,0.0,0.0,0.0,0.0,0.0,0.0,0.0,0.0,-1.933,0.0,-1.942,-1.9302,0.0,0.0,0.0,-2.0083,-2.0266,-2.0813,-2.1328,-2.1655,0.0,0.0,-2.2286,-2.2441,-2.308,-2.482,-2.5589,-2.5744,-2.4978,-2.5587,-2.5908,-2.5168,-2.5577,-2.5966,-2.6115,-2.6663,-2.7176,-2.7405,-2.7585,-2.757,-2.7555,-2.757,-2.7585,-2.7585,-2.7585,-2.7585,-2.7585,-2.7585,-2.7585,-2.7585,-2.761,-2.765,-2.782,-2.8599,-2.9384,-1.792,-1.7964,-1.7625,-1.7538,-1.7561,-1.7561,-1.7605,-1.7705,-1.7695,-1.7638,-1.7595,-1.7638,-1.7663,-1.7615,-1.7687,-1.7803,-1.7872,-1.7872,-1.794,-1.8008,-1.8008,-1.8008,-1.8008,-1.8008,-1.8008,-1.8008,-1.8008,-1.8008,-1.8008,-1.8008,-1.8008,-1.8008,-1.8008,-1.8008,-1.8008,-1.8008,-1.8008,-1.8008,-1.8008,-1.8008,-1.8008,-1.8008,-1.8008,-1.8008,-1.8008,-1.8008,-1.8008,-1.8008,-1.8008,-1.8008,-1.791,-1.7715,-1.7402,-1.7285,0.0,0.0,0.0,0.0,0.0,0.0,0.0,0.0,0.0,-1.8278,-1.8437,0.0,-1.8839,0.0,-1.9356,-1.9539,-1.9577,-1.9539,0.0,0.0,-2.0091,-2.0336,-2.0822,-2.1453,-2.1857,-2.1844,-2.2351,-2.2689,-2.2749,-2.3379,-2.3995,-2.4438,-2.4426,-2.4414,-2.4571,-2.546,-2.6064,-2.5921,-2.6539,-2.7144,-2.7144,-2.7329,-2.7524,-2.7585,-2.7585,-2.7585,-2.7585,-2.7585,-2.7585,-2.7585,-2.7585,-2.7585,-2.7585,-2.7585,-2.7585,-2.7585,-2.7585,-2.7735,-2.8174,-2.8535,-2.8989,-1.8008,-1.8008,-1.8008,-1.8008,-1.8008,-1.8008,-1.8008,-1.8008,-1.8008,-1.8008,-1.8008,-1.8008,-1.8008,-1.8008,-1.8008,-1.8008,-1.8008,-1.8008,-1.8008,-1.8008,-1.8008,-1.8008,-1.8008,-1.8008,-1.8008,-1.8008,-1.8008,-1.8008,-1.8008,-1.8008,-1.8008,-1.8008,-1.8008,-1.8008,-1.8008,-1.8008,-1.8008,-1.8008,-1.8008,-1.8008,-1.8008,-1.8008,-1.8008,-1.8008,-1.793,-1.793,-1.8008,-1.793,-1.7896,-1.8008,-1.8008,-1.79,-1.7676,-1.7666,-1.7578,0.0,0.0,0.0,0.0,0.0,0.0,0.0,0.0,0.0,0.0,0.0,-1.8946,-1.9093,-1.9656,-1.9963,-1.9871,-2.0106,-2.0378,-2.0646,-2.0893,-2.1193,-2.1576,-2.2185,-2.2508,-2.2432,-2.283,-2.309,-2.3017,-2.3424,-2.3767,-2.3767,-2.3619,-2.3842,-2.4781,-2.5715,-2.6283,-2.631,-2.7034,-2.7585,-2.7585,-2.7585,-2.7585,-2.7585,-2.7585,-2.7585,-2.7585,-2.7585,-2.7585,-2.7585,-2.7585,-2.7585,-2.7585,-2.7585,-2.7585,-2.7585,-2.7585,-2.771,-2.8002,-2.831,-2.8756,-1.8008,-1.8008,-1.8008,-1.8008,-1.8008,-1.8008,-1.8008,-1.8008,-1.8008,-1.8008,-1.8008,-1.8008,-1.8008,-1.8008,-1.8008,-1.8008,-1.8008,-1.8008,-1.8008,-1.8008,-1.8008,-1.8008,-1.8008,-1.8008,-1.8008,-1.8008,-1.8008,-1.8008,-1.8008,-1.8008,-1.8008,-1.8008,-1.8008,-1.8008,-1.8008,-1.8008,-1.8008,-1.7974,-1.7974,-1.7974,-1.7974,-1.794,-1.794,-1.794,-1.7759,-1.775,-1.794,-1.7784,-1.7784,-1.7974,-1.8008,-1.8008,-1.8008,-1.8008,-1.7852,0.0,-1.7471,0.0,0.0,0.0,0.0,0.0,0.0,0.0,0.0,-1.9164,-1.9298,-1.9434,-2.0128,-2.0533,-2.0385,-2.0869,-2.1234,-2.1421,-2.1832,-2.2201,-2.2393,-2.2819,-2.3095,-2.3095,-2.3095,-2.3095,-2.3108,-2.3095,-2.3095,-2.3155,-2.3168,-2.359,-2.4809,-2.5618,-2.6068,-2.6229,-2.693,-2.7408,-2.756,-2.7585,-2.7585,-2.7585,-2.7585,-2.7585,-2.7585,-2.7585,-2.7585,-2.7585,-2.7585,-2.7585,-2.7585,-2.7585,-2.7585,-2.7585,-2.7585,-2.7585,-2.766,-2.7993,-2.8367,-1.8008,-1.8008,-1.8008,-1.8008,-1.8008,-1.8008,-1.8008,-1.8008,-1.8008,-1.8008,-1.8008,-1.8008,-1.8008,-1.8008,-1.8008,-1.8008,-1.8008,-1.8008,-1.8008,-1.8008,-1.8008,-1.8008,-1.8008,-1.8008,-1.8008,-1.8008,-1.8008,-1.8008,-1.8008,-1.8008,-1.8008,-1.8008,-1.8008,-1.8008,-1.8008,0.0,0.0,0.0,-1.775,-1.775,-1.774,-1.7666,-1.7608,-1.7608,-1.7564,0.0,-1.775,-1.774,-1.7818,-1.8008,-1.8008,0.0,0.0,0.0,0.0,0.0,0.0,0.0,0.0,0.0,0.0,0.0,-1.7655,-1.7993,-1.9228,-2.0075,-2.0596,-2.0711,-2.1002,-2.1176,-2.1247,-2.1375,-2.1625,-2.2051,-2.2201,-2.2456,-2.2882,-2.3045,-2.3095,-2.3095,-2.3095,-2.3095,-2.3095,-2.3095,-2.3095,-2.3095,-2.3095,-2.3215,-2.3531,-2.4308,-2.4724,-2.4823,-2.5919,-2.6904,-2.7509,-2.7534,-2.7509,-2.7585,-2.7585,-2.7585,-2.7585,-2.7585,-2.7585,-2.7585,-2.7585,-2.7585,-2.7585,-2.7585,-2.7585,-2.7585,-2.7585,-2.7585,-2.7585,-2.7685,-2.791,-1.8286,-1.8266,-1.8061,-1.8008,0.0,-1.8008,-1.8008,-1.8008,-1.8008,-1.8008,-1.8008,-1.8008,-1.8008,-1.8008,-1.8008,-1.8008,-1.8008,-1.8008,-1.8008,-1.8008,-1.8008,-1.8008,-1.8008,-1.8008,-1.8008,-1.8008,-1.8008,-1.8008,-1.8008,-1.8008,-1.8008,-1.8008,-1.8008,-1.8008,-1.8008,-1.8008,-1.794,-1.7818,-1.7862,-1.7862,-1.7862,-1.7803,-1.7735,-1.7735,-1.7657,0.0,0.0,0.0,0.0,0.0,0.0,0.0,0.0,-1.8008,0.0,-1.8008,-1.8008,-1.8012,-1.7985,-1.7819,-1.7797,-1.8015,-1.8211,-1.8689,-1.9536,-2.0579,-2.1241,-2.1297,-2.159,-2.1822,-2.1907,-2.2133,-2.2393,-2.2656,-2.2681,-2.2819,-2.3045,-2.3095,-2.3095,-2.3095,-2.3095,-2.3095,-2.3095,-2.3095,-2.3095,-2.3095,-2.3095,-2.3095,-2.3168,-2.3767,-2.4408,-2.4794,-2.537,-2.6054,-2.6455,-2.6864,-2.7034,-2.7086,-2.7357,-2.756,-2.7585,-2.7585,-2.7585,-2.7585,-2.7585,-2.7585,-2.7585,-2.7585,-2.7585,-2.7585,-2.7585,-2.7585,-2.7585,-2.7585,-2.766,-1.8715,-1.8685,-1.8379,-1.8232,-1.8232,-1.8154,-1.8042,-1.8008,-1.8008,0.0,0.0,-1.8008,-1.8008,-1.8008,-1.8008,-1.8008,-1.8008,-1.8008,-1.8008,-1.8008,-1.8008,-1.8008,-1.8008,-1.8008,-1.8008,-1.8008,-1.8008,-1.8008,-1.8008,-1.8008,-1.8008,-1.8008,-1.8008,-1.8008,-1.8008,-1.8008,-1.8008,-1.8008,-1.794,-1.794,-1.7974,-1.794,-1.7906,-1.7915,-1.7759,-1.775,-1.793,-1.7784,-1.7784,-1.7974,-1.8008,-1.8008,-1.8008,-1.8008,-1.8008,-1.8008,-1.8008,-1.8008,-1.8008,-1.8008,-1.8008,-1.8008,-1.8821,-1.949,-1.9895,-2.0931,-2.164,-2.1754,-2.2167,-2.2431,-2.2431,-2.2832,-2.3095,-2.3095,-2.3095,-2.3095,-2.3095,-2.3095,-2.3095,-2.3095,-2.3095,-2.3095,-2.3095,-2.3095,-2.3095,-2.3095,-2.3095,-2.3095,-2.3185,-2.3632,-2.4292,-2.4922,-2.5147,-2.5273,-2.5495,-2.5906,-2.6283,-2.6336,-2.6785,-2.7214,-2.7367,-2.7408,-2.7458,-2.7585,-2.7585,-2.7585,-2.7585,-2.7585,-2.7585,-2.7585,-2.7585,-2.7585,-2.7585,-2.7585,-2.7585,-1.9189,-1.918,-1.9131,-1.9111,-1.9082,-1.8676,-1.8315,-1.8018,-1.8008,-1.8008,-1.8008,-1.8008,-1.8008,-1.8008,-1.8008,-1.8008,-1.8008,-1.8008,-1.8008,-1.8008,-1.8008,-1.8008,-1.8008,-1.8008,-1.8008,-1.8008,-1.8008,-1.8008,-1.8008,-1.8008,-1.8008,-1.8008,-1.8008,-1.8008,-1.8008,-1.8008,-1.8008,-1.8008,-1.7818,-1.774,-1.774,-1.7632,-1.7573,-1.7573,-1.7564,-1.7598,-1.775,-1.774,-1.7784,-1.7974,-1.8008,-1.8008,-1.8008,-1.8008,-1.8008,-1.8008,-1.8008,-1.8008,-1.8008,-1.8008,-1.8008,-1.8042,-1.8821,-1.9619,-2.0432,-2.13,-2.2122,-2.278,-2.283,-2.2995,-2.2995,-2.2997,-2.3035,-2.3065,-2.3095,-2.3095,-2.3095,-2.3095,-2.3095,-2.3095,-2.3095,-2.3095,-2.3095,-2.3095,-2.3095,-2.3095,-2.3095,-2.3095,-2.3138,-2.3198,-2.3603,-2.4234,-2.4465,-2.4709,-2.5091,-2.5467,-2.5577,-2.5577,-2.5673,-2.6081,-2.6654,-2.6747,-2.6956,-2.7499,-2.7585,-2.7585,-2.7585,-2.7585,-2.7585,-2.7585,-2.7585,-2.7585,-2.7585,-2.7585,-2.7585,-1.9629,-1.96,-1.9385,-1.9277,-1.9268,-1.9072,-1.8877,-1.8711,-1.8701,-1.8437,-1.8027,-1.8008,-1.8008,-1.8008,-1.8008,-1.8008,-1.8008,-1.8008,-1.8008,-1.8008,-1.8008,-1.8008,-1.8008,-1.8008,-1.8008,-1.8008,-1.8008,-1.8008,-1.8008,-1.8008,-1.8008,-1.8008,-1.8008,-1.8008,-1.8008,-1.8008,-1.8008,-1.8008,-1.7896,-1.7862,-1.7862,-1.7803,-1.7769,-1.7769,-1.7779,-1.7803,-1.7852,-1.7862,-1.7896,-1.8008,-1.8008,-1.8008,-1.8008,-1.8008,-1.8008,-1.8008,-1.8008,-1.8008,-1.8008,-1.8008,-1.8008,-1.8008,-1.8361,-1.8988,-1.9814,-2.0698,-2.1322,-2.1698,-2.1741,-2.176,-2.1772,-2.2156,-2.2445,-2.2445,-2.2823,-2.3095,-2.3095,-2.3095,-2.3095,-2.3095,-2.3095,-2.3095,-2.3095,-2.3095,-2.3095,-2.3095,-2.3095,-2.3095,-2.3095,-2.3095,-2.3215,-2.3573,-2.3662,-2.3754,-2.4121,-2.4553,-2.4766,-2.4809,-2.5147,-2.5646,-2.6336,-2.6469,-2.68,-2.7408,-2.7585,-2.7585,-2.7585,-2.7585,-2.7585,-2.7585,-2.7585,-2.7585,-2.7585,-2.7585,-2.7585,-2.0059,-2.0029,-1.9707,-1.9521,-1.9434,-1.9424,-1.9385,-1.9287,-1.9277,-1.8916,-1.835,-1.8301,-1.8291,-1.8291,-1.8291,-1.8301,-1.8291,-1.8301,-1.8252,-1.8164,-1.812,-1.8105,-1.8018,-1.8008,-1.8008,-1.8008,-1.8008,-1.8008,-1.8008,-1.8008,-1.8008,-1.8008,-1.8008,-1.8008,-1.8008,-1.8008,-1.8008,-1.8008,-1.8008,-1.8008,-1.8008,-1.8008,-1.8008,-1.8008,-1.8008,-1.8008,-1.8008,-1.8008,-1.8008,-1.8008,-1.8008,-1.8008,-1.8008,-1.8008,-1.8008,-1.8008,-1.8008,-1.8008,-1.8008,-1.8008,-1.8008,-1.8008,-1.8008,-1.8303,-1.8944,-1.9617,-2.0204,-2.0526,-2.0687,-2.0655,-2.0751,-2.1207,-2.1596,-2.1647,-2.2156,-2.2537,-2.2781,-2.2836,-2.2944,-2.3035,-2.3095,-2.3095,-2.3095,-2.3095,-2.3095,-2.3095,-2.3095,-2.3095,-2.3095,-2.3095,-2.3095,-2.3095,-2.3095,-2.3155,-2.3138,-2.3603,-2.3972,-2.4031,-2.4452,-2.5007,-2.5646,-2.6068,-2.6522,-2.7111,-2.7484,-2.756,-2.7585,-2.7585,-2.7585,-2.7585,-2.7585,-2.7585,-2.7585,-2.7585,-2.7585,-2.0537,-2.0537,-2.0468,-2.0253,-1.9873,-1.9853,-1.9658,-1.9346,-1.9287,-1.9294,-1.918,-1.9206,-1.916,-1.917,-1.9141,-1.9121,-1.9131,-1.916,-1.8945,-1.8568,-1.8539,-1.8344,-1.8066,-1.8027,-1.8008,-1.8018,-1.8018,-1.8008,-1.8008,-1.8008,-1.8008,-1.8008,-1.8008,-1.8008,-1.8008,-1.8008,-1.8008,-1.8008,-1.8008,-1.8008,-1.8008,-1.8008,-1.8008,-1.8008,-1.8008,-1.8008,-1.8008,-1.8008,-1.8008,-1.8008,-1.8008,-1.8008,-1.8008,-1.8008,-1.8008,-1.8008,-1.8008,-1.8008,-1.8008,-1.8008,-1.8008,-1.8008,-1.8008,-1.8042,-1.8168,-1.8236,-1.8944,-2.0107,-2.0558,-2.0462,-2.059,-2.0655,-2.0719,-2.0719,-2.0878,-2.1132,-2.1846,-2.2013,-2.2292,-2.3047,-2.3005,-2.3095,-2.3108,-2.3095,-2.3095,-2.3095,-2.3095,-2.3095,-2.3095,-2.3095,-2.3095,-2.3095,-2.3095,-2.3095,-2.3125,-2.3125,-2.3335,-2.3305,-2.3305,-2.3842,-2.4553,-2.5217,-2.5728,-2.6428,-2.7034,-2.7342,-2.7433,-2.7585,-2.7499,-2.7291,-2.7382,-2.7575,-2.76,-2.7585,-2.7585,-2.0615,-2.0615,-2.0615,-2.0507,-2.0312,-2.0331,-2.0243,-2.0087,-2.0077,-2.0077,-2.0077,-2.0087,-1.9803,-1.9287,-1.9277,-1.9277,-1.9277,-1.9277,-1.9199,-1.9033,-1.9023,-1.8936,-1.876,-1.8496,-1.8344,-1.8315,-1.8135,-1.8008,-1.8008,-1.8008,-1.8008,-1.8008,-1.8008,-1.8008,-1.8008,-1.8008,-1.8008,-1.8008,-1.8008,-1.8008,-1.8008,-1.8008,-1.8008,-1.8008,-1.8008,-1.8008,-1.8008,-1.8008,-1.8008,-1.8008,-1.8008,-1.8008,-1.8008,-1.8008,-1.8008,-1.8008,-1.8008,-1.8008,-1.8008,-1.8008,-1.8008,-1.8008,-1.8008,-1.8008,-1.8008,-1.8008,-1.8337,-1.8877,-1.9077,-1.9077,-1.9144,-1.9529,-1.9814,-1.9911,-2.0257,-2.0751,-2.1069,-2.1132,-2.1459,-2.2218,-2.2384,-2.2598,-2.2975,-2.3095,-2.3095,-2.3095,-2.3095,-2.3095,-2.3095,-2.3095,-2.3095,-2.3095,-2.3095,-2.3095,-2.3095,-2.3095,-2.3095,-2.3095,-2.3095,-2.3395,-2.4089,-2.4465,-2.4992,-2.5728,-2.6162,-2.6375,-2.6242,-2.6295,-2.6295,-2.6402,-2.6785,-2.706,-2.7484,-2.7585,-2.7585,-2.0615,-2.0615,-2.0615,-2.0615,-2.0615,-2.0615,-2.0615,-2.0615,-2.0615,-2.0615,-2.0615,-2.0615,-2.0273,-1.9697,-1.9666,-1.9676,-1.9639,-1.9639,-1.957,-1.9473,-1.9463,-1.9394,-1.9294,-1.8939,-1.8783,-1.8715,-1.8389,-1.8125,-1.8027,-1.8008,-1.8008,-1.8008,-1.8008,-1.8008,-1.8008,-1.8008,-1.8008,-1.8008,-1.8008,-1.8008,-1.7974,-1.775,-1.7759,-1.7974,-1.8008,-1.8008,-1.8008,-1.8008,-1.8008,-1.8008,-1.8008,-1.8008,-1.8008,-1.8008,-1.8008,-1.8008,-1.8008,-1.8008,-1.8008,-1.8008,-1.8008,-1.8008,-1.8008,-1.8008,-1.8008,-1.8008,-1.8008,-1.8042,-1.8008,-1.8076,-1.8076,-1.8563,-1.8911,-1.8977,-1.9562,-1.9955,-2.0215,-2.0236,-2.059,-2.1365,-2.1553,-2.1834,-2.2567,-2.2957,-2.3095,-2.3095,-2.3095,-2.3095,-2.3095,-2.3095,-2.3095,-2.3095,-2.3095,-2.3095,-2.3095,-2.3095,-2.3095,-2.3095,-2.3095,-2.3275,-2.3914,-2.406,-2.435,-2.5063,-2.5203,-2.5453,-2.5673,-2.5563,-2.5398,-2.5508,-2.5837,-2.6336,-2.6707,-2.6941,-2.7071,-2.0615,-2.0615,-2.0615,-2.0615,-2.0615,-2.0615,-2.0615,-2.0615,-2.0615,-2.0615,-2.0615,-2.0615,-2.0576,-2.0498,-2.0468,-2.0527,-2.0517,-2.0478,-2.0234,-1.9912,-1.9893,-1.9678,-1.9297,-1.9258,-1.9258,-1.9228,-1.8828,-1.8418,-1.8057,-1.8027,-1.8008,-1.8008,-1.8008,-1.8008,-1.793,-1.7906,-1.7974,-1.7794,-1.7794,-1.7906,-1.7828,-1.707,-1.707,-1.7759,-1.794,-1.7862,-1.794,-1.7974,-1.7974,-1.7974,-1.793,-1.7974,-1.8008,-1.8008,-1.8008,-1.8008,-1.8008,-1.8008,-1.8008,-1.8008,-1.8008,-1.8008,-1.8008,-1.8008,-1.8008,-1.8008,-1.8008,-1.8008,-1.8008,-1.8008,-1.8008,-1.8144,-1.8168,-1.8168,-1.8168,-1.8586,-1.9266,-1.9365,-1.9759,-2.0473,-2.0751,-2.1175,-2.1896,-2.2628,-2.2975,-2.3065,-2.3095,-2.3095,-2.3095,-2.3095,-2.3095,-2.3095,-2.3095,-2.3095,-2.3095,-2.3095,-2.3095,-2.3095,-2.3095,-2.3125,-2.3395,-2.3691,-2.406,-2.4423,-2.4724,-2.5035,-2.5287,-2.5342,-2.5231,-2.5231,-2.5259,-2.5618,-2.5986,-2.5632,-2.5823,-2.0615,-2.0615,-2.0615,-2.0615,-2.0615,-2.0615,-2.0615,-2.0615,-2.0615,-2.0615,-2.0615,-2.0615,-2.0615,-2.0615,-2.0615,-2.0615,-2.0615,-2.0615,-2.0517,-2.0332,-2.0332,-2.0244,-2.0136,-1.9777,-1.9594,-1.9639,-1.9416,-1.8984,-1.8422,-1.8373,-1.8237,-1.8047,-1.8008,-1.7716,-1.7207,-1.7104,-1.6828,-1.6263,-1.6228,-1.6193,-1.6263,-1.5869,-1.5869,-1.6158,-1.6237,-1.6515,-1.7104,-1.6541,-1.6472,-1.707,-1.7104,-1.7389,-1.7906,-1.8008,-1.8008,-1.8008,-1.8008,-1.8008,-1.8008,-1.8008,-1.8008,-1.8008,-1.8008,-1.8008,-1.8008,-1.8008,-1.8008,-1.8008,-1.8008,-1.8008,-1.8008,-1.8008,-1.8008,-1.8008,-1.8008,-1.811,-1.8371,-1.8496,-1.8787,-1.9628,-2.0236,-2.0942,-2.1585,-2.2168,-2.2506,-2.3005,-2.3095,-2.3035,-2.3078,-2.3095,-2.3005,-2.3065,-2.3095,-2.3095,-2.3095,-2.3095,-2.3095,-2.3095,-2.3095,-2.3095,-2.3275,-2.3305,-2.3619,-2.3679,-2.4076,-2.415,-2.4237,-2.4237,-2.4295,-2.4639,-2.4667,-2.4866,-2.5315,-2.505,-2.5287,-2.0615,-2.0615,-2.0615,-2.0615,-2.0615,-2.0615,-2.0615,-2.0615,-2.0615,-2.0615,-2.0615,-2.0615,-2.0615,-2.0527,-2.0235,-2.0089,-2.0089,-2.0089,-2.0089,-2.004,-1.9717,-1.9511,-1.9513,-1.9377,-1.9198,-1.9037,-1.8835,-1.8544,-1.832,-1.8159,-1.795,-1.7729,-1.7621,-1.707,-1.6324,-1.6149,-1.579,-1.5305,-1.5199,-1.5199,-1.5163,-1.4879,-1.4922,-1.5057,-1.4593,-1.4871,-1.607,-1.5834,-1.5895,-1.6532,-1.6888,-1.7217,-1.7535,-1.7545,-1.7545,-1.7569,-1.7828,-1.8008,-1.8008,-1.8008,-1.8008,-1.8008,-1.8008,-1.8008,-1.8008,-1.8008,-1.8008,-1.8008,-1.8008,-1.8008,-1.8008,-1.8008,-1.8008,-1.8008,-1.8008,-1.8008,-1.8008,-1.8008,-1.8303,-1.8844,-1.9628,-2.0365,-2.0942,-2.1302,-2.1678,-2.2267,-2.2298,-2.231,-2.2279,-2.231,-2.231,-2.2279,-2.2175,-2.231,-2.2476,-2.2567,-2.2884,-2.2944,-2.3095,-2.3095,-2.3095,-2.3095,-2.3095,-2.3095,-2.3095,-2.3095,-2.3095,-2.3095,-2.3382,-2.3842,-2.3901,-2.4018,-2.4295,-2.4525,-2.4696,-2.0527,-2.0527,-2.0566,-2.0527,-2.0566,-2.0615,-2.0605,-2.0479,-2.0566,-2.0479,-2.0196,-2.045,-2.0362,-2.0245,-1.9362,-1.8997,-1.8957,-1.8877,-1.8868,-1.8868,-1.798,-1.7585,-1.7617,-1.8103,-1.8006,-1.747,-1.7025,-1.7141,-1.7635,-1.7322,-1.7153,-1.7108,-1.6783,-1.6158,-1.5199,-1.5199,-1.5128,-1.495,-1.4879,-1.4985,-1.5057,-1.4135,-1.4099,-1.47,-1.3411,-1.3339,-1.5048,-1.5825,-1.614,-1.6454,-1.7182,-1.7423,-1.6671,-1.6602,-1.6593,-1.6715,-1.7398,-1.7862,-1.794,-1.7896,-1.7862,-1.8008,-1.8008,-1.8008,-1.8008,-1.8008,-1.8008,-1.8008,-1.8008,-1.8008,-1.8008,-1.8008,-1.8008,-1.8008,-1.8008,-1.8008,-1.8008,-1.8008,-1.8008,-1.8202,-1.8821,-1.9266,-1.9529,-2.0107,-2.0687,-2.0878,-2.091,-2.0942,-2.1005,-2.1037,-2.0751,-2.0782,-2.1037,-2.1396,-2.1678,-2.1939,-2.2414,-2.2793,-2.3005,-2.3095,-2.3095,-2.3095,-2.3095,-2.3095,-2.3095,-2.3095,-2.3095,-2.3095,-2.3095,-2.3382,-2.3275,-2.3335,-2.356,-2.3813,-2.3872,-1.9481,-1.949,-1.9481,-1.9971,-2.0566,-2.0615,-2.0196,-1.9638,-2.0245,-1.9756,-1.8669,-1.9155,-1.9076,-1.839,-1.794,-1.7819,-1.7779,-1.7131,-1.7131,-1.7617,-1.7423,-1.722,-1.7196,-1.7,-1.6766,-1.6651,-1.6944,-1.705,-1.6968,-1.6838,-1.6598,-1.617,-1.5992,-1.5286,-1.4258,-1.4171,-1.3918,-1.3266,-1.32,-1.32,-1.32,-1.2915,-1.2915,-1.3091,-1.2592,-1.2666,-1.3164,-1.3477,-1.3975,-1.4593,-1.4879,-1.5199,-1.5552,-1.5658,-1.5623,-1.5658,-1.5869,-1.6402,-1.6957,-1.707,-1.732,-1.7828,-1.8008,-1.8008,-1.8008,-1.8008,-1.8008,-1.8008,-1.8008,-1.8008,-1.8008,-1.8008,-1.8008,-1.8008,-1.8008,-1.8008,-1.8008,-1.8008,-1.8008,-1.8008,-1.8236,-1.863,-1.9144,-1.9661,-1.9879,-2.0398,-2.0494,-2.0494,-2.0515,-2.0398,-2.0623,-2.0623,-2.0655,-2.0505,-2.0814,-2.1101,-2.1459,-2.2125,-2.2567,-2.3005,-2.3065,-2.3095,-2.3095,-2.3095,-2.3095,-2.3095,-2.3095,-2.3095,-2.3095,-2.3095,-2.3155,-2.3155,-2.3125,-2.3215,-2.3424,-1.9006,-1.9036,-1.9441,-1.9726,-2.001,-2.001,-1.9392,-1.855,-1.9076,-1.855,-1.7658,-1.802,-1.7989,-1.7342,-1.6887,-1.6723,-1.6601,-1.5587,-1.547,-1.6041,-1.6124,-1.6124,-1.6067,-1.5651,-1.5438,-1.5482,-1.5876,-1.6205,-1.6309,-1.6158,-1.5889,-1.5508,-1.5207,-1.4505,-1.3446,-1.3221,-1.2842,-1.2378,-1.2342,-1.2305,-1.2305,-1.2305,-1.2305,-1.2305,-1.2305,-1.2305,-1.2305,-1.2305,-1.2732,-1.3491,-1.3709,-1.4027,-1.4593,-1.4665,-1.4637,-1.4708,-1.5021,-1.5517,-1.6009,-1.6079,-1.6463,-1.7285,-1.7501,-1.7681,-1.7872,-1.8008,-1.8008,-1.8008,-1.8008,-1.8008,-1.8008,-1.8008,-1.8008,-1.8008,-1.8008,-1.8008,-1.8008,-1.8008,-1.8008,-1.8008,-1.8042,-1.8303,-1.863,-1.8854,-1.9011,-1.9529,-1.9628,-1.9628,-1.9617,-1.9584,-1.965,-1.9683,-1.9464,-1.9562,-2.0009,-2.0268,-2.0494,-2.1259,-2.2021,-2.2598,-2.2975,-2.3065,-2.3095,-2.3095,-2.3095,-2.3095,-2.3095,-2.3095,-2.3095,-2.3095,-2.3095,-2.3095,-2.3095,-2.3095,-2.3245,-1.8917,-1.9125,-2.0001,-1.9766,-1.9076,-1.8957,-1.827,-1.7342,-1.7415,-1.7293,-1.705,-1.7098,-1.709,-1.6846,-1.5951,-1.5628,-1.5462,-1.4734,-1.4286,-1.437,-1.437,-1.4412,-1.4447,-1.4384,-1.4349,-1.4334,-1.4334,-1.4768,-1.5513,-1.5257,-1.512,-1.5051,-1.4429,-1.3733,-1.3,-1.2482,-1.2378,-1.2305,-1.2305,-1.2305,-1.2305,-1.2305,-1.2305,-1.2305,-1.2305,-1.2305,-1.2305,-1.2305,-1.2703,-1.3491,-1.3491,-1.3528,-1.36,-1.36,-1.3637,-1.3673,-1.4522,-1.4879,-1.5048,-1.5128,-1.5544,-1.6393,-1.6567,-1.6922,-1.7613,-1.7759,-1.7837,-1.7974,-1.8008,-1.8008,-1.8008,-1.8008,-1.8008,-1.8008,-1.8008,-1.8008,-1.8008,-1.8008,-1.8008,-1.8008,-1.8008,-1.8042,-1.811,-1.811,-1.8134,-1.8202,-1.8269,-1.8371,-1.8337,-1.8462,-1.8168,-1.8236,-1.8529,-1.8721,-1.9166,-1.9266,-1.9529,-2.029,-2.1057,-2.1604,-2.2279,-2.2463,-2.2494,-2.2586,-2.275,-2.2841,-2.2944,-2.2823,-2.2944,-2.3065,-2.3095,-2.3095,-2.3095,-2.3095,-2.3095,-1.823,-1.8917,-1.8381,-1.851,-1.8798,-1.8149,-1.7131,-1.6314,-1.6968,-1.6322,-1.5436,-1.5786,-1.5703,-1.4985,-1.4741,-1.4531,-1.4489,-1.425,-1.4088,-1.4088,-1.4088,-1.4088,-1.4088,-1.4088,-1.4088,-1.4088,-1.4088,-1.425,-1.4489,-1.4476,-1.4289,-1.4028,-1.3736,-1.3301,-1.2784,-1.2458,-1.2318,-1.2305,-1.2305,-1.2305,-1.2305,-1.2305,-1.2305,-1.2305,-1.2305,-1.2305,-1.2305,-1.2305,-1.2372,-1.2629,-1.2659,-1.2659,-1.2732,-1.2739,-1.2732,-1.2806,-1.2945,-1.3419,-1.3954,-1.4099,-1.4557,-1.5438,-1.5552,-1.5965,-1.6888,-1.6975,-1.7304,-1.7759,-1.8008,-1.793,-1.7974,-1.7974,-1.7974,-1.8008,-1.8008,-1.8008,-1.8008,-1.8008,-1.8008,-1.8008,-1.8008,-1.8008,-1.8008,-1.8008,-1.8008,-1.8008,-1.8008,-1.8008,-1.8008,-1.8008,-1.8008,-1.8008,-1.8168,-1.8178,-1.8269,-1.8337,-1.8664,-1.9365,-1.9911,-2.0236,-2.0846,-2.1259,-2.1227,-2.1195,-2.1542,-2.1729,-2.2021,-2.2156,-2.2506,-2.2884,-2.3078,-2.3065,-2.3095,-2.3095,-2.3095,-1.7001,-1.7609,-1.7374,-1.7415,-1.7536,-1.6879,-1.6034,-1.5304,-1.5636,-1.5311,-1.4412,-1.4741,-1.4692,-1.4124,-1.4088,-1.4088,-1.4088,-1.4088,-1.4088,-1.4088,-1.4088,-1.4088,-1.4088,-1.4088,-1.4088,-1.4088,-1.4088,-1.4088,-1.4124,-1.4088,-1.3981,-1.3829,-1.3414,-1.312,-1.2978,-1.2512,-1.2305,-1.2305,-1.2305,-1.2305,-1.2305,-1.2305,-1.2305,-1.2305,-1.2305,-1.2305,-1.2305,-1.2305,-1.2305,-1.2305,-1.2305,-1.2305,-1.2305,-1.2305,-1.2305,-1.2305,-1.2305,-1.2586,-1.2952,-1.3135,-1.3564,-1.4343,-1.4565,-1.5092,-1.5763,-1.6018,-1.6341,-1.6655,-1.6828,-1.6828,-1.6897,-1.7148,-1.7579,-1.794,-1.8008,-1.8008,-1.8008,-1.8008,-1.8008,-1.8008,-1.8008,-1.8008,-1.8008,-1.8008,-1.8008,-1.8008,-1.8008,-1.8008,-1.8008,-1.8008,-1.8008,-1.8008,-1.8008,-1.8076,-1.811,-1.8144,-1.8144,-1.8787,-1.9011,-1.9276,-1.9857,-2.0333,-2.0494,-2.0526,-2.0558,-2.0687,-2.1101,-2.1553,-2.2094,-2.2476,-2.2823,-2.3005,-2.2975,-2.275,-2.2781,-1.5786,-1.5951,-1.6805,-1.6601,-1.5869,-1.5579,-1.5061,-1.425,-1.4292,-1.425,-1.413,-1.413,-1.4208,-1.4088,-1.4088,-1.4088,-1.4088,-1.4088,-1.4088,-1.4088,-1.4088,-1.4088,-1.4088,-1.4088,-1.4088,-1.4088,-1.4088,-1.4088,-1.4088,-1.4088,-1.4088,-1.3935,-1.352,-1.326,-1.3073,-1.2645,-1.2371,-1.2311,-1.2305,-1.2305,-1.2305,-1.2305,-1.2305,-1.2305,-1.2305,-1.2305,-1.2305,-1.2305,-1.2305,-1.2305,-1.2305,-1.2305,-1.2305,-1.2305,-1.2305,-1.2305,-1.2305,-1.2342,-1.2342,-1.2445,-1.2666,-1.3382,-1.3564,-1.3991,-1.4772,-1.5065,-1.5171,-1.5517,-1.5234,-1.5446,-1.5552,-1.6035,-1.6645,-1.7217,-1.7545,-1.7657,-1.7725,-1.7862,-1.8008,-1.8008,-1.8008,-1.8008,-1.8008,-1.8008,-1.8008,-1.8008,-1.8008,-1.8008,-1.8008,-1.8008,-1.8008,-1.8008,-1.8008,-1.8008,-1.8008,-1.8008,-1.8042,-1.8236,-1.8293,-1.8596,-1.9309,-1.9792,-2.0009,-2.0074,-1.9661,-1.9781,-2.0333,-2.0878,-2.1396,-2.1784,-2.1959,-2.2372,-2.2671,-2.2249,-2.2113,-1.6191,-1.6927,-1.6273,-1.5902,-1.5579,-1.4817,-1.4334,-1.413,-1.4088,-1.4088,-1.4088,-1.4088,-1.4088,-1.4088,-1.4088,-1.4088,-1.4088,-1.4088,-1.4088,-1.4088,-1.4088,-1.4088,-1.4088,-1.4088,-1.4088,-1.4088,-1.4088,-1.4088,-1.4088,-1.4088,-1.4088,-1.4021,-1.3721,-1.3393,-1.3186,-1.2846,-1.2563,-1.2351,-1.2305,-1.2305,-1.2305,-1.2305,-1.2305,-1.2305,-1.2305,-1.2305,-1.2305,-1.2305,-1.2305,-1.2305,-1.2305,-1.2305,-1.2305,-1.2305,-1.2305,-1.2305,-1.2305,-1.2305,-1.2305,-1.2305,-1.2342,-1.2629,-1.2776,-1.2981,-1.389,-1.4034,-1.4422,-1.495,-1.5199,-1.5021,-1.5128,-1.534,-1.5693,-1.5939,-1.6009,-1.5939,-1.6053,-1.7088,-1.7725,-1.7862,-1.7862,-1.7974,-1.794,-1.7794,-1.7828,-1.794,-1.7974,-1.7974,-1.7974,-1.7896,-1.8008,-1.8008,-1.8008,-1.8008,-1.8008,-1.8008,-1.8008,-1.8008,-1.8008,-1.8042,-1.8754,-1.8977,-1.9144,-1.8911,-1.8496,-1.8888,-1.9529,-1.9814,-2.0268,-2.0655,-2.1069,-2.1416,-2.1604,-2.1416,-2.1479,-1.5304,-1.5718,-1.5186,-1.4936,-1.4859,-1.4328,-1.4088,-1.4088,-1.4088,-1.4088,-1.4088,-1.4088,-1.4088,-1.4088,-1.4088,-1.4088,-1.4088,-1.4088,-1.4088,-1.4088,-1.4088,-1.4088,-1.4088,-1.4088,-1.4088,-1.4088,-1.4088,-1.4088,-1.4088,-1.4088,-1.4088,-1.4062,-1.3753,-1.354,-1.3353,-1.3025,-1.2717,-1.2556,-1.2365,-1.2305,-1.2305,-1.2305,-1.2305,-1.2305,-1.2305,-1.2305,-1.2305,-1.2305,-1.2305,-1.2305,-1.2268,-1.2305,-1.2305,-1.2305,-1.2305,-1.2305,-1.2305,-1.2305,-1.2305,-1.2305,-1.2305,-1.2305,-1.2305,-1.2556,-1.2915,-1.3025,-1.3244,-1.3702,-1.3839,-1.3947,-1.4422,-1.4486,-1.4629,-1.5128,-1.5163,-1.5199,-1.534,-1.6088,-1.6689,-1.6689,-1.655,-1.6585,-1.6655,-1.6941,-1.6768,-1.655,-1.7132,-1.7201,-1.7467,-1.7501,-1.7896,-1.8008,-1.8008,-1.8008,-1.8008,-1.8008,-1.8008,-1.8008,-1.8008,-1.8008,-1.8303,-1.8269,-1.8134,-1.8076,-1.811,-1.8144,-1.8687,-1.8911,-1.9299,-1.9814,-2.0236,-2.043,-2.0623,-2.0782,-2.0878,-1.4088,-1.4088,-1.4088,-1.4088,-1.4088,-1.4088,-1.4088,-1.4088,-1.4088,-1.4088,-1.4088,-1.4088,-1.4088,-1.4088,-1.4088,-1.4088,-1.4088,-1.4088,-1.4088,-1.4088,-1.4088,-1.4088,-1.4088,-1.4088,-1.4088,-1.4088,-1.4088,-1.4088,-1.4088,-1.4088,-1.4088,-1.4048,-1.3868,-1.3653,-1.3487,-1.3193,-1.2931,-1.2851,-1.2282,-1.2039,-1.1926,-1.1825,-1.1589,-1.1552,-1.1552,-1.1552,-1.1515,-1.1589,-1.1774,-1.2033,-1.207,-1.215,-1.2268,-1.2305,-1.2305,-1.2305,-1.2305,-1.2305,-1.2305,-1.2305,-1.2305,-1.2305,-1.2305,-1.2305,-1.2342,-1.2409,-1.2482,-1.2452,-1.2629,-1.2842,-1.339,-1.3491,-1.3882,-1.4378,-1.47,-1.4772,-1.4772,-1.4772,-1.4843,-1.5411,-1.5658,-1.5763,-1.5623,-1.5658,-1.5376,-1.5305,-1.5956,-1.642,-1.6655,-1.7035,-1.7398,-1.7794,-1.7794,-1.7974,-1.8008,-1.7906,-1.7906,-1.7828,-1.7862,-1.7862,-1.7896,-1.8008,-1.8008,-1.8008,-1.8042,-1.811,-1.8178,-1.8529,-1.8888,-1.9199,-1.9332,-1.9464,-1.9792,-2.0139,-2.0139,-1.4088,-1.4088,-1.4088,-1.4088,-1.4088,-1.4088,-1.4088,-1.4088,-1.4088,-1.4088,-1.4088,-1.4088,-1.4088,-1.4088,-1.4088,-1.4088,-1.4088,-1.4088,-1.4088,-1.4088,-1.4088,-1.4082,-1.3906,-1.3864,-1.3913,-1.4088,-1.3955,-1.3828,-1.4088,-1.4088,-1.3864,-1.399,-1.3805,-1.3638,-1.3365,-1.3433,-1.2934,-1.2542,-1.1848,-1.1366,-1.1165,-1.06,-1.0099,-1.0094,-1.0164,-1.0088,-0.9976,-0.9938,-1.0158,-1.0901,-1.1007,-1.1502,-1.2003,-1.2194,-1.2231,-1.2305,-1.2305,-1.2305,-1.2305,-1.2305,-1.2305,-1.2305,-1.2305,-1.2305,-1.2305,-1.2305,-1.2305,-1.2305,-1.2305,-1.2415,-1.2526,-1.2666,-1.2629,-1.2842,-1.2981,-1.2981,-1.2981,-1.3127,-1.3629,-1.4522,-1.4879,-1.4985,-1.47,-1.4557,-1.4522,-1.4557,-1.5021,-1.5349,-1.5517,-1.6079,-1.668,-1.7113,-1.7501,-1.7759,-1.8008,-1.7828,-1.7725,-1.7545,-1.751,-1.7476,-1.7579,-1.7906,-1.7974,-1.751,-1.7691,-1.8042,-1.8144,-1.8269,-1.8337,-1.8586,-1.8563,-1.8529,-1.8854,-1.9144,-1.8888,-1.4088,-1.4088,-1.4088,-1.4088,-1.4088,-1.4088,-1.4088,-1.4088,-1.4088,-1.4088,-1.4088,-1.4088,-1.4088,-1.4088,-1.4088,-1.4088,-1.4088,-1.4088,-1.4088,-1.4088,-1.4088,-1.3688,-1.3252,-1.316,-1.2778,-1.2431,-1.2303,-1.3082,-1.3913,-1.3379,-1.3203,-1.2991,-1.2644,-1.219,-1.202,-1.1797,-1.1834,-1.1485,-1.0929,-1.0428,-1.0401,-0.9652,-0.9394,-0.9289,-0.9263,-0.9296,-0.9296,-0.9296,-0.9523,-0.9933,-1.0045,-1.0565,-1.1205,-1.1583,-1.1774,-1.2114,-1.2231,-1.2268,-1.2268,-1.2305,-1.2305,-1.2305,-1.2268,-1.2305,-1.2305,-1.2305,-1.2194,-1.2268,-1.2305,-1.2305,-1.2342,-1.2268,-1.2305,-1.2305,-1.2305,-1.2305,-1.2305,-1.2305,-1.2945,-1.373,-1.3593,-1.3557,-1.352,-1.3484,-1.3629,-1.3875,-1.4199,-1.4307,-1.4414,-1.5128,-1.5869,-1.6219,-1.6576,-1.6724,-1.6975,-1.701,-1.701,-1.6941,-1.6897,-1.6872,-1.6802,-1.6872,-1.6689,-1.6298,-1.6793,-1.7579,-1.7974,-1.8066,-1.8008,-1.7974,-1.8144,-1.8236,-1.811,-1.8042,-1.8008,-1.4088,-1.4088,-1.4088,-1.4088,-1.4088,-1.4088,-1.4088,-1.4088,-1.4088,-1.4088,-1.4088,-1.4088,-1.4088,-1.4039,-1.3822,-1.3695,-1.3688,-1.3519,-1.3215,-1.3167,-1.3167,-1.2729,-1.2206,-1.1852,-1.1595,-1.1133,-1.0956,-1.1563,-1.2644,-1.2376,-1.2023,-1.1815,-1.0999,-1.0616,-1.0689,-1.0783,-1.0321,-1.0114,-0.9722,-0.9442,-0.9139,-0.8976,-0.8838,-0.876,-0.8718,-0.858,-0.8466,-0.8428,-0.8656,-0.8879,-0.9107,-0.9448,-1.0303,-1.049,-1.0864,-1.1583,-1.1848,-1.1885,-1.17,-1.1922,-1.1737,-1.1403,-1.1818,-1.1855,-1.1589,-1.136,-1.1508,-1.17,-1.1922,-1.1885,-1.1885,-1.215,-1.2268,-1.2305,-1.2305,-1.2305,-1.2305,-1.2305,-1.2305,-1.2592,-1.2305,-1.2372,-1.2586,-1.2769,-1.2989,-1.3025,-1.331,-1.3375,-1.3557,-1.4314,-1.495,-1.5269,-1.5482,-1.5482,-1.5623,-1.5763,-1.5842,-1.5913,-1.5869,-1.5877,-1.5693,-1.5517,-1.5376,-1.5482,-1.6123,-1.6872,-1.7329,-1.7647,-1.7501,-1.7501,-1.7794,-1.7974,-1.8008,-1.8008,-1.8008,-1.4088,-1.4088,-1.4088,-1.4088,-1.4088,-1.4088,-1.4088,-1.4088,-1.4088,-1.4088,-1.4082,-1.4039,-1.3997,-1.3695,-1.2857,-1.2547,-1.2291,-1.1778,-1.1434,-1.1477,-1.1391,-1.1214,-1.0821,-1.0821,-1.0562,-1.0135,-1.0265,-1.0659,-1.0999,-1.0826,-1.0783,-1.0697,-1.0481,-1.0481,-1.0082,-0.9991,-1.0532,-1.0267,-0.9338,-0.8296,-0.7409,-0.7134,-0.7093,-0.6979,-0.6926,-0.6933,-0.7045,-0.7119,-0.7253,-0.7936,-0.7974,-0.8466,-0.9253,-0.948,-0.9523,-0.9895,-1.0265,-1.0602,-1.0158,-1.0571,-1.072,-1.0346,-1.0533,-1.0415,-1.0233,-1.0008,-1.0013,-0.9674,-1.0421,-1.0938,-1.113,-1.1694,-1.2077,-1.2083,-1.1855,-1.1966,-1.204,-1.1477,-1.1552,-1.1669,-1.1477,-1.1774,-1.207,-1.2187,-1.2342,-1.2342,-1.2378,-1.2482,-1.2732,-1.3484,-1.3954,-1.4271,-1.4378,-1.4414,-1.4343,-1.4486,-1.4593,-1.4772,-1.4772,-1.4772,-1.4593,-1.445,-1.4835,-1.5048,-1.5517,-1.5552,-1.5587,-1.5904,-1.6507,-1.7104,-1.7545,-1.7828,-1.8008,-1.8008,-1.7974,-1.4088,-1.4088,-1.4088,-1.4088,-1.4088,-1.4088,-1.4088,-1.4088,-1.4088,-1.4088,-1.3948,-1.3336,-1.2766,-1.2169,-1.1515,-1.1343,-1.1209,-1.0735,-1.0611,-1.0481,-1.0438,-1.0226,-0.9753,-0.9579,-0.9405,-0.8834,-0.8619,-0.8444,-0.8794,-0.9362,-0.9666,-0.9536,-0.9013,-0.8532,-0.8877,-0.8659,-0.8571,-0.8372,-0.8012,-0.7479,-0.6932,-0.6763,-0.6688,-0.6637,-0.6497,-0.6433,-0.6399,-0.633,-0.6458,-0.6949,-0.6949,-0.7442,-0.8161,-0.8466,-0.8466,-0.8504,-0.8799,-0.914,-0.9367,-0.9707,-0.9561,-0.9485,-0.9631,-0.975,-0.9372,-0.9221,-0.9221,-0.9334,-0.9669,-0.9927,-0.9965,-1.0308,-1.0496,-1.0645,-1.0913,-1.0838,-1.0838,-1.0614,-1.0389,-1.0539,-1.0689,-1.0913,-1.1248,-1.1626,-1.1781,-1.1892,-1.2003,-1.215,-1.2298,-1.2659,-1.3018,-1.3237,-1.3302,-1.3302,-1.323,-1.323,-1.3273,-1.3382,-1.3346,-1.3382,-1.3382,-1.3448,-1.3839,-1.3766,-1.3629,-1.3665,-1.3774,-1.4906,-1.6184,-1.6819,-1.7354,-1.7467,-1.7579,-1.793,-1.793,-1.3913,-1.3695,-1.3955,-1.4088,-1.4088,-1.4088,-1.3913,-1.3646,-1.3603,-1.347,-1.3039,-1.2248,-1.1381,-1.0654,-1.0399,-1.0183,-1.0139,-0.9874,-0.9744,-0.9744,-0.9657,-0.9139,-0.8667,-0.8364,-0.8013,-0.7095,-0.7445,-0.7401,-0.7577,-0.7925,-0.8452,-0.8412,-0.7797,-0.7356,-0.7183,-0.7312,-0.7401,-0.7397,-0.7305,-0.7115,-0.6943,-0.6932,-0.6809,-0.6746,-0.662,-0.6549,-0.6501,-0.6426,-0.6364,-0.6338,-0.6416,-0.6795,-0.7326,-0.7442,-0.7442,-0.7442,-0.7553,-0.7783,-0.8237,-0.8613,-0.8765,-0.8651,-0.8537,-0.8351,-0.8428,-0.858,-0.8542,-0.8313,-0.8765,-0.8879,-0.8998,-0.915,-0.9561,-0.9636,-0.9561,-0.9372,-0.9296,-0.9448,-0.9636,-0.9863,-0.9938,-0.9712,-1.0164,-1.0875,-1.1211,-1.1403,-1.1589,-1.17,-1.1848,-1.1959,-1.2335,-1.2549,-1.2622,-1.2615,-1.2586,-1.2402,-1.2305,-1.212,-1.212,-1.2305,-1.2549,-1.2629,-1.2806,-1.2519,-1.2305,-1.2519,-1.3055,-1.455,-1.586,-1.5825,-1.5974,-1.6724,-1.7113,-1.7467,-1.7467,-1.3428,-1.2498,-1.3597,-1.3955,-1.3955,-1.4088,-1.3385,-1.2467,-1.2413,-1.1858,-1.1042,-1.074,-1.0605,-1.0221,-0.9405,-0.9017,-0.8978,-0.7841,-0.7749,-0.7617,-0.736,-0.7577,-0.7489,-0.7445,-0.7316,-0.7139,-0.7095,-0.7095,-0.7139,-0.7316,-0.7404,-0.7187,-0.7183,-0.7139,-0.7095,-0.7095,-0.7095,-0.7095,-0.7095,-0.7095,-0.7031,-0.697,-0.6889,-0.6849,-0.6766,-0.6624,-0.6528,-0.6494,-0.6433,-0.633,-0.6109,-0.6064,-0.6328,-0.6367,-0.6405,-0.6405,-0.6598,-0.6791,-0.7061,-0.7518,-0.7365,-0.6872,-0.6679,-0.6945,-0.7061,-0.6718,-0.6563,-0.6907,-0.7557,-0.7859,-0.8161,-0.858,-0.8732,-0.8694,-0.8504,-0.8542,-0.8542,-0.8732,-0.8922,-0.9221,-0.9069,-0.8656,-0.858,-0.9178,-1.0045,-1.0308,-1.0421,-1.0533,-1.0981,-1.1205,-1.17,-1.1996,-1.207,-1.2114,-1.215,-1.1929,-1.1477,-1.136,-1.1403,-1.1774,-1.2144,-1.2114,-1.1959,-1.2305,-1.2305,-1.2305,-1.2378,-1.3557,-1.4299,-1.4235,-1.4629,-1.5728,-1.6263,-1.6437,-1.6298,-1.1649,-1.13,-1.1778,-1.1955,-1.1955,-1.1955,-1.1692,-1.13,-1.1252,-1.0611,-0.9536,-0.9536,-0.9144,-0.8536,-0.8141,-0.7797,-0.7753,-0.7401,-0.7139,-0.7095,-0.7139,-0.7095,-0.7095,-0.7095,-0.7139,-0.7095,-0.7095,-0.7095,-0.7095,-0.7007,-0.7095,-0.7095,-0.6871,-0.7095,-0.7095,-0.6918,-0.6959,-0.7007,-0.7007,-0.7051,-0.7085,-0.7058,-0.7014,-0.7001,-0.6876,-0.6827,-0.6739,-0.6596,-0.6504,-0.6222,-0.5677,-0.541,-0.5315,-0.5315,-0.5315,-0.5434,-0.5786,-0.6141,-0.6222,-0.6641,-0.6641,-0.649,-0.6296,-0.63,-0.63,-0.63,-0.63,-0.649,-0.6644,-0.6984,-0.7022,-0.7215,-0.733,-0.7446,-0.7557,-0.7633,-0.7744,-0.7859,-0.7859,-0.797,-0.7672,-0.7253,-0.7253,-0.7403,-0.8313,-0.9145,-0.9258,-0.9448,-0.989,-1.034,-1.0757,-1.0987,-1.1025,-1.0913,-1.0913,-1.072,-1.0533,-1.0645,-1.072,-1.1168,-1.1545,-1.1391,-1.1354,-1.1811,-1.2305,-1.2305,-1.2415,-1.2629,-1.2989,-1.3491,-1.4243,-1.5199,-1.5446,-1.5403,-1.5296,-1.0394,-1.0096,-1.0096,-1.0308,-1.0567,-1.0567,-1.0394,-1.0096,-1.0091,-0.9444,-0.8368,-0.8321,-0.7929,-0.7272,-0.7139,-0.7183,-0.7228,-0.7139,-0.7139,-0.7095,-0.7095,-0.7095,-0.7095,-0.7095,-0.7095,-0.7095,-0.7051,-0.7051,-0.6473,-0.6561,-0.6201,-0.5977,-0.6068,-0.6068,-0.6473,-0.6245,-0.6065,-0.6065,-0.6065,-0.6065,-0.5977,-0.593,-0.5924,-0.5871,-0.5711,-0.5605,-0.5499,-0.5296,-0.526,-0.5015,-0.4664,-0.4293,-0.4229,-0.4215,-0.4215,-0.4569,-0.5118,-0.5786,-0.5867,-0.6145,-0.6261,-0.63,-0.63,-0.63,-0.6261,-0.6261,-0.63,-0.63,-0.6335,-0.6257,-0.6257,-0.6528,-0.6606,-0.6795,-0.6756,-0.6834,-0.6795,-0.6834,-0.6718,-0.6679,-0.6451,-0.6567,-0.6606,-0.6756,-0.7138,-0.8008,-0.8389,-0.8537,-0.8879,-0.9291,-0.9674,-0.9787,-0.975,-0.9599,-0.941,-0.9599,-0.9857,-1.0083,-1.0233,-1.0565,-1.082,-1.0708,-1.1124,-1.1922,-1.2305,-1.2305,-1.2342,-1.2445,-1.2739,-1.3098,-1.3738,-1.4199,-1.4199,-1.4163,-1.4478,-0.9879,-0.8978,-0.893,-0.9536,-1.0308,-1.0524,-0.9879,-0.8973,-0.8886,-0.8321,-0.7401,-0.7316,-0.7272,-0.7095,-0.7095,-0.7095,-0.7095,-0.7095,-0.7007,-0.6871,-0.6782,-0.6962,-0.6782,-0.6647,-0.6378,-0.6959,-0.6647,-0.6024,-0.5447,-0.5403,-0.4865,-0.4239,-0.4194,-0.4417,-0.5225,-0.4285,-0.3749,-0.3749,-0.3927,-0.4059,-0.4148,-0.4194,-0.4237,-0.4233,-0.4269,-0.4272,-0.4177,-0.4087,-0.404,-0.3784,-0.3441,-0.3155,-0.3151,-0.3132,-0.3125,-0.3242,-0.4178,-0.4688,-0.4805,-0.567,-0.5867,-0.5786,-0.555,-0.5705,-0.6025,-0.6103,-0.6022,-0.5786,-0.6022,-0.618,-0.6257,-0.6296,-0.6296,-0.63,-0.63,-0.63,-0.63,-0.63,-0.63,-0.63,-0.63,-0.63,-0.6296,-0.6335,-0.6374,-0.683,-0.7361,-0.7706,-0.7936,-0.8122,-0.8466,-0.8466,-0.8428,-0.8428,-0.8389,-0.8841,-0.9178,-0.9405,-0.948,-0.9513,-1.0034,-1.034,-1.0981,-1.1929,-1.1781,-1.1329,-1.1737,-1.2187,-1.2181,-1.2094,-1.2445,-1.2806,-1.2806,-1.3055,-1.352,-0.8057,-0.7709,-0.7709,-0.7925,-0.8269,-0.8273,-0.8057,-0.7753,-0.7665,-0.7489,-0.7183,-0.7095,-0.7095,-0.7095,-0.7051,-0.7051,-0.7051,-0.7051,-0.6915,-0.5983,-0.598,-0.5354,-0.5129,-0.5041,-0.4952,-0.4816,-0.4772,-0.4816,-0.4194,-0.4196,-0.4107,-0.3571,-0.2771,-0.3126,-0.3838,-0.3705,-0.3614,-0.3614,-0.3659,-0.3614,-0.357,-0.3525,-0.3481,-0.3436,-0.3393,-0.3333,-0.3219,-0.3104,-0.3005,-0.2817,-0.2487,-0.2106,-0.2076,-0.2101,-0.2116,-0.2309,-0.3049,-0.3593,-0.3671,-0.4021,-0.4139,-0.4178,-0.4375,-0.4411,-0.4219,-0.4178,-0.453,-0.5079,-0.5196,-0.5509,-0.6103,-0.6219,-0.6257,-0.6296,-0.63,-0.63,-0.63,-0.63,-0.63,-0.63,-0.63,-0.618,-0.6103,-0.6257,-0.63,-0.63,-0.683,-0.6868,-0.7022,-0.6907,-0.7061,-0.7061,-0.7022,-0.7173,-0.7361,-0.7778,-0.7855,-0.7855,-0.7778,-0.7706,-0.8385,-0.9626,-0.997,-1.0464,-1.0389,-1.0314,-1.0651,-1.0913,-1.0907,-1.0981,-1.1397,-1.204,-1.2482,-1.2703,-1.2945,-0.7095,-0.7095,-0.7095,-0.7095,-0.7095,-0.7095,-0.7095,-0.7095,-0.7095,-0.7095,-0.7095,-0.7095,-0.7095,-0.7007,-0.6694,-0.6517,-0.6473,-0.5977,-0.5708,-0.4776,-0.4776,-0.4372,-0.3927,-0.3525,-0.3926,-0.357,-0.3525,-0.3525,-0.2992,-0.2992,-0.2637,-0.2057,0.0,-0.1657,-0.2103,-0.2191,-0.2147,-0.2102,-0.2013,-0.2102,-0.2147,-0.2191,-0.2235,-0.2191,-0.2191,-0.2234,-0.2272,0.0,0.0,0.0,0.0,0.0,0.0,0.0,0.0,-0.1337,-0.1957,-0.2464,-0.2618,-0.2618,-0.2581,-0.2073,-0.2578,-0.3046,-0.3124,-0.3357,-0.3593,-0.3945,-0.41,-0.453,-0.5079,-0.5315,-0.5354,-0.5354,-0.5315,-0.5276,-0.5234,-0.5157,-0.5196,-0.5315,-0.5392,-0.5434,-0.5747,-0.6141,-0.63,-0.63,-0.6335,-0.6219,-0.618,-0.6257,-0.6257,-0.6335,-0.6374,-0.6602,-0.6679,-0.6679,-0.6641,-0.6335,-0.6567,-0.6872,-0.7668,-0.895,-0.8955,-0.9069,-0.941,-0.9636,-0.9485,-0.9561,-0.9782,-1.0121,-1.0496,-1.1217,-1.2083,-1.2298,-1.2328,-0.7095,-0.7095,-0.7095,-0.7095,-0.7095,-0.6962,-0.7007,-0.7095,-0.7095,-0.7051,-0.701,-0.6915,-0.6694,-0.6558,-0.5758,-0.5359,-0.5223,-0.4328,-0.3881,-0.3614,-0.3571,-0.3349,-0.3215,-0.3037,-0.2814,-0.3126,-0.3081,-0.2281,0.0,-0.1745,-0.1165,0.0,0.0,0.0,0.0,0.0,0.0,0.0,0.0,0.0,0.0,0.0,0.0,0.0,0.0,0.0,0.0,0.0,0.0,0.0,0.0,0.0,0.0,0.0,0.0,-0.0316,-0.1137,-0.1372,-0.1528,-0.1528,-0.1215,-0.0902,-0.1839,-0.2617,-0.2734,-0.2462,-0.2618,-0.2852,-0.3086,-0.3163,-0.3357,-0.3474,-0.3593,-0.3554,-0.3554,-0.3515,-0.3515,-0.3476,-0.3515,-0.3554,-0.3632,-0.3865,-0.4608,-0.5118,-0.547,-0.5315,-0.5237,-0.5315,-0.5431,-0.6219,-0.6219,-0.6296,-0.6296,-0.63,-0.63,-0.6261,-0.63,-0.63,-0.6756,-0.7138,-0.7859,-0.8084,-0.8084,-0.8275,-0.8808,-0.8884,-0.8428,-0.8542,-0.896,-0.9258,-0.9485,-1.0164,-1.0913,-1.1403,-1.1545,-0.7095,-0.7095,-0.7095,-0.7095,-0.6962,-0.6204,-0.6337,-0.7051,-0.7095,-0.6694,-0.5894,-0.5894,-0.5531,-0.4594,-0.4285,-0.4152,-0.3972,-0.3703,-0.3037,-0.268,-0.2325,-0.1745,0.0,0.0,0.0,0.0,0.0,0.0,0.0,0.0,0.0,0.0,0.0,0.0,0.0,0.0,0.0,0.0,0.0,0.0,0.0,0.0,0.0,0.0,0.0,0.0,0.0,0.0,0.0,0.0,0.0,0.0,0.0,0.0,0.0,0.0,-0.0353,-0.0471,-0.0471,-0.0471,-0.0275,0.0078,-0.0588,-0.0706,-0.0902,-0.1096,-0.137,-0.1801,-0.2034,-0.2111,-0.2384,-0.254,-0.2578,-0.2539,-0.2539,-0.2539,-0.2539,-0.2539,-0.2539,-0.2578,-0.2578,-0.2969,-0.3632,-0.3943,-0.4217,-0.41,-0.41,-0.4256,-0.4569,-0.5312,-0.5667,-0.5667,-0.5786,-0.5628,-0.6064,-0.6141,-0.6222,-0.6374,-0.6756,-0.6949,-0.6984,-0.7096,-0.7173,-0.7403,-0.7706,-0.7518,-0.7061,-0.7365,-0.7897,-0.8127,-0.8389,-0.9069,-0.9712,-1.0196,-1.0539,-0.7095,-0.7051,-0.6605,-0.6157,-0.562,-0.4996,-0.5132,-0.5664,-0.5708,-0.5265,-0.4732,-0.4685,-0.4283,-0.3703,-0.3215,-0.2903,-0.2814,-0.2191,-0.1612,-0.1299,0.0,-0.0718,0.0,0.0,0.0,0.0,0.0,0.0,0.0,0.0,0.0,0.0,0.0,0.0,0.0,0.0,0.0,0.0,0.0,0.0,0.0,0.0,0.0,0.0,0.0,0.0,0.0,0.0,0.0,0.0,0.0,0.0,0.0,0.0,0.0,0.0,0.0478,0.0238,0.0157,0.094,0.0862,0.0823,0.0941,0.1214,0.0744,0.0353,-0.0274,-0.0824,-0.0941,-0.1136,-0.1527,-0.1839,-0.18,-0.18,-0.18,-0.18,-0.18,-0.18,-0.18,-0.1839,-0.2034,-0.2308,-0.2618,-0.2852,-0.3163,-0.3396,-0.3476,-0.3515,-0.3709,-0.41,-0.4373,-0.4453,-0.4688,-0.4844,-0.5315,-0.5709,-0.5786,-0.5906,-0.6374,-0.649,-0.6257,-0.6296,-0.6521,-0.6525,-0.649,-0.6293,-0.6173,-0.6374,-0.6795,-0.7022,-0.7249,-0.7668,-0.8389,-0.9183,-0.941,-0.7095,-0.7007,-0.5849,-0.4821,-0.3659,-0.3571,-0.3481,-0.3436,-0.3393,-0.3393,-0.3438,-0.3482,-0.3304,-0.268,-0.2013,-0.17,-0.1478,-0.0897,0.0,0.0,0.0,0.0,0.0,0.0,0.0,0.0,0.0,0.0,0.0,0.0,0.0,0.0,0.0,0.0,0.0,0.0,0.0,0.0,0.0,0.0,0.0,0.0,0.0,0.0,0.0,0.0,0.0,0.0,0.0,0.0,0.0,0.0,0.0,0.0,0.0,0.0,0.0,0.1327,0.1312,0.1974,0.2159,0.2234,0.254,0.2578,0.2072,0.1527,0.0861,0.0666,0.0626,0.0587,0.0313,-0.0117,-0.0274,-0.047,-0.0588,0.0,0.0,0.0,0.0,0.0,-0.1136,-0.141,-0.1527,-0.1721,-0.1838,-0.2422,-0.2539,-0.2462,0.0,0.0,-0.3202,-0.332,-0.3748,-0.4062,-0.4295,-0.4686,-0.504,-0.5354,-0.5705,-0.5628,-0.5118,-0.5431,-0.5944,-0.555,-0.5118,-0.5509,-0.5589,-0.5705,-0.5825,-0.6099,-0.6289,-0.6335,-0.6984,-0.7893,-0.8203,-0.7095,-0.7007,-0.5849,-0.4685,-0.3527,-0.2592,-0.2236,-0.2147,-0.121,-0.1433,-0.2102,-0.2147,-0.179,-0.1076,0.0,0.0,0.0,0.0,0.0,0.0,0.0,0.0,0.0,0.0,0.0,0.0,0.0,0.0,0.0,0.0,0.0,0.0,0.0,0.0,0.0,0.0,0.0,0.0,0.0,0.0,0.0,0.0,0.0,0.0,0.0,0.0,0.0,0.0,0.0673,0.0,0.0,0.0,0.0,0.2674,0.268,0.2801,0.2827,0.2669,0.2672,0.2967,0.3193,0.3031,0.3054,0.3088,0.289,0.2539,0.2344,0.2306,0.2228,0.2189,0.2033,0.1566,0.1176,0.0863,0.0,0.0,0.0,0.0,0.0,0.0,0.0,-0.0353,-0.0431,-0.0588,-0.0666,-0.0705,-0.0666,0.0,0.0,0.0,0.0,-0.2384,-0.3007,-0.3318,-0.3435,-0.3593,-0.3906,-0.4023,-0.4217,-0.4139,-0.4023,-0.4297,-0.4608,-0.4059,-0.3746,-0.4256,-0.4647,-0.4724,-0.4882,-0.5118,-0.5395,-0.5473,-0.5747,-0.6511,-0.6749,-0.6337,-0.6113,-0.451,-0.3084,-0.2013,-0.1254,-0.0986,-0.0897,-0.0269,-0.0359,-0.0942,-0.0942,0.0,0.0,0.0,0.0,0.0,0.0,0.0,0.0,0.0,0.0,0.0,0.0,0.0,0.0,0.0,0.0,0.0,0.0,0.0,0.0,0.0404,0.0807,0.0852,0.1165,0.1478,0.0,0.1478,0.1478,0.1388,0.0,0.0,0.0,0.1567,0.1522,0.1612,0.1612,0.1969,0.2413,0.2592,0.2763,0.3304,0.3382,0.3474,0.364,0.3775,0.404,0.3892,0.41,0.4365,0.4188,0.4446,0.4817,0.4873,0.4511,0.3595,0.3437,0.2851,0.2695,0.2695,0.2345,0.2267,0.2072,0.1994,0.0,0.0,0.0,0.0,0.0,0.133,0.0745,0.051,-0.0078,-0.0157,-0.0275,-0.0039,0.0118,0.0,0.0,0.0,-0.1173,-0.1562,-0.2149,-0.2425,-0.2581,-0.2774,-0.2852,-0.2851,-0.3163,-0.3359,-0.3279,-0.3163,-0.2968,-0.2929,-0.3279,-0.3593,-0.3671,-0.3826,-0.3982,-0.4334,-0.4647,-0.4924,-0.5118,-0.5154,-0.5045,-0.4645,-0.2727,-0.1121,0.0,0.0,0.0,0.0,0.0,0.0,0.0,0.0,0.0,0.0,0.0,0.0,0.0,0.0,0.0,0.0,0.0,0.0,0.0,0.0,0.0,0.0,0.0,0.0,0.0,0.0,0.0,0.0,0.1254,0.2057,0.2369,0.2858,0.326,0.3126,0.3126,0.3482,0.3215,0.268,0.2771,0.317,0.3614,0.3614,0.357,0.357,0.357,0.3972,0.4061,0.4364,0.4448,0.4614,0.4498,0.4665,0.5124,0.4979,0.4779,0.5588,0.5651,0.5732,0.6269,0.6414,0.6348,0.5897,0.4991,0.4435,0.3847,0.3595,0.3556,0.3357,0.3318,0.324,0.3163,0.3044,0.3005,0.3005,0.3005,0.3005,0.2501,0.1841,0.1411,0.0823,0.0588,0.0392,0.0353,0.0392,0.0,0.0,0.0,0.0664,0.0508,-0.0195,-0.1136,-0.1488,-0.1604,-0.176,-0.1839,-0.2345,-0.2578,-0.215,-0.1994,-0.2305,-0.2344,0.0,0.0,-0.262,-0.2735,-0.289,-0.3513,-0.3904,-0.3826,-0.3945,-0.3593,-0.3393,-0.2459,-0.1969,-0.1076,0.0,0.0,0.0,0.0,0.0,0.0,0.0,0.0,0.0,0.0,0.0,0.0,0.0,0.0,0.0,0.0,0.0,0.0,0.0,0.0,0.0,0.1121,0.1568,0.2013,0.2103,0.2503,0.2814,0.2726,0.2904,0.326,0.3304,0.3748,0.397,0.4059,0.4148,0.4283,0.4641,0.4152,0.3481,0.357,0.3614,0.3614,0.3614,0.3614,0.4194,0.4954,0.5755,0.6021,0.6065,0.5977,0.5948,0.5843,0.6311,0.617,0.627,0.6498,0.6384,0.6383,0.6643,0.6616,0.6593,0.6576,0.5953,0.5857,0.5464,0.5349,0.5215,0.4613,0.4375,0.4139,0.4021,0.3671,0.3437,0.3437,0.3437,0.3396,0.3163,0.2852,0.2735,0.2345,0.2189,0.2073,0.2034,0.2072,0.1955,0.2189,0.2345,0.2228,0.215,0.1253,0.0078,-0.0235,-0.0431,-0.0588,0.0,0.0,0.0,0.0,0.0,0.0,0.0,0.0,0.0,-0.1605,-0.1722,-0.1995,-0.2773,-0.3202,0.0,-0.2734,-0.2423]}]]